<?xml version="1.0" encoding="UTF-8" standalone="no" ?>
<gpx xmlns="http://www.topografix.com/GPX/1/1" xmlns:xsi="http://www.w3.org/2001/XMLSchema-instance" xsi:schemaLocation="http://www.topografix.com/GPX/1/1 http://www.topografix.com/GPX/1/1/gpx.xsd" version="1.1" creator="VisuGPX - https://www.visugpx.com">
  <metadata>
    <name>Bouvante le Haut</name>
    <desc><![CDATA[Bouvante le Haut aller retour par la m^me route]]></desc>
  </metadata>
  <trk>
    <name><![CDATA[Bouvante le Haut]]></name>
    <trkseg>
      <trkpt lat="45.11564" lon="4.9643">
        <ele>231.05599975586</ele>
        <time>2009-07-11T11:27:18Z</time>
      </trkpt>
      <trkpt lat="45.1156" lon="4.96431">
        <ele>230.45599365234</ele>
        <time>2009-07-11T11:27:32Z</time>
      </trkpt>
      <trkpt lat="45.11558" lon="4.96433">
        <ele>230.07499694824</ele>
        <time>2009-07-11T11:27:35Z</time>
      </trkpt>
      <trkpt lat="45.11561" lon="4.9645">
        <ele>229.46099853516</ele>
        <time>2009-07-11T11:27:41Z</time>
      </trkpt>
      <trkpt lat="45.11571" lon="4.96449">
        <ele>229.97599792481</ele>
        <time>2009-07-11T11:27:49Z</time>
      </trkpt>
      <trkpt lat="45.11571" lon="4.9645">
        <ele>229.95100402832</ele>
        <time>2009-07-11T11:27:50Z</time>
      </trkpt>
      <trkpt lat="45.11577" lon="4.96466">
        <ele>229.49800109863</ele>
        <time>2009-07-11T11:28:00Z</time>
      </trkpt>
      <trkpt lat="45.11576" lon="4.96478">
        <ele>229.12100219727</ele>
        <time>2009-07-11T11:28:03Z</time>
      </trkpt>
      <trkpt lat="45.11577" lon="4.96512">
        <ele>228.02200317383</ele>
        <time>2009-07-11T11:28:11Z</time>
      </trkpt>
      <trkpt lat="45.11625" lon="4.96631">
        <ele>227.14100646973</ele>
        <time>2009-07-11T11:28:31Z</time>
      </trkpt>
      <trkpt lat="45.11642" lon="4.96674">
        <ele>227.18899536133</ele>
        <time>2009-07-11T11:28:38Z</time>
      </trkpt>
      <trkpt lat="45.1166" lon="4.96718">
        <ele>227.65899658203</ele>
        <time>2009-07-11T11:28:45Z</time>
      </trkpt>
      <trkpt lat="45.11702" lon="4.96795">
        <ele>228.2440032959</ele>
        <time>2009-07-11T11:28:58Z</time>
      </trkpt>
      <trkpt lat="45.11723" lon="4.96829">
        <ele>227.89700317383</ele>
        <time>2009-07-11T11:29:04Z</time>
      </trkpt>
      <trkpt lat="45.11732" lon="4.96857">
        <ele>228.81300354004</ele>
        <time>2009-07-11T11:29:08Z</time>
      </trkpt>
      <trkpt lat="45.11748" lon="4.96878">
        <ele>228.63000488281</ele>
        <time>2009-07-11T11:29:12Z</time>
      </trkpt>
      <trkpt lat="45.11766" lon="4.96896">
        <ele>227.87300109863</ele>
        <time>2009-07-11T11:29:16Z</time>
      </trkpt>
      <trkpt lat="45.1182" lon="4.96982">
        <ele>228.94500732422</ele>
        <time>2009-07-11T11:29:30Z</time>
      </trkpt>
      <trkpt lat="45.11872" lon="4.97053">
        <ele>228.57600402832</ele>
        <time>2009-07-11T11:29:42Z</time>
      </trkpt>
      <trkpt lat="45.11879" lon="4.97093">
        <ele>227.94900512695</ele>
        <time>2009-07-11T11:29:47Z</time>
      </trkpt>
      <trkpt lat="45.11874" lon="4.97129">
        <ele>226.77799987793</ele>
        <time>2009-07-11T11:29:51Z</time>
      </trkpt>
      <trkpt lat="45.1189" lon="4.97256">
        <ele>225.70899963379</ele>
        <time>2009-07-11T11:30:04Z</time>
      </trkpt>
      <trkpt lat="45.11909" lon="4.97368">
        <ele>225.96200561523</ele>
        <time>2009-07-11T11:30:17Z</time>
      </trkpt>
      <trkpt lat="45.11914" lon="4.97397">
        <ele>224.65600585938</ele>
        <time>2009-07-11T11:30:20Z</time>
      </trkpt>
      <trkpt lat="45.11927" lon="4.9747">
        <ele>224.06500244141</ele>
        <time>2009-07-11T11:30:26Z</time>
      </trkpt>
      <trkpt lat="45.11935" lon="4.97519">
        <ele>225.90699768066</ele>
        <time>2009-07-11T11:30:30Z</time>
      </trkpt>
      <trkpt lat="45.11939" lon="4.9754">
        <ele>226.94500732422</ele>
        <time>2009-07-11T11:30:32Z</time>
      </trkpt>
      <trkpt lat="45.11941" lon="4.97551">
        <ele>227.17100524902</ele>
        <time>2009-07-11T11:30:33Z</time>
      </trkpt>
      <trkpt lat="45.11949" lon="4.97599">
        <ele>227.58500671387</ele>
        <time>2009-07-11T11:30:38Z</time>
      </trkpt>
      <trkpt lat="45.11956" lon="4.97634">
        <ele>228.32400512695</ele>
        <time>2009-07-11T11:30:42Z</time>
      </trkpt>
      <trkpt lat="45.11979" lon="4.97764">
        <ele>227.41299438477</ele>
        <time>2009-07-11T11:30:54Z</time>
      </trkpt>
      <trkpt lat="45.11995" lon="4.97857">
        <ele>228.60600280762</ele>
        <time>2009-07-11T11:31:03Z</time>
      </trkpt>
      <trkpt lat="45.1203" lon="4.98013">
        <ele>230.13499450684</ele>
        <time>2009-07-11T11:31:22Z</time>
      </trkpt>
      <trkpt lat="45.12059" lon="4.98132">
        <ele>230.35800170898</ele>
        <time>2009-07-11T11:31:34Z</time>
      </trkpt>
      <trkpt lat="45.12066" lon="4.9823">
        <ele>232.18499755859</ele>
        <time>2009-07-11T11:31:43Z</time>
      </trkpt>
      <trkpt lat="45.12048" lon="4.98363">
        <ele>233.81900024414</ele>
        <time>2009-07-11T11:31:58Z</time>
      </trkpt>
      <trkpt lat="45.12041" lon="4.98385">
        <ele>234.42399597168</ele>
        <time>2009-07-11T11:32:01Z</time>
      </trkpt>
      <trkpt lat="45.12019" lon="4.98403">
        <ele>233.72799682617</ele>
        <time>2009-07-11T11:32:07Z</time>
      </trkpt>
      <trkpt lat="45.11996" lon="4.98394">
        <ele>232.79400634766</ele>
        <time>2009-07-11T11:32:11Z</time>
      </trkpt>
      <trkpt lat="45.11964" lon="4.98414">
        <ele>232.80999755859</ele>
        <time>2009-07-11T11:32:18Z</time>
      </trkpt>
      <trkpt lat="45.11958" lon="4.98423">
        <ele>233.17700195312</ele>
        <time>2009-07-11T11:32:22Z</time>
      </trkpt>
      <trkpt lat="45.11964" lon="4.9842">
        <ele>231.12100219727</ele>
        <time>2009-07-11T11:36:40Z</time>
      </trkpt>
      <trkpt lat="45.11964" lon="4.98421">
        <ele>231.11399841309</ele>
        <time>2009-07-11T11:36:41Z</time>
      </trkpt>
      <trkpt lat="45.11964" lon="4.98421">
        <ele>231.15400695801</ele>
        <time>2009-07-11T11:36:43Z</time>
      </trkpt>
      <trkpt lat="45.11962" lon="4.98421">
        <ele>229.29600524902</ele>
        <time>2009-07-11T11:40:13Z</time>
      </trkpt>
      <trkpt lat="45.1196" lon="4.98421">
        <ele>229.13600158691</ele>
        <time>2009-07-11T11:41:15Z</time>
      </trkpt>
      <trkpt lat="45.1196" lon="4.98421">
        <ele>228.97799682617</ele>
        <time>2009-07-11T11:41:19Z</time>
      </trkpt>
      <trkpt lat="45.1196" lon="4.98421">
        <ele>228.8809967041</ele>
        <time>2009-07-11T11:41:24Z</time>
      </trkpt>
      <trkpt lat="45.11959" lon="4.98421">
        <ele>228.74099731445</ele>
        <time>2009-07-11T11:41:28Z</time>
      </trkpt>
      <trkpt lat="45.1196" lon="4.98422">
        <ele>228.37100219727</ele>
        <time>2009-07-11T11:42:50Z</time>
      </trkpt>
      <trkpt lat="45.11961" lon="4.98421">
        <ele>228.33500671387</ele>
        <time>2009-07-11T11:42:58Z</time>
      </trkpt>
      <trkpt lat="45.11961" lon="4.98421">
        <ele>227.84300231934</ele>
        <time>2009-07-11T11:43:16Z</time>
      </trkpt>
      <trkpt lat="45.11961" lon="4.98422">
        <ele>227.94700622559</ele>
        <time>2009-07-11T11:43:22Z</time>
      </trkpt>
      <trkpt lat="45.11962" lon="4.98422">
        <ele>227.76600646973</ele>
        <time>2009-07-11T11:43:26Z</time>
      </trkpt>
      <trkpt lat="45.11962" lon="4.98422">
        <ele>227.59800720215</ele>
        <time>2009-07-11T11:43:31Z</time>
      </trkpt>
      <trkpt lat="45.11962" lon="4.98422">
        <ele>227.55499267578</ele>
        <time>2009-07-11T11:43:33Z</time>
      </trkpt>
      <trkpt lat="45.11964" lon="4.98422">
        <ele>227.51400756836</ele>
        <time>2009-07-11T11:43:39Z</time>
      </trkpt>
      <trkpt lat="45.11964" lon="4.98422">
        <ele>227.47500610352</ele>
        <time>2009-07-11T11:43:45Z</time>
      </trkpt>
      <trkpt lat="45.11964" lon="4.98422">
        <ele>227.55999755859</ele>
        <time>2009-07-11T11:43:47Z</time>
      </trkpt>
      <trkpt lat="45.11962" lon="4.98422">
        <ele>227.56100463867</ele>
        <time>2009-07-11T11:43:55Z</time>
      </trkpt>
      <trkpt lat="45.11961" lon="4.98422">
        <ele>227.62800598144</ele>
        <time>2009-07-11T11:44:02Z</time>
      </trkpt>
      <trkpt lat="45.1196" lon="4.98423">
        <ele>227.6190032959</ele>
        <time>2009-07-11T11:44:16Z</time>
      </trkpt>
      <trkpt lat="45.11965" lon="4.98419">
        <ele>227.05599975586</ele>
        <time>2009-07-11T11:45:21Z</time>
      </trkpt>
      <trkpt lat="45.11962" lon="4.9842">
        <ele>226.94599914551</ele>
        <time>2009-07-11T11:45:29Z</time>
      </trkpt>
      <trkpt lat="45.11973" lon="4.98403">
        <ele>226.94799804688</ele>
        <time>2009-07-11T11:45:37Z</time>
      </trkpt>
      <trkpt lat="45.11982" lon="4.98393">
        <ele>226.80200195312</ele>
        <time>2009-07-11T11:45:41Z</time>
      </trkpt>
      <trkpt lat="45.11994" lon="4.98394">
        <ele>226.90699768066</ele>
        <time>2009-07-11T11:45:45Z</time>
      </trkpt>
      <trkpt lat="45.12021" lon="4.98407">
        <ele>227.49200439453</ele>
        <time>2009-07-11T11:45:55Z</time>
      </trkpt>
      <trkpt lat="45.1203" lon="4.98424">
        <ele>227.95199584961</ele>
        <time>2009-07-11T11:46:00Z</time>
      </trkpt>
      <trkpt lat="45.12026" lon="4.98448">
        <ele>228.2859954834</ele>
        <time>2009-07-11T11:46:04Z</time>
      </trkpt>
      <trkpt lat="45.12023" lon="4.98467">
        <ele>228.60800170898</ele>
        <time>2009-07-11T11:46:07Z</time>
      </trkpt>
      <trkpt lat="45.12018" lon="4.98606">
        <ele>228.11199951172</ele>
        <time>2009-07-11T11:46:25Z</time>
      </trkpt>
      <trkpt lat="45.12037" lon="4.98738">
        <ele>226.46499633789</ele>
        <time>2009-07-11T11:46:42Z</time>
      </trkpt>
      <trkpt lat="45.12069" lon="4.98845">
        <ele>227.56799316406</ele>
        <time>2009-07-11T11:46:56Z</time>
      </trkpt>
      <trkpt lat="45.12097" lon="4.98907">
        <ele>228.17300415039</ele>
        <time>2009-07-11T11:47:05Z</time>
      </trkpt>
      <trkpt lat="45.12168" lon="4.99012">
        <ele>230.50799560547</ele>
        <time>2009-07-11T11:47:24Z</time>
      </trkpt>
      <trkpt lat="45.12203" lon="4.9905">
        <ele>232.78199768066</ele>
        <time>2009-07-11T11:47:33Z</time>
      </trkpt>
      <trkpt lat="45.12212" lon="4.99109">
        <ele>231.78500366211</ele>
        <time>2009-07-11T11:47:42Z</time>
      </trkpt>
      <trkpt lat="45.12154" lon="4.99324">
        <ele>230.12899780273</ele>
        <time>2009-07-11T11:48:07Z</time>
      </trkpt>
      <trkpt lat="45.1211" lon="4.99461">
        <ele>230.86199951172</ele>
        <time>2009-07-11T11:48:23Z</time>
      </trkpt>
      <trkpt lat="45.12041" lon="4.99585">
        <ele>232.81399536133</ele>
        <time>2009-07-11T11:48:41Z</time>
      </trkpt>
      <trkpt lat="45.11943" lon="4.99761">
        <ele>231.75199890137</ele>
        <time>2009-07-11T11:49:05Z</time>
      </trkpt>
      <trkpt lat="45.11866" lon="4.99845">
        <ele>235.89599609375</ele>
        <time>2009-07-11T11:49:22Z</time>
      </trkpt>
      <trkpt lat="45.11838" lon="4.99861">
        <ele>238.03300476074</ele>
        <time>2009-07-11T11:49:28Z</time>
      </trkpt>
      <trkpt lat="45.11778" lon="4.99885">
        <ele>241.96600341797</ele>
        <time>2009-07-11T11:49:42Z</time>
      </trkpt>
      <trkpt lat="45.11756" lon="4.99893">
        <ele>243.25500488281</ele>
        <time>2009-07-11T11:49:47Z</time>
      </trkpt>
      <trkpt lat="45.11745" lon="4.99898">
        <ele>244.42300415039</ele>
        <time>2009-07-11T11:49:50Z</time>
      </trkpt>
      <trkpt lat="45.11715" lon="4.99909">
        <ele>246.43200683594</ele>
        <time>2009-07-11T11:49:57Z</time>
      </trkpt>
      <trkpt lat="45.11665" lon="4.9994">
        <ele>249.18899536133</ele>
        <time>2009-07-11T11:50:09Z</time>
      </trkpt>
      <trkpt lat="45.11639" lon="4.99966">
        <ele>251.49099731445</ele>
        <time>2009-07-11T11:50:16Z</time>
      </trkpt>
      <trkpt lat="45.11575" lon="5.00054">
        <ele>254.09800720215</ele>
        <time>2009-07-11T11:50:33Z</time>
      </trkpt>
      <trkpt lat="45.11484" lon="5.00146">
        <ele>254.66400146484</ele>
        <time>2009-07-11T11:50:52Z</time>
      </trkpt>
      <trkpt lat="45.11447" lon="5.00181">
        <ele>254.36099243164</ele>
        <time>2009-07-11T11:50:59Z</time>
      </trkpt>
      <trkpt lat="45.11403" lon="5.00221">
        <ele>254.63400268555</ele>
        <time>2009-07-11T11:51:07Z</time>
      </trkpt>
      <trkpt lat="45.1134" lon="5.00278">
        <ele>255.47799682617</ele>
        <time>2009-07-11T11:51:18Z</time>
      </trkpt>
      <trkpt lat="45.11227" lon="5.00351">
        <ele>258.42001342773</ele>
        <time>2009-07-11T11:51:37Z</time>
      </trkpt>
      <trkpt lat="45.11115" lon="5.00409">
        <ele>263.95199584961</ele>
        <time>2009-07-11T11:51:58Z</time>
      </trkpt>
      <trkpt lat="45.11074" lon="5.00434">
        <ele>266.53698730469</ele>
        <time>2009-07-11T11:52:07Z</time>
      </trkpt>
      <trkpt lat="45.11046" lon="5.00451">
        <ele>268.38500976562</ele>
        <time>2009-07-11T11:52:13Z</time>
      </trkpt>
      <trkpt lat="45.10981" lon="5.005">
        <ele>271.9700012207</ele>
        <time>2009-07-11T11:52:29Z</time>
      </trkpt>
      <trkpt lat="45.10908" lon="5.00548">
        <ele>273.16299438477</ele>
        <time>2009-07-11T11:52:45Z</time>
      </trkpt>
      <trkpt lat="45.10872" lon="5.00562">
        <ele>271.24798583984</ele>
        <time>2009-07-11T11:52:51Z</time>
      </trkpt>
      <trkpt lat="45.10865" lon="5.00564">
        <ele>270.99899291992</ele>
        <time>2009-07-11T11:52:52Z</time>
      </trkpt>
      <trkpt lat="45.10796" lon="5.00574">
        <ele>266.64801025391</ele>
        <time>2009-07-11T11:53:00Z</time>
      </trkpt>
      <trkpt lat="45.10776" lon="5.00577">
        <ele>264.98001098633</ele>
        <time>2009-07-11T11:53:02Z</time>
      </trkpt>
      <trkpt lat="45.10765" lon="5.00579">
        <ele>264.87600708008</ele>
        <time>2009-07-11T11:53:03Z</time>
      </trkpt>
      <trkpt lat="45.10732" lon="5.00585">
        <ele>262.08801269531</ele>
        <time>2009-07-11T11:53:06Z</time>
      </trkpt>
      <trkpt lat="45.10673" lon="5.00604">
        <ele>258.14199829102</ele>
        <time>2009-07-11T11:53:11Z</time>
      </trkpt>
      <trkpt lat="45.10661" lon="5.00609">
        <ele>257.93899536133</ele>
        <time>2009-07-11T11:53:12Z</time>
      </trkpt>
      <trkpt lat="45.10599" lon="5.00648">
        <ele>253.46099853516</ele>
        <time>2009-07-11T11:53:17Z</time>
      </trkpt>
      <trkpt lat="45.10574" lon="5.00667">
        <ele>252.44200134277</ele>
        <time>2009-07-11T11:53:19Z</time>
      </trkpt>
      <trkpt lat="45.10549" lon="5.00687">
        <ele>251.4700012207</ele>
        <time>2009-07-11T11:53:21Z</time>
      </trkpt>
      <trkpt lat="45.10489" lon="5.00734">
        <ele>248.9940032959</ele>
        <time>2009-07-11T11:53:26Z</time>
      </trkpt>
      <trkpt lat="45.10425" lon="5.00785">
        <ele>248.78300476074</ele>
        <time>2009-07-11T11:53:32Z</time>
      </trkpt>
      <trkpt lat="45.10396" lon="5.00809">
        <ele>248.2619934082</ele>
        <time>2009-07-11T11:53:35Z</time>
      </trkpt>
      <trkpt lat="45.10323" lon="5.00867">
        <ele>249.32299804688</ele>
        <time>2009-07-11T11:53:44Z</time>
      </trkpt>
      <trkpt lat="45.10295" lon="5.0089">
        <ele>250.11399841309</ele>
        <time>2009-07-11T11:53:48Z</time>
      </trkpt>
      <trkpt lat="45.10233" lon="5.00944">
        <ele>251.3809967041</ele>
        <time>2009-07-11T11:53:58Z</time>
      </trkpt>
      <trkpt lat="45.10169" lon="5.01031">
        <ele>252.40899658203</ele>
        <time>2009-07-11T11:54:12Z</time>
      </trkpt>
      <trkpt lat="45.10126" lon="5.01103">
        <ele>253.89500427246</ele>
        <time>2009-07-11T11:54:23Z</time>
      </trkpt>
      <trkpt lat="45.10091" lon="5.0119">
        <ele>254.77499389648</ele>
        <time>2009-07-11T11:54:34Z</time>
      </trkpt>
      <trkpt lat="45.10074" lon="5.01335">
        <ele>255.05700683594</ele>
        <time>2009-07-11T11:54:50Z</time>
      </trkpt>
      <trkpt lat="45.10063" lon="5.01463">
        <ele>253.2559967041</ele>
        <time>2009-07-11T11:55:03Z</time>
      </trkpt>
      <trkpt lat="45.10037" lon="5.01681">
        <ele>253.06100463867</ele>
        <time>2009-07-11T11:55:25Z</time>
      </trkpt>
      <trkpt lat="45.09983" lon="5.01841">
        <ele>255.8390045166</ele>
        <time>2009-07-11T11:55:44Z</time>
      </trkpt>
      <trkpt lat="45.09956" lon="5.01918">
        <ele>257.43600463867</ele>
        <time>2009-07-11T11:55:54Z</time>
      </trkpt>
      <trkpt lat="45.09933" lon="5.01984">
        <ele>259.21701049805</ele>
        <time>2009-07-11T11:56:02Z</time>
      </trkpt>
      <trkpt lat="45.09908" lon="5.02055">
        <ele>260.82998657227</ele>
        <time>2009-07-11T11:56:10Z</time>
      </trkpt>
      <trkpt lat="45.09893" lon="5.021">
        <ele>263.0539855957</ele>
        <time>2009-07-11T11:56:15Z</time>
      </trkpt>
      <trkpt lat="45.0988" lon="5.02137">
        <ele>264.44299316406</ele>
        <time>2009-07-11T11:56:19Z</time>
      </trkpt>
      <trkpt lat="45.09867" lon="5.02174">
        <ele>265.93399047852</ele>
        <time>2009-07-11T11:56:23Z</time>
      </trkpt>
      <trkpt lat="45.09861" lon="5.02192">
        <ele>266.64700317383</ele>
        <time>2009-07-11T11:56:25Z</time>
      </trkpt>
      <trkpt lat="45.09849" lon="5.02226">
        <ele>268.98300170898</ele>
        <time>2009-07-11T11:56:29Z</time>
      </trkpt>
      <trkpt lat="45.09844" lon="5.02251">
        <ele>269.5419921875</ele>
        <time>2009-07-11T11:56:32Z</time>
      </trkpt>
      <trkpt lat="45.09843" lon="5.02291">
        <ele>270.46701049805</ele>
        <time>2009-07-11T11:56:36Z</time>
      </trkpt>
      <trkpt lat="45.09848" lon="5.02321">
        <ele>272.09399414062</ele>
        <time>2009-07-11T11:56:39Z</time>
      </trkpt>
      <trkpt lat="45.0987" lon="5.02398">
        <ele>275.31100463867</ele>
        <time>2009-07-11T11:56:48Z</time>
      </trkpt>
      <trkpt lat="45.09879" lon="5.02422">
        <ele>275.0119934082</ele>
        <time>2009-07-11T11:56:51Z</time>
      </trkpt>
      <trkpt lat="45.09903" lon="5.02466">
        <ele>272.38000488281</ele>
        <time>2009-07-11T11:56:56Z</time>
      </trkpt>
      <trkpt lat="45.09911" lon="5.02487">
        <ele>271.31799316406</ele>
        <time>2009-07-11T11:56:58Z</time>
      </trkpt>
      <trkpt lat="45.09921" lon="5.02509">
        <ele>269.79098510742</ele>
        <time>2009-07-11T11:57:00Z</time>
      </trkpt>
      <trkpt lat="45.09978" lon="5.02578">
        <ele>264.72900390625</ele>
        <time>2009-07-11T11:57:07Z</time>
      </trkpt>
      <trkpt lat="45.10001" lon="5.0263">
        <ele>261.9289855957</ele>
        <time>2009-07-11T11:57:11Z</time>
      </trkpt>
      <trkpt lat="45.1004" lon="5.0271">
        <ele>257.02600097656</ele>
        <time>2009-07-11T11:57:18Z</time>
      </trkpt>
      <trkpt lat="45.10061" lon="5.02745">
        <ele>254.58500671387</ele>
        <time>2009-07-11T11:57:21Z</time>
      </trkpt>
      <trkpt lat="45.10063" lon="5.02801">
        <ele>252.82499694824</ele>
        <time>2009-07-11T11:57:25Z</time>
      </trkpt>
      <trkpt lat="45.10049" lon="5.02828">
        <ele>251.84800720215</ele>
        <time>2009-07-11T11:57:28Z</time>
      </trkpt>
      <trkpt lat="45.10041" lon="5.02854">
        <ele>250.99200439453</ele>
        <time>2009-07-11T11:57:32Z</time>
      </trkpt>
      <trkpt lat="45.10044" lon="5.02866">
        <ele>250.94299316406</ele>
        <time>2009-07-11T11:57:34Z</time>
      </trkpt>
      <trkpt lat="45.10041" lon="5.02899">
        <ele>249.31799316406</ele>
        <time>2009-07-11T11:57:39Z</time>
      </trkpt>
      <trkpt lat="45.10033" lon="5.02927">
        <ele>247.58500671387</ele>
        <time>2009-07-11T11:57:43Z</time>
      </trkpt>
      <trkpt lat="45.10023" lon="5.02962">
        <ele>245.97300720215</ele>
        <time>2009-07-11T11:57:48Z</time>
      </trkpt>
      <trkpt lat="45.10015" lon="5.0299">
        <ele>244.46600341797</ele>
        <time>2009-07-11T11:57:52Z</time>
      </trkpt>
      <trkpt lat="45.10002" lon="5.03035">
        <ele>242.82400512695</ele>
        <time>2009-07-11T11:57:58Z</time>
      </trkpt>
      <trkpt lat="45.09979" lon="5.03116">
        <ele>241.54299926758</ele>
        <time>2009-07-11T11:58:08Z</time>
      </trkpt>
      <trkpt lat="45.09943" lon="5.03242">
        <ele>237.28700256348</ele>
        <time>2009-07-11T11:58:22Z</time>
      </trkpt>
      <trkpt lat="45.09928" lon="5.03296">
        <ele>234.85699462891</ele>
        <time>2009-07-11T11:58:27Z</time>
      </trkpt>
      <trkpt lat="45.09904" lon="5.03383">
        <ele>231.76100158691</ele>
        <time>2009-07-11T11:58:34Z</time>
      </trkpt>
      <trkpt lat="45.09901" lon="5.03396">
        <ele>232.05200195312</ele>
        <time>2009-07-11T11:58:35Z</time>
      </trkpt>
      <trkpt lat="45.09869" lon="5.03465">
        <ele>231.47300720215</ele>
        <time>2009-07-11T11:58:41Z</time>
      </trkpt>
      <trkpt lat="45.09827" lon="5.03526">
        <ele>232.6190032959</ele>
        <time>2009-07-11T11:58:48Z</time>
      </trkpt>
      <trkpt lat="45.09791" lon="5.03592">
        <ele>233.3390045166</ele>
        <time>2009-07-11T11:58:56Z</time>
      </trkpt>
      <trkpt lat="45.09785" lon="5.03658">
        <ele>233.00500488281</ele>
        <time>2009-07-11T11:59:03Z</time>
      </trkpt>
      <trkpt lat="45.09823" lon="5.0383">
        <ele>229.03999328613</ele>
        <time>2009-07-11T11:59:19Z</time>
      </trkpt>
      <trkpt lat="45.09842" lon="5.03879">
        <ele>230.1309967041</ele>
        <time>2009-07-11T11:59:24Z</time>
      </trkpt>
      <trkpt lat="45.09881" lon="5.03983">
        <ele>228.82299804688</ele>
        <time>2009-07-11T11:59:35Z</time>
      </trkpt>
      <trkpt lat="45.09881" lon="5.04052">
        <ele>228.31199645996</ele>
        <time>2009-07-11T11:59:42Z</time>
      </trkpt>
      <trkpt lat="45.09865" lon="5.04119">
        <ele>228.62600708008</ele>
        <time>2009-07-11T11:59:49Z</time>
      </trkpt>
      <trkpt lat="45.09845" lon="5.0416">
        <ele>228.90899658203</ele>
        <time>2009-07-11T11:59:54Z</time>
      </trkpt>
      <trkpt lat="45.09806" lon="5.04202">
        <ele>229.56399536133</ele>
        <time>2009-07-11T12:00:01Z</time>
      </trkpt>
      <trkpt lat="45.09684" lon="5.04324">
        <ele>232.04600524902</ele>
        <time>2009-07-11T12:00:22Z</time>
      </trkpt>
      <trkpt lat="45.09637" lon="5.0442">
        <ele>231.89100646973</ele>
        <time>2009-07-11T12:00:35Z</time>
      </trkpt>
      <trkpt lat="45.0962" lon="5.04474">
        <ele>230.20199584961</ele>
        <time>2009-07-11T12:00:41Z</time>
      </trkpt>
      <trkpt lat="45.09615" lon="5.04492">
        <ele>229.19400024414</ele>
        <time>2009-07-11T12:00:43Z</time>
      </trkpt>
      <trkpt lat="45.09612" lon="5.04511">
        <ele>229.33999633789</ele>
        <time>2009-07-11T12:00:45Z</time>
      </trkpt>
      <trkpt lat="45.09589" lon="5.04561">
        <ele>227.79100036621</ele>
        <time>2009-07-11T12:00:51Z</time>
      </trkpt>
      <trkpt lat="45.09575" lon="5.04588">
        <ele>227.17599487305</ele>
        <time>2009-07-11T12:00:54Z</time>
      </trkpt>
      <trkpt lat="45.09549" lon="5.04612">
        <ele>225.72900390625</ele>
        <time>2009-07-11T12:00:58Z</time>
      </trkpt>
      <trkpt lat="45.0952" lon="5.04628">
        <ele>225.94200134277</ele>
        <time>2009-07-11T12:01:02Z</time>
      </trkpt>
      <trkpt lat="45.09498" lon="5.04639">
        <ele>225.16400146484</ele>
        <time>2009-07-11T12:01:05Z</time>
      </trkpt>
      <trkpt lat="45.09412" lon="5.04674">
        <ele>223.42500305176</ele>
        <time>2009-07-11T12:01:17Z</time>
      </trkpt>
      <trkpt lat="45.09338" lon="5.04724">
        <ele>220.96200561523</ele>
        <time>2009-07-11T12:01:28Z</time>
      </trkpt>
      <trkpt lat="45.09307" lon="5.04753">
        <ele>219.90100097656</ele>
        <time>2009-07-11T12:01:33Z</time>
      </trkpt>
      <trkpt lat="45.09303" lon="5.04798">
        <ele>219.68800354004</ele>
        <time>2009-07-11T12:01:38Z</time>
      </trkpt>
      <trkpt lat="45.09298" lon="5.04861">
        <ele>220.15199279785</ele>
        <time>2009-07-11T12:01:45Z</time>
      </trkpt>
      <trkpt lat="45.09296" lon="5.04879">
        <ele>220.82499694824</ele>
        <time>2009-07-11T12:01:47Z</time>
      </trkpt>
      <trkpt lat="45.09286" lon="5.04909">
        <ele>221.64799499512</ele>
        <time>2009-07-11T12:01:51Z</time>
      </trkpt>
      <trkpt lat="45.09275" lon="5.04927">
        <ele>222.13900756836</ele>
        <time>2009-07-11T12:01:54Z</time>
      </trkpt>
      <trkpt lat="45.09249" lon="5.04964">
        <ele>223.34899902344</ele>
        <time>2009-07-11T12:02:01Z</time>
      </trkpt>
      <trkpt lat="45.09236" lon="5.05029">
        <ele>224.16299438477</ele>
        <time>2009-07-11T12:02:10Z</time>
      </trkpt>
      <trkpt lat="45.09251" lon="5.05083">
        <ele>225.7140045166</ele>
        <time>2009-07-11T12:02:17Z</time>
      </trkpt>
      <trkpt lat="45.09272" lon="5.05131">
        <ele>226.31199645996</ele>
        <time>2009-07-11T12:02:24Z</time>
      </trkpt>
      <trkpt lat="45.09291" lon="5.05166">
        <ele>226.53900146484</ele>
        <time>2009-07-11T12:02:29Z</time>
      </trkpt>
      <trkpt lat="45.09326" lon="5.05226">
        <ele>225.86500549316</ele>
        <time>2009-07-11T12:02:37Z</time>
      </trkpt>
      <trkpt lat="45.09395" lon="5.05352">
        <ele>226.06100463867</ele>
        <time>2009-07-11T12:02:53Z</time>
      </trkpt>
      <trkpt lat="45.09425" lon="5.05485">
        <ele>227.17700195312</ele>
        <time>2009-07-11T12:03:08Z</time>
      </trkpt>
      <trkpt lat="45.09429" lon="5.05663">
        <ele>226.67500305176</ele>
        <time>2009-07-11T12:03:27Z</time>
      </trkpt>
      <trkpt lat="45.09415" lon="5.05758">
        <ele>225.74600219727</ele>
        <time>2009-07-11T12:03:36Z</time>
      </trkpt>
      <trkpt lat="45.09402" lon="5.05807">
        <ele>225.52499389648</ele>
        <time>2009-07-11T12:03:41Z</time>
      </trkpt>
      <trkpt lat="45.09392" lon="5.05845">
        <ele>225.0119934082</ele>
        <time>2009-07-11T12:03:45Z</time>
      </trkpt>
      <trkpt lat="45.09369" lon="5.06011">
        <ele>225.0359954834</ele>
        <time>2009-07-11T12:04:02Z</time>
      </trkpt>
      <trkpt lat="45.09365" lon="5.0618">
        <ele>226.0119934082</ele>
        <time>2009-07-11T12:04:20Z</time>
      </trkpt>
      <trkpt lat="45.0937" lon="5.0634">
        <ele>228.53999328613</ele>
        <time>2009-07-11T12:04:38Z</time>
      </trkpt>
      <trkpt lat="45.0938" lon="5.06518">
        <ele>229.63299560547</ele>
        <time>2009-07-11T12:04:57Z</time>
      </trkpt>
      <trkpt lat="45.09372" lon="5.06672">
        <ele>230.62800598144</ele>
        <time>2009-07-11T12:05:13Z</time>
      </trkpt>
      <trkpt lat="45.0937" lon="5.06845">
        <ele>231.72399902344</ele>
        <time>2009-07-11T12:05:31Z</time>
      </trkpt>
      <trkpt lat="45.0938" lon="5.06998">
        <ele>234.21200561523</ele>
        <time>2009-07-11T12:05:48Z</time>
      </trkpt>
      <trkpt lat="45.09388" lon="5.07146">
        <ele>236.98599243164</ele>
        <time>2009-07-11T12:06:05Z</time>
      </trkpt>
      <trkpt lat="45.09387" lon="5.07154">
        <ele>237.06199645996</ele>
        <time>2009-07-11T12:06:06Z</time>
      </trkpt>
      <trkpt lat="45.09365" lon="5.072">
        <ele>237.96099853516</ele>
        <time>2009-07-11T12:06:13Z</time>
      </trkpt>
      <trkpt lat="45.09353" lon="5.07207">
        <ele>237.99800109863</ele>
        <time>2009-07-11T12:06:15Z</time>
      </trkpt>
      <trkpt lat="45.0933" lon="5.07232">
        <ele>237.57699584961</ele>
        <time>2009-07-11T12:06:19Z</time>
      </trkpt>
      <trkpt lat="45.09255" lon="5.07384">
        <ele>237.89599609375</ele>
        <time>2009-07-11T12:06:36Z</time>
      </trkpt>
      <trkpt lat="45.09219" lon="5.07459">
        <ele>238.77299499512</ele>
        <time>2009-07-11T12:06:45Z</time>
      </trkpt>
      <trkpt lat="45.0913" lon="5.07647">
        <ele>242.92599487305</ele>
        <time>2009-07-11T12:07:09Z</time>
      </trkpt>
      <trkpt lat="45.09051" lon="5.07733">
        <ele>245.19799804688</ele>
        <time>2009-07-11T12:07:25Z</time>
      </trkpt>
      <trkpt lat="45.08959" lon="5.07804">
        <ele>243.07800292969</ele>
        <time>2009-07-11T12:07:40Z</time>
      </trkpt>
      <trkpt lat="45.08897" lon="5.07841">
        <ele>241.24600219727</ele>
        <time>2009-07-11T12:07:48Z</time>
      </trkpt>
      <trkpt lat="45.08889" lon="5.07846">
        <ele>240.54899597168</ele>
        <time>2009-07-11T12:07:49Z</time>
      </trkpt>
      <trkpt lat="45.08854" lon="5.07891">
        <ele>238.17799377441</ele>
        <time>2009-07-11T12:07:54Z</time>
      </trkpt>
      <trkpt lat="45.08836" lon="5.07943">
        <ele>236.1190032959</ele>
        <time>2009-07-11T12:07:58Z</time>
      </trkpt>
      <trkpt lat="45.08822" lon="5.08015">
        <ele>234.03300476074</ele>
        <time>2009-07-11T12:08:03Z</time>
      </trkpt>
      <trkpt lat="45.08814" lon="5.08059">
        <ele>233.01300048828</ele>
        <time>2009-07-11T12:08:06Z</time>
      </trkpt>
      <trkpt lat="45.08811" lon="5.08073">
        <ele>231.40800476074</ele>
        <time>2009-07-11T12:08:07Z</time>
      </trkpt>
      <trkpt lat="45.08808" lon="5.08087">
        <ele>231.48599243164</ele>
        <time>2009-07-11T12:08:08Z</time>
      </trkpt>
      <trkpt lat="45.08772" lon="5.08314">
        <ele>224.99600219727</ele>
        <time>2009-07-11T12:08:24Z</time>
      </trkpt>
      <trkpt lat="45.08766" lon="5.08356">
        <ele>223.36199951172</ele>
        <time>2009-07-11T12:08:27Z</time>
      </trkpt>
      <trkpt lat="45.0876" lon="5.08398">
        <ele>221.98899841309</ele>
        <time>2009-07-11T12:08:30Z</time>
      </trkpt>
      <trkpt lat="45.08752" lon="5.08467">
        <ele>219.53199768066</ele>
        <time>2009-07-11T12:08:35Z</time>
      </trkpt>
      <trkpt lat="45.08747" lon="5.08505">
        <ele>217.63200378418</ele>
        <time>2009-07-11T12:08:38Z</time>
      </trkpt>
      <trkpt lat="45.08741" lon="5.08553">
        <ele>217.05900573731</ele>
        <time>2009-07-11T12:08:42Z</time>
      </trkpt>
      <trkpt lat="45.0873" lon="5.08643">
        <ele>214.89799499512</ele>
        <time>2009-07-11T12:08:50Z</time>
      </trkpt>
      <trkpt lat="45.08718" lon="5.08702">
        <ele>214.23199462891</ele>
        <time>2009-07-11T12:08:55Z</time>
      </trkpt>
      <trkpt lat="45.08663" lon="5.08898">
        <ele>212.16000366211</ele>
        <time>2009-07-11T12:09:12Z</time>
      </trkpt>
      <trkpt lat="45.08633" lon="5.0896">
        <ele>211.20799255371</ele>
        <time>2009-07-11T12:09:18Z</time>
      </trkpt>
      <trkpt lat="45.08598" lon="5.09034">
        <ele>210.17399597168</ele>
        <time>2009-07-11T12:09:25Z</time>
      </trkpt>
      <trkpt lat="45.08567" lon="5.09151">
        <ele>208.97599792481</ele>
        <time>2009-07-11T12:09:35Z</time>
      </trkpt>
      <trkpt lat="45.08534" lon="5.09239">
        <ele>207.71499633789</ele>
        <time>2009-07-11T12:09:43Z</time>
      </trkpt>
      <trkpt lat="45.08475" lon="5.09345">
        <ele>206.83000183106</ele>
        <time>2009-07-11T12:09:54Z</time>
      </trkpt>
      <trkpt lat="45.08463" lon="5.09416">
        <ele>206.33999633789</ele>
        <time>2009-07-11T12:10:00Z</time>
      </trkpt>
      <trkpt lat="45.08452" lon="5.09555">
        <ele>206.71099853516</ele>
        <time>2009-07-11T12:10:13Z</time>
      </trkpt>
      <trkpt lat="45.08464" lon="5.09606">
        <ele>206.57099914551</ele>
        <time>2009-07-11T12:10:18Z</time>
      </trkpt>
      <trkpt lat="45.08511" lon="5.09716">
        <ele>206.54499816894</ele>
        <time>2009-07-11T12:10:30Z</time>
      </trkpt>
      <trkpt lat="45.08538" lon="5.0979">
        <ele>208.05200195312</ele>
        <time>2009-07-11T12:10:39Z</time>
      </trkpt>
      <trkpt lat="45.08551" lon="5.09833">
        <ele>208.18400573731</ele>
        <time>2009-07-11T12:10:44Z</time>
      </trkpt>
      <trkpt lat="45.08566" lon="5.09888">
        <ele>208.02099609375</ele>
        <time>2009-07-11T12:10:50Z</time>
      </trkpt>
      <trkpt lat="45.0861" lon="5.10057">
        <ele>210.07600402832</ele>
        <time>2009-07-11T12:11:08Z</time>
      </trkpt>
      <trkpt lat="45.08639" lon="5.10189">
        <ele>210.2559967041</ele>
        <time>2009-07-11T12:11:22Z</time>
      </trkpt>
      <trkpt lat="45.08677" lon="5.10342">
        <ele>208.67700195312</ele>
        <time>2009-07-11T12:11:37Z</time>
      </trkpt>
      <trkpt lat="45.08729" lon="5.10533">
        <ele>207.71299743652</ele>
        <time>2009-07-11T12:11:57Z</time>
      </trkpt>
      <trkpt lat="45.08771" lon="5.10722">
        <ele>206.98699951172</ele>
        <time>2009-07-11T12:12:16Z</time>
      </trkpt>
      <trkpt lat="45.08779" lon="5.10922">
        <ele>207.53199768066</ele>
        <time>2009-07-11T12:12:35Z</time>
      </trkpt>
      <trkpt lat="45.08797" lon="5.11053">
        <ele>207.66299438477</ele>
        <time>2009-07-11T12:12:48Z</time>
      </trkpt>
      <trkpt lat="45.0881" lon="5.11122">
        <ele>207.21299743652</ele>
        <time>2009-07-11T12:12:55Z</time>
      </trkpt>
      <trkpt lat="45.08821" lon="5.11184">
        <ele>207.6549987793</ele>
        <time>2009-07-11T12:13:01Z</time>
      </trkpt>
      <trkpt lat="45.08829" lon="5.11268">
        <ele>207.27699279785</ele>
        <time>2009-07-11T12:13:09Z</time>
      </trkpt>
      <trkpt lat="45.0884" lon="5.11399">
        <ele>208.58700561523</ele>
        <time>2009-07-11T12:13:21Z</time>
      </trkpt>
      <trkpt lat="45.08858" lon="5.11602">
        <ele>210.62300109863</ele>
        <time>2009-07-11T12:13:39Z</time>
      </trkpt>
      <trkpt lat="45.08876" lon="5.11871">
        <ele>210.59399414062</ele>
        <time>2009-07-11T12:14:03Z</time>
      </trkpt>
      <trkpt lat="45.08892" lon="5.12111">
        <ele>212.27400207519</ele>
        <time>2009-07-11T12:14:26Z</time>
      </trkpt>
      <trkpt lat="45.08901" lon="5.12271">
        <ele>213.23100280762</ele>
        <time>2009-07-11T12:14:41Z</time>
      </trkpt>
      <trkpt lat="45.08907" lon="5.12413">
        <ele>217.0359954834</ele>
        <time>2009-07-11T12:14:56Z</time>
      </trkpt>
      <trkpt lat="45.08897" lon="5.12542">
        <ele>218.83999633789</ele>
        <time>2009-07-11T12:15:10Z</time>
      </trkpt>
      <trkpt lat="45.08847" lon="5.12694">
        <ele>217.22900390625</ele>
        <time>2009-07-11T12:15:27Z</time>
      </trkpt>
      <trkpt lat="45.08827" lon="5.12762">
        <ele>216.46499633789</ele>
        <time>2009-07-11T12:15:34Z</time>
      </trkpt>
      <trkpt lat="45.08809" lon="5.12842">
        <ele>216.52099609375</ele>
        <time>2009-07-11T12:15:42Z</time>
      </trkpt>
      <trkpt lat="45.088" lon="5.12896">
        <ele>215.13900756836</ele>
        <time>2009-07-11T12:15:47Z</time>
      </trkpt>
      <trkpt lat="45.08792" lon="5.12948">
        <ele>213.72500610352</ele>
        <time>2009-07-11T12:15:52Z</time>
      </trkpt>
      <trkpt lat="45.08789" lon="5.1298">
        <ele>213.49099731445</ele>
        <time>2009-07-11T12:15:55Z</time>
      </trkpt>
      <trkpt lat="45.08791" lon="5.13021">
        <ele>212.93499755859</ele>
        <time>2009-07-11T12:15:59Z</time>
      </trkpt>
      <trkpt lat="45.08791" lon="5.1305">
        <ele>213.30299377441</ele>
        <time>2009-07-11T12:16:02Z</time>
      </trkpt>
      <trkpt lat="45.08785" lon="5.13084">
        <ele>213.6190032959</ele>
        <time>2009-07-11T12:16:06Z</time>
      </trkpt>
      <trkpt lat="45.08783" lon="5.13101">
        <ele>213.02799987793</ele>
        <time>2009-07-11T12:16:08Z</time>
      </trkpt>
      <trkpt lat="45.08771" lon="5.13145">
        <ele>212.81199645996</ele>
        <time>2009-07-11T12:16:14Z</time>
      </trkpt>
      <trkpt lat="45.0876" lon="5.13165">
        <ele>214.48699951172</ele>
        <time>2009-07-11T12:16:18Z</time>
      </trkpt>
      <trkpt lat="45.08744" lon="5.13195">
        <ele>213.83299255371</ele>
        <time>2009-07-11T12:16:23Z</time>
      </trkpt>
      <trkpt lat="45.08728" lon="5.13231">
        <ele>214.22599792481</ele>
        <time>2009-07-11T12:16:28Z</time>
      </trkpt>
      <trkpt lat="45.08662" lon="5.1339">
        <ele>214.1549987793</ele>
        <time>2009-07-11T12:16:47Z</time>
      </trkpt>
      <trkpt lat="45.08626" lon="5.13476">
        <ele>213.78900146484</ele>
        <time>2009-07-11T12:16:57Z</time>
      </trkpt>
      <trkpt lat="45.08568" lon="5.136">
        <ele>213.57299804688</ele>
        <time>2009-07-11T12:17:11Z</time>
      </trkpt>
      <trkpt lat="45.08467" lon="5.13737">
        <ele>213.82899475098</ele>
        <time>2009-07-11T12:17:29Z</time>
      </trkpt>
      <trkpt lat="45.08352" lon="5.139">
        <ele>213.94500732422</ele>
        <time>2009-07-11T12:17:50Z</time>
      </trkpt>
      <trkpt lat="45.08305" lon="5.14045">
        <ele>212.77900695801</ele>
        <time>2009-07-11T12:18:04Z</time>
      </trkpt>
      <trkpt lat="45.08257" lon="5.1421">
        <ele>215.21600341797</ele>
        <time>2009-07-11T12:18:22Z</time>
      </trkpt>
      <trkpt lat="45.0821" lon="5.14357">
        <ele>216.33500671387</ele>
        <time>2009-07-11T12:18:39Z</time>
      </trkpt>
      <trkpt lat="45.0816" lon="5.1452">
        <ele>217.70300292969</ele>
        <time>2009-07-11T12:18:58Z</time>
      </trkpt>
      <trkpt lat="45.08152" lon="5.14547">
        <ele>216.04800415039</ele>
        <time>2009-07-11T12:19:01Z</time>
      </trkpt>
      <trkpt lat="45.08117" lon="5.1465">
        <ele>213.20700073242</ele>
        <time>2009-07-11T12:19:11Z</time>
      </trkpt>
      <trkpt lat="45.0805" lon="5.14835">
        <ele>212.56700134277</ele>
        <time>2009-07-11T12:19:28Z</time>
      </trkpt>
      <trkpt lat="45.0801" lon="5.15003">
        <ele>215.07400512695</ele>
        <time>2009-07-11T12:19:43Z</time>
      </trkpt>
      <trkpt lat="45.07997" lon="5.15056">
        <ele>215.78900146484</ele>
        <time>2009-07-11T12:19:48Z</time>
      </trkpt>
      <trkpt lat="45.07992" lon="5.15077">
        <ele>216.18200683594</ele>
        <time>2009-07-11T12:19:50Z</time>
      </trkpt>
      <trkpt lat="45.07979" lon="5.15159">
        <ele>214.98100280762</ele>
        <time>2009-07-11T12:19:57Z</time>
      </trkpt>
      <trkpt lat="45.07949" lon="5.15343">
        <ele>214.85600280762</ele>
        <time>2009-07-11T12:20:12Z</time>
      </trkpt>
      <trkpt lat="45.07912" lon="5.15491">
        <ele>215.43099975586</ele>
        <time>2009-07-11T12:20:25Z</time>
      </trkpt>
      <trkpt lat="45.07859" lon="5.15759">
        <ele>211.66999816894</ele>
        <time>2009-07-11T12:20:46Z</time>
      </trkpt>
      <trkpt lat="45.07821" lon="5.15911">
        <ele>210.83000183106</ele>
        <time>2009-07-11T12:20:58Z</time>
      </trkpt>
      <trkpt lat="45.07795" lon="5.16005">
        <ele>210.35299682617</ele>
        <time>2009-07-11T12:21:06Z</time>
      </trkpt>
      <trkpt lat="45.07784" lon="5.16054">
        <ele>208.12399291992</ele>
        <time>2009-07-11T12:21:10Z</time>
      </trkpt>
      <trkpt lat="45.07738" lon="5.16147">
        <ele>202.97399902344</ele>
        <time>2009-07-11T12:21:18Z</time>
      </trkpt>
      <trkpt lat="45.07727" lon="5.16165">
        <ele>203.27499389648</ele>
        <time>2009-07-11T12:21:20Z</time>
      </trkpt>
      <trkpt lat="45.07722" lon="5.16174">
        <ele>203.29400634766</ele>
        <time>2009-07-11T12:21:21Z</time>
      </trkpt>
      <trkpt lat="45.0771" lon="5.16193">
        <ele>202.89799499512</ele>
        <time>2009-07-11T12:21:24Z</time>
      </trkpt>
      <trkpt lat="45.07674" lon="5.1625">
        <ele>201.97099304199</ele>
        <time>2009-07-11T12:21:38Z</time>
      </trkpt>
      <trkpt lat="45.07662" lon="5.1626">
        <ele>202.21600341797</ele>
        <time>2009-07-11T12:21:46Z</time>
      </trkpt>
      <trkpt lat="45.07664" lon="5.16283">
        <ele>201.57699584961</ele>
        <time>2009-07-11T12:21:51Z</time>
      </trkpt>
      <trkpt lat="45.07676" lon="5.16333">
        <ele>201.48500061035</ele>
        <time>2009-07-11T12:21:58Z</time>
      </trkpt>
      <trkpt lat="45.07701" lon="5.16442">
        <ele>201.5359954834</ele>
        <time>2009-07-11T12:22:12Z</time>
      </trkpt>
      <trkpt lat="45.07714" lon="5.16503">
        <ele>201.71600341797</ele>
        <time>2009-07-11T12:22:18Z</time>
      </trkpt>
      <trkpt lat="45.07734" lon="5.1659">
        <ele>200.54899597168</ele>
        <time>2009-07-11T12:22:26Z</time>
      </trkpt>
      <trkpt lat="45.07758" lon="5.16695">
        <ele>199.70500183106</ele>
        <time>2009-07-11T12:22:35Z</time>
      </trkpt>
      <trkpt lat="45.07787" lon="5.16824">
        <ele>198.74899291992</ele>
        <time>2009-07-11T12:22:46Z</time>
      </trkpt>
      <trkpt lat="45.07839" lon="5.17004">
        <ele>197.33799743652</ele>
        <time>2009-07-11T12:23:02Z</time>
      </trkpt>
      <trkpt lat="45.07889" lon="5.17116">
        <ele>196.69099426269</ele>
        <time>2009-07-11T12:23:13Z</time>
      </trkpt>
      <trkpt lat="45.07953" lon="5.1723">
        <ele>194.42799377441</ele>
        <time>2009-07-11T12:23:24Z</time>
      </trkpt>
      <trkpt lat="45.08054" lon="5.17377">
        <ele>186.47399902344</ele>
        <time>2009-07-11T12:23:37Z</time>
      </trkpt>
      <trkpt lat="45.08196" lon="5.17607">
        <ele>182.54899597168</ele>
        <time>2009-07-11T12:23:56Z</time>
      </trkpt>
      <trkpt lat="45.08228" lon="5.17653">
        <ele>181.2200012207</ele>
        <time>2009-07-11T12:24:00Z</time>
      </trkpt>
      <trkpt lat="45.08355" lon="5.17816">
        <ele>180.26100158691</ele>
        <time>2009-07-11T12:24:15Z</time>
      </trkpt>
      <trkpt lat="45.08387" lon="5.17862">
        <ele>178.83999633789</ele>
        <time>2009-07-11T12:24:19Z</time>
      </trkpt>
      <trkpt lat="45.08429" lon="5.1794">
        <ele>176.82600402832</ele>
        <time>2009-07-11T12:24:25Z</time>
      </trkpt>
      <trkpt lat="45.08511" lon="5.18139">
        <ele>172.84100341797</ele>
        <time>2009-07-11T12:24:39Z</time>
      </trkpt>
      <trkpt lat="45.08554" lon="5.18272">
        <ele>169.63800048828</ele>
        <time>2009-07-11T12:24:48Z</time>
      </trkpt>
      <trkpt lat="45.08562" lon="5.18302">
        <ele>169.27699279785</ele>
        <time>2009-07-11T12:24:50Z</time>
      </trkpt>
      <trkpt lat="45.0857" lon="5.18435">
        <ele>165.48699951172</ele>
        <time>2009-07-11T12:24:58Z</time>
      </trkpt>
      <trkpt lat="45.0857" lon="5.18485">
        <ele>164.25999450684</ele>
        <time>2009-07-11T12:25:01Z</time>
      </trkpt>
      <trkpt lat="45.08572" lon="5.18689">
        <ele>165.14199829102</ele>
        <time>2009-07-11T12:25:14Z</time>
      </trkpt>
      <trkpt lat="45.0857" lon="5.18745">
        <ele>165.125</ele>
        <time>2009-07-11T12:25:18Z</time>
      </trkpt>
      <trkpt lat="45.08548" lon="5.18823">
        <ele>165.80299377441</ele>
        <time>2009-07-11T12:25:25Z</time>
      </trkpt>
      <trkpt lat="45.0856" lon="5.18887">
        <ele>165.62600708008</ele>
        <time>2009-07-11T12:25:31Z</time>
      </trkpt>
      <trkpt lat="45.0854" lon="5.19132">
        <ele>167.31399536133</ele>
        <time>2009-07-11T12:25:50Z</time>
      </trkpt>
      <trkpt lat="45.08517" lon="5.1943">
        <ele>168.54100036621</ele>
        <time>2009-07-11T12:26:12Z</time>
      </trkpt>
      <trkpt lat="45.08507" lon="5.196">
        <ele>172.70399475098</ele>
        <time>2009-07-11T12:26:25Z</time>
      </trkpt>
      <trkpt lat="45.08503" lon="5.19809">
        <ele>173.81900024414</ele>
        <time>2009-07-11T12:26:40Z</time>
      </trkpt>
      <trkpt lat="45.08503" lon="5.20029">
        <ele>175.3450012207</ele>
        <time>2009-07-11T12:26:56Z</time>
      </trkpt>
      <trkpt lat="45.08506" lon="5.20219">
        <ele>175.78900146484</ele>
        <time>2009-07-11T12:27:12Z</time>
      </trkpt>
      <trkpt lat="45.08511" lon="5.2046">
        <ele>177.00199890137</ele>
        <time>2009-07-11T12:27:32Z</time>
      </trkpt>
      <trkpt lat="45.08514" lon="5.20719">
        <ele>177.15100097656</ele>
        <time>2009-07-11T12:27:52Z</time>
      </trkpt>
      <trkpt lat="45.08519" lon="5.20935">
        <ele>176.82600402832</ele>
        <time>2009-07-11T12:28:09Z</time>
      </trkpt>
      <trkpt lat="45.08498" lon="5.21085">
        <ele>181.10499572754</ele>
        <time>2009-07-11T12:28:22Z</time>
      </trkpt>
      <trkpt lat="45.08478" lon="5.21147">
        <ele>182.74099731445</ele>
        <time>2009-07-11T12:28:28Z</time>
      </trkpt>
      <trkpt lat="45.08471" lon="5.21196">
        <ele>185.08299255371</ele>
        <time>2009-07-11T12:28:33Z</time>
      </trkpt>
      <trkpt lat="45.08437" lon="5.21283">
        <ele>186.11399841309</ele>
        <time>2009-07-11T12:28:43Z</time>
      </trkpt>
      <trkpt lat="45.08429" lon="5.21318">
        <ele>188.55900573731</ele>
        <time>2009-07-11T12:28:47Z</time>
      </trkpt>
      <trkpt lat="45.08397" lon="5.21415">
        <ele>190.57099914551</ele>
        <time>2009-07-11T12:28:59Z</time>
      </trkpt>
      <trkpt lat="45.08383" lon="5.21448">
        <ele>190.93800354004</ele>
        <time>2009-07-11T12:29:03Z</time>
      </trkpt>
      <trkpt lat="45.0838" lon="5.21484">
        <ele>191.35099792481</ele>
        <time>2009-07-11T12:29:07Z</time>
      </trkpt>
      <trkpt lat="45.08376" lon="5.21531">
        <ele>192.37600708008</ele>
        <time>2009-07-11T12:29:13Z</time>
      </trkpt>
      <trkpt lat="45.08368" lon="5.21543">
        <ele>192.3809967041</ele>
        <time>2009-07-11T12:29:15Z</time>
      </trkpt>
      <trkpt lat="45.08364" lon="5.2161">
        <ele>192.87199401856</ele>
        <time>2009-07-11T12:29:24Z</time>
      </trkpt>
      <trkpt lat="45.08376" lon="5.2162">
        <ele>192.93699645996</ele>
        <time>2009-07-11T12:29:27Z</time>
      </trkpt>
      <trkpt lat="45.0839" lon="5.21626">
        <ele>193.34700012207</ele>
        <time>2009-07-11T12:29:30Z</time>
      </trkpt>
      <trkpt lat="45.08405" lon="5.21643">
        <ele>194.66499328613</ele>
        <time>2009-07-11T12:29:34Z</time>
      </trkpt>
      <trkpt lat="45.08429" lon="5.2173">
        <ele>201.02699279785</ele>
        <time>2009-07-11T12:29:50Z</time>
      </trkpt>
      <trkpt lat="45.08429" lon="5.21754">
        <ele>203.35600280762</ele>
        <time>2009-07-11T12:29:55Z</time>
      </trkpt>
      <trkpt lat="45.08432" lon="5.21773">
        <ele>203.76600646973</ele>
        <time>2009-07-11T12:29:59Z</time>
      </trkpt>
      <trkpt lat="45.08448" lon="5.21797">
        <ele>203.91600036621</ele>
        <time>2009-07-11T12:30:04Z</time>
      </trkpt>
      <trkpt lat="45.08509" lon="5.21847">
        <ele>203.74200439453</ele>
        <time>2009-07-11T12:30:17Z</time>
      </trkpt>
      <trkpt lat="45.08515" lon="5.21875">
        <ele>203.51499938965</ele>
        <time>2009-07-11T12:30:22Z</time>
      </trkpt>
      <trkpt lat="45.08466" lon="5.21999">
        <ele>205.09700012207</ele>
        <time>2009-07-11T12:30:39Z</time>
      </trkpt>
      <trkpt lat="45.08394" lon="5.22128">
        <ele>205.44400024414</ele>
        <time>2009-07-11T12:30:57Z</time>
      </trkpt>
      <trkpt lat="45.08363" lon="5.22194">
        <ele>205.6309967041</ele>
        <time>2009-07-11T12:31:06Z</time>
      </trkpt>
      <trkpt lat="45.08341" lon="5.2226">
        <ele>204.38200378418</ele>
        <time>2009-07-11T12:31:14Z</time>
      </trkpt>
      <trkpt lat="45.08332" lon="5.22296">
        <ele>204.99899291992</ele>
        <time>2009-07-11T12:31:18Z</time>
      </trkpt>
      <trkpt lat="45.08317" lon="5.2241">
        <ele>204.57400512695</ele>
        <time>2009-07-11T12:31:30Z</time>
      </trkpt>
      <trkpt lat="45.08286" lon="5.22504">
        <ele>204.71600341797</ele>
        <time>2009-07-11T12:31:40Z</time>
      </trkpt>
      <trkpt lat="45.0825" lon="5.22553">
        <ele>204.03999328613</ele>
        <time>2009-07-11T12:31:47Z</time>
      </trkpt>
      <trkpt lat="45.08168" lon="5.22668">
        <ele>206.35499572754</ele>
        <time>2009-07-11T12:32:05Z</time>
      </trkpt>
      <trkpt lat="45.08133" lon="5.22718">
        <ele>208.8869934082</ele>
        <time>2009-07-11T12:32:14Z</time>
      </trkpt>
      <trkpt lat="45.08121" lon="5.22734">
        <ele>209.91900634766</ele>
        <time>2009-07-11T12:32:17Z</time>
      </trkpt>
      <trkpt lat="45.0811" lon="5.22752">
        <ele>210.5359954834</ele>
        <time>2009-07-11T12:32:20Z</time>
      </trkpt>
      <trkpt lat="45.08087" lon="5.22806">
        <ele>212.05900573731</ele>
        <time>2009-07-11T12:32:28Z</time>
      </trkpt>
      <trkpt lat="45.08044" lon="5.22914">
        <ele>213.05799865723</ele>
        <time>2009-07-11T12:32:43Z</time>
      </trkpt>
      <trkpt lat="45.08027" lon="5.23014">
        <ele>213.61799621582</ele>
        <time>2009-07-11T12:32:55Z</time>
      </trkpt>
      <trkpt lat="45.08022" lon="5.23039">
        <ele>213.73199462891</ele>
        <time>2009-07-11T12:32:58Z</time>
      </trkpt>
      <trkpt lat="45.07976" lon="5.2317">
        <ele>215.91700744629</ele>
        <time>2009-07-11T12:33:15Z</time>
      </trkpt>
      <trkpt lat="45.07955" lon="5.23233">
        <ele>216.27499389648</ele>
        <time>2009-07-11T12:33:23Z</time>
      </trkpt>
      <trkpt lat="45.0795" lon="5.2325">
        <ele>215.87800598144</ele>
        <time>2009-07-11T12:33:25Z</time>
      </trkpt>
      <trkpt lat="45.07915" lon="5.23327">
        <ele>215.54600524902</ele>
        <time>2009-07-11T12:33:35Z</time>
      </trkpt>
      <trkpt lat="45.0787" lon="5.2342">
        <ele>215.61599731445</ele>
        <time>2009-07-11T12:33:47Z</time>
      </trkpt>
      <trkpt lat="45.0783" lon="5.23569">
        <ele>215.98899841309</ele>
        <time>2009-07-11T12:34:04Z</time>
      </trkpt>
      <trkpt lat="45.07789" lon="5.23708">
        <ele>215.59899902344</ele>
        <time>2009-07-11T12:34:19Z</time>
      </trkpt>
      <trkpt lat="45.07732" lon="5.23905">
        <ele>214.89399719238</ele>
        <time>2009-07-11T12:34:40Z</time>
      </trkpt>
      <trkpt lat="45.077" lon="5.24006">
        <ele>214.79400634766</ele>
        <time>2009-07-11T12:34:51Z</time>
      </trkpt>
      <trkpt lat="45.07659" lon="5.24033">
        <ele>214.08799743652</ele>
        <time>2009-07-11T12:34:57Z</time>
      </trkpt>
      <trkpt lat="45.07531" lon="5.24045">
        <ele>212.60600280762</ele>
        <time>2009-07-11T12:35:13Z</time>
      </trkpt>
      <trkpt lat="45.07402" lon="5.24058">
        <ele>211.98100280762</ele>
        <time>2009-07-11T12:35:30Z</time>
      </trkpt>
      <trkpt lat="45.07263" lon="5.24071">
        <ele>209.88499450684</ele>
        <time>2009-07-11T12:35:48Z</time>
      </trkpt>
      <trkpt lat="45.07246" lon="5.24073">
        <ele>208.83799743652</ele>
        <time>2009-07-11T12:35:50Z</time>
      </trkpt>
      <trkpt lat="45.07211" lon="5.24076">
        <ele>206.50999450684</ele>
        <time>2009-07-11T12:35:54Z</time>
      </trkpt>
      <trkpt lat="45.07161" lon="5.24063">
        <ele>203.14300537109</ele>
        <time>2009-07-11T12:35:59Z</time>
      </trkpt>
      <trkpt lat="45.07141" lon="5.24055">
        <ele>203.41000366211</ele>
        <time>2009-07-11T12:36:01Z</time>
      </trkpt>
      <trkpt lat="45.07095" lon="5.24079">
        <ele>203.09300231934</ele>
        <time>2009-07-11T12:36:07Z</time>
      </trkpt>
      <trkpt lat="45.07092" lon="5.2409">
        <ele>202.99499511719</ele>
        <time>2009-07-11T12:36:08Z</time>
      </trkpt>
      <trkpt lat="45.07063" lon="5.24235">
        <ele>204.0950012207</ele>
        <time>2009-07-11T12:36:22Z</time>
      </trkpt>
      <trkpt lat="45.07035" lon="5.24316">
        <ele>204.11099243164</ele>
        <time>2009-07-11T12:36:31Z</time>
      </trkpt>
      <trkpt lat="45.06987" lon="5.24387">
        <ele>203.4940032959</ele>
        <time>2009-07-11T12:36:41Z</time>
      </trkpt>
      <trkpt lat="45.06948" lon="5.24395">
        <ele>202.21800231934</ele>
        <time>2009-07-11T12:36:47Z</time>
      </trkpt>
      <trkpt lat="45.06881" lon="5.24365">
        <ele>198.69799804688</ele>
        <time>2009-07-11T12:36:55Z</time>
      </trkpt>
      <trkpt lat="45.06843" lon="5.24348">
        <ele>197.24299621582</ele>
        <time>2009-07-11T12:36:59Z</time>
      </trkpt>
      <trkpt lat="45.06793" lon="5.24329">
        <ele>194.84100341797</ele>
        <time>2009-07-11T12:37:04Z</time>
      </trkpt>
      <trkpt lat="45.06698" lon="5.24293">
        <ele>192.29800415039</ele>
        <time>2009-07-11T12:37:14Z</time>
      </trkpt>
      <trkpt lat="45.06575" lon="5.24246">
        <ele>191.81500244141</ele>
        <time>2009-07-11T12:37:28Z</time>
      </trkpt>
      <trkpt lat="45.06546" lon="5.24213">
        <ele>193.96200561523</ele>
        <time>2009-07-11T12:37:34Z</time>
      </trkpt>
      <trkpt lat="45.06533" lon="5.24177">
        <ele>195.45300292969</ele>
        <time>2009-07-11T12:37:39Z</time>
      </trkpt>
      <trkpt lat="45.06525" lon="5.24148">
        <ele>196.76899719238</ele>
        <time>2009-07-11T12:37:43Z</time>
      </trkpt>
      <trkpt lat="45.06521" lon="5.24135">
        <ele>197.14199829102</ele>
        <time>2009-07-11T12:37:45Z</time>
      </trkpt>
      <trkpt lat="45.06512" lon="5.24117">
        <ele>198.30799865723</ele>
        <time>2009-07-11T12:37:50Z</time>
      </trkpt>
      <trkpt lat="45.06495" lon="5.24114">
        <ele>198.53100585938</ele>
        <time>2009-07-11T12:37:56Z</time>
      </trkpt>
      <trkpt lat="45.06449" lon="5.24142">
        <ele>199.63900756836</ele>
        <time>2009-07-11T12:38:06Z</time>
      </trkpt>
      <trkpt lat="45.06349" lon="5.24208">
        <ele>200.59300231934</ele>
        <time>2009-07-11T12:38:24Z</time>
      </trkpt>
      <trkpt lat="45.06298" lon="5.24238">
        <ele>200.69000244141</ele>
        <time>2009-07-11T12:38:32Z</time>
      </trkpt>
      <trkpt lat="45.06238" lon="5.24249">
        <ele>199.53100585938</ele>
        <time>2009-07-11T12:38:40Z</time>
      </trkpt>
      <trkpt lat="45.06198" lon="5.24258">
        <ele>198.1369934082</ele>
        <time>2009-07-11T12:38:45Z</time>
      </trkpt>
      <trkpt lat="45.06113" lon="5.24274">
        <ele>195.98599243164</ele>
        <time>2009-07-11T12:38:55Z</time>
      </trkpt>
      <trkpt lat="45.06086" lon="5.24277">
        <ele>195.45700073242</ele>
        <time>2009-07-11T12:38:58Z</time>
      </trkpt>
      <trkpt lat="45.06025" lon="5.24325">
        <ele>193.99099731445</ele>
        <time>2009-07-11T12:39:06Z</time>
      </trkpt>
      <trkpt lat="45.05999" lon="5.24361">
        <ele>192.3690032959</ele>
        <time>2009-07-11T12:39:10Z</time>
      </trkpt>
      <trkpt lat="45.05981" lon="5.24391">
        <ele>192.04499816894</ele>
        <time>2009-07-11T12:39:13Z</time>
      </trkpt>
      <trkpt lat="45.05972" lon="5.24439">
        <ele>191.05400085449</ele>
        <time>2009-07-11T12:39:17Z</time>
      </trkpt>
      <trkpt lat="45.05972" lon="5.2449">
        <ele>189.64100646973</ele>
        <time>2009-07-11T12:39:21Z</time>
      </trkpt>
      <trkpt lat="45.05972" lon="5.24541">
        <ele>189.15199279785</ele>
        <time>2009-07-11T12:39:25Z</time>
      </trkpt>
      <trkpt lat="45.0598" lon="5.24602">
        <ele>186.93099975586</ele>
        <time>2009-07-11T12:39:30Z</time>
      </trkpt>
      <trkpt lat="45.05983" lon="5.24639">
        <ele>186.80499267578</ele>
        <time>2009-07-11T12:39:33Z</time>
      </trkpt>
      <trkpt lat="45.05988" lon="5.24663">
        <ele>185.86000061035</ele>
        <time>2009-07-11T12:39:35Z</time>
      </trkpt>
      <trkpt lat="45.05999" lon="5.24687">
        <ele>185.58999633789</ele>
        <time>2009-07-11T12:39:38Z</time>
      </trkpt>
      <trkpt lat="45.06041" lon="5.24712">
        <ele>184.93600463867</ele>
        <time>2009-07-11T12:39:43Z</time>
      </trkpt>
      <trkpt lat="45.06052" lon="5.24757">
        <ele>184.18499755859</ele>
        <time>2009-07-11T12:39:48Z</time>
      </trkpt>
      <trkpt lat="45.05999" lon="5.24912">
        <ele>181.23599243164</ele>
        <time>2009-07-11T12:40:03Z</time>
      </trkpt>
      <trkpt lat="45.05978" lon="5.24948">
        <ele>180.89599609375</ele>
        <time>2009-07-11T12:40:07Z</time>
      </trkpt>
      <trkpt lat="45.05883" lon="5.25041">
        <ele>180.54400634766</ele>
        <time>2009-07-11T12:40:22Z</time>
      </trkpt>
      <trkpt lat="45.0585" lon="5.25074">
        <ele>182.36000061035</ele>
        <time>2009-07-11T12:40:28Z</time>
      </trkpt>
      <trkpt lat="45.05834" lon="5.25102">
        <ele>184.05099487305</ele>
        <time>2009-07-11T12:40:32Z</time>
      </trkpt>
      <trkpt lat="45.05827" lon="5.25127">
        <ele>184.64900207519</ele>
        <time>2009-07-11T12:40:35Z</time>
      </trkpt>
      <trkpt lat="45.05821" lon="5.25201">
        <ele>185.52299499512</ele>
        <time>2009-07-11T12:40:43Z</time>
      </trkpt>
      <trkpt lat="45.05823" lon="5.25259">
        <ele>185.57899475098</ele>
        <time>2009-07-11T12:40:49Z</time>
      </trkpt>
      <trkpt lat="45.05831" lon="5.25407">
        <ele>181.10499572754</ele>
        <time>2009-07-11T12:41:02Z</time>
      </trkpt>
      <trkpt lat="45.05831" lon="5.2542">
        <ele>180.73199462891</ele>
        <time>2009-07-11T12:41:03Z</time>
      </trkpt>
      <trkpt lat="45.05827" lon="5.25446">
        <ele>179.87399291992</ele>
        <time>2009-07-11T12:41:05Z</time>
      </trkpt>
      <trkpt lat="45.0582" lon="5.2547">
        <ele>179.22900390625</ele>
        <time>2009-07-11T12:41:07Z</time>
      </trkpt>
      <trkpt lat="45.05788" lon="5.25545">
        <ele>179.68600463867</ele>
        <time>2009-07-11T12:41:14Z</time>
      </trkpt>
      <trkpt lat="45.05759" lon="5.25614">
        <ele>182.81399536133</ele>
        <time>2009-07-11T12:41:22Z</time>
      </trkpt>
      <trkpt lat="45.05756" lon="5.25622">
        <ele>182.89300537109</ele>
        <time>2009-07-11T12:41:23Z</time>
      </trkpt>
      <trkpt lat="45.05751" lon="5.25647">
        <ele>183.78199768066</ele>
        <time>2009-07-11T12:41:26Z</time>
      </trkpt>
      <trkpt lat="45.05747" lon="5.25671">
        <ele>184.78799438477</ele>
        <time>2009-07-11T12:41:29Z</time>
      </trkpt>
      <trkpt lat="45.0575" lon="5.25727">
        <ele>187.2140045166</ele>
        <time>2009-07-11T12:41:36Z</time>
      </trkpt>
      <trkpt lat="45.05752" lon="5.25742">
        <ele>187.64799499512</ele>
        <time>2009-07-11T12:41:38Z</time>
      </trkpt>
      <trkpt lat="45.0574" lon="5.25765">
        <ele>190.55700683594</ele>
        <time>2009-07-11T12:41:45Z</time>
      </trkpt>
      <trkpt lat="45.05737" lon="5.25746">
        <ele>190.74000549316</ele>
        <time>2009-07-11T12:41:48Z</time>
      </trkpt>
      <trkpt lat="45.05732" lon="5.25686">
        <ele>192.77000427246</ele>
        <time>2009-07-11T12:41:56Z</time>
      </trkpt>
      <trkpt lat="45.05722" lon="5.25662">
        <ele>194.29600524902</ele>
        <time>2009-07-11T12:42:00Z</time>
      </trkpt>
      <trkpt lat="45.05712" lon="5.25646">
        <ele>195.18600463867</ele>
        <time>2009-07-11T12:42:03Z</time>
      </trkpt>
      <trkpt lat="45.05682" lon="5.25626">
        <ele>197.19000244141</ele>
        <time>2009-07-11T12:42:10Z</time>
      </trkpt>
      <trkpt lat="45.056" lon="5.25623">
        <ele>202.46600341797</ele>
        <time>2009-07-11T12:42:28Z</time>
      </trkpt>
      <trkpt lat="45.05576" lon="5.25634">
        <ele>203.7859954834</ele>
        <time>2009-07-11T12:42:33Z</time>
      </trkpt>
      <trkpt lat="45.05507" lon="5.25709">
        <ele>208.65800476074</ele>
        <time>2009-07-11T12:42:49Z</time>
      </trkpt>
      <trkpt lat="45.05439" lon="5.25811">
        <ele>212.73199462891</ele>
        <time>2009-07-11T12:43:07Z</time>
      </trkpt>
      <trkpt lat="45.05423" lon="5.25938">
        <ele>214.50399780273</ele>
        <time>2009-07-11T12:43:22Z</time>
      </trkpt>
      <trkpt lat="45.05393" lon="5.26077">
        <ele>215.94099426269</ele>
        <time>2009-07-11T12:43:38Z</time>
      </trkpt>
      <trkpt lat="45.05348" lon="5.26156">
        <ele>217.69099426269</ele>
        <time>2009-07-11T12:43:50Z</time>
      </trkpt>
      <trkpt lat="45.0533" lon="5.26186">
        <ele>219.21099853516</ele>
        <time>2009-07-11T12:43:55Z</time>
      </trkpt>
      <trkpt lat="45.05325" lon="5.26201">
        <ele>219.33999633789</ele>
        <time>2009-07-11T12:43:57Z</time>
      </trkpt>
      <trkpt lat="45.05322" lon="5.26216">
        <ele>219.56199645996</ele>
        <time>2009-07-11T12:43:59Z</time>
      </trkpt>
      <trkpt lat="45.05319" lon="5.2624">
        <ele>220.09700012207</ele>
        <time>2009-07-11T12:44:02Z</time>
      </trkpt>
      <trkpt lat="45.0534" lon="5.26386">
        <ele>223.52900695801</ele>
        <time>2009-07-11T12:44:19Z</time>
      </trkpt>
      <trkpt lat="45.05347" lon="5.26442">
        <ele>224.69999694824</ele>
        <time>2009-07-11T12:44:25Z</time>
      </trkpt>
      <trkpt lat="45.05335" lon="5.2654">
        <ele>226.41700744629</ele>
        <time>2009-07-11T12:44:36Z</time>
      </trkpt>
      <trkpt lat="45.05275" lon="5.26609">
        <ele>229.09199523926</ele>
        <time>2009-07-11T12:44:48Z</time>
      </trkpt>
      <trkpt lat="45.05177" lon="5.26706">
        <ele>229.82299804688</ele>
        <time>2009-07-11T12:45:06Z</time>
      </trkpt>
      <trkpt lat="45.05084" lon="5.26823">
        <ele>230.47099304199</ele>
        <time>2009-07-11T12:45:24Z</time>
      </trkpt>
      <trkpt lat="45.05077" lon="5.26898">
        <ele>230.1369934082</ele>
        <time>2009-07-11T12:45:32Z</time>
      </trkpt>
      <trkpt lat="45.05106" lon="5.27037">
        <ele>231.31500244141</ele>
        <time>2009-07-11T12:45:47Z</time>
      </trkpt>
      <trkpt lat="45.05079" lon="5.27193">
        <ele>233.01699829102</ele>
        <time>2009-07-11T12:46:04Z</time>
      </trkpt>
      <trkpt lat="45.05066" lon="5.27342">
        <ele>230.96800231934</ele>
        <time>2009-07-11T12:46:19Z</time>
      </trkpt>
      <trkpt lat="45.05065" lon="5.27469">
        <ele>228.07099914551</ele>
        <time>2009-07-11T12:46:29Z</time>
      </trkpt>
      <trkpt lat="45.05066" lon="5.27509">
        <ele>226.70700073242</ele>
        <time>2009-07-11T12:46:32Z</time>
      </trkpt>
      <trkpt lat="45.05108" lon="5.27596">
        <ele>224.25300598144</ele>
        <time>2009-07-11T12:46:40Z</time>
      </trkpt>
      <trkpt lat="45.05159" lon="5.27642">
        <ele>221.25799560547</ele>
        <time>2009-07-11T12:46:46Z</time>
      </trkpt>
      <trkpt lat="45.05197" lon="5.27688">
        <ele>218.49899291992</ele>
        <time>2009-07-11T12:46:51Z</time>
      </trkpt>
      <trkpt lat="45.05204" lon="5.27697">
        <ele>218.50500488281</ele>
        <time>2009-07-11T12:46:52Z</time>
      </trkpt>
      <trkpt lat="45.05226" lon="5.27724">
        <ele>219.57099914551</ele>
        <time>2009-07-11T12:46:55Z</time>
      </trkpt>
      <trkpt lat="45.05282" lon="5.27732">
        <ele>219.89399719238</ele>
        <time>2009-07-11T12:47:01Z</time>
      </trkpt>
      <trkpt lat="45.0529" lon="5.27727">
        <ele>220.08500671387</ele>
        <time>2009-07-11T12:47:02Z</time>
      </trkpt>
      <trkpt lat="45.05345" lon="5.27692">
        <ele>221.07499694824</ele>
        <time>2009-07-11T12:47:09Z</time>
      </trkpt>
      <trkpt lat="45.05393" lon="5.27699">
        <ele>221.16200256348</ele>
        <time>2009-07-11T12:47:15Z</time>
      </trkpt>
      <trkpt lat="45.05474" lon="5.27759">
        <ele>220.38900756836</ele>
        <time>2009-07-11T12:47:26Z</time>
      </trkpt>
      <trkpt lat="45.05511" lon="5.27849">
        <ele>220.62399291992</ele>
        <time>2009-07-11T12:47:35Z</time>
      </trkpt>
      <trkpt lat="45.05509" lon="5.28107">
        <ele>219.85600280762</ele>
        <time>2009-07-11T12:47:58Z</time>
      </trkpt>
      <trkpt lat="45.05511" lon="5.28395">
        <ele>220.82899475098</ele>
        <time>2009-07-11T12:48:24Z</time>
      </trkpt>
      <trkpt lat="45.05501" lon="5.28573">
        <ele>220.87699890137</ele>
        <time>2009-07-11T12:48:40Z</time>
      </trkpt>
      <trkpt lat="45.0549" lon="5.28609">
        <ele>220.73599243164</ele>
        <time>2009-07-11T12:48:44Z</time>
      </trkpt>
      <trkpt lat="45.05474" lon="5.28652">
        <ele>221.18600463867</ele>
        <time>2009-07-11T12:48:49Z</time>
      </trkpt>
      <trkpt lat="45.05422" lon="5.28752">
        <ele>222.08200073242</ele>
        <time>2009-07-11T12:49:02Z</time>
      </trkpt>
      <trkpt lat="45.05343" lon="5.28936">
        <ele>222.72999572754</ele>
        <time>2009-07-11T12:49:23Z</time>
      </trkpt>
      <trkpt lat="45.0529" lon="5.29057">
        <ele>223.82099914551</ele>
        <time>2009-07-11T12:49:36Z</time>
      </trkpt>
      <trkpt lat="45.05197" lon="5.29239">
        <ele>225.87399291992</ele>
        <time>2009-07-11T12:49:57Z</time>
      </trkpt>
      <trkpt lat="45.05067" lon="5.29338">
        <ele>228.0299987793</ele>
        <time>2009-07-11T12:50:15Z</time>
      </trkpt>
      <trkpt lat="45.04938" lon="5.2943">
        <ele>229.19400024414</ele>
        <time>2009-07-11T12:50:33Z</time>
      </trkpt>
      <trkpt lat="45.04903" lon="5.29458">
        <ele>229.07400512695</ele>
        <time>2009-07-11T12:50:38Z</time>
      </trkpt>
      <trkpt lat="45.04883" lon="5.2948">
        <ele>229.28900146484</ele>
        <time>2009-07-11T12:50:41Z</time>
      </trkpt>
      <trkpt lat="45.04831" lon="5.29524">
        <ele>229.12699890137</ele>
        <time>2009-07-11T12:50:48Z</time>
      </trkpt>
      <trkpt lat="45.04806" lon="5.29534">
        <ele>229.07699584961</ele>
        <time>2009-07-11T12:50:51Z</time>
      </trkpt>
      <trkpt lat="45.04698" lon="5.29606">
        <ele>231.65800476074</ele>
        <time>2009-07-11T12:51:05Z</time>
      </trkpt>
      <trkpt lat="45.04549" lon="5.29715">
        <ele>231.19900512695</ele>
        <time>2009-07-11T12:51:23Z</time>
      </trkpt>
      <trkpt lat="45.04522" lon="5.29733">
        <ele>230.27000427246</ele>
        <time>2009-07-11T12:51:26Z</time>
      </trkpt>
      <trkpt lat="45.04473" lon="5.29747">
        <ele>228.45300292969</ele>
        <time>2009-07-11T12:51:31Z</time>
      </trkpt>
      <trkpt lat="45.04404" lon="5.29753">
        <ele>227.28300476074</ele>
        <time>2009-07-11T12:51:38Z</time>
      </trkpt>
      <trkpt lat="45.04367" lon="5.29749">
        <ele>228.96499633789</ele>
        <time>2009-07-11T12:51:42Z</time>
      </trkpt>
      <trkpt lat="45.04227" lon="5.29719">
        <ele>230.99699401856</ele>
        <time>2009-07-11T12:51:57Z</time>
      </trkpt>
      <trkpt lat="45.04129" lon="5.29706">
        <ele>234.64300537109</ele>
        <time>2009-07-11T12:52:09Z</time>
      </trkpt>
      <trkpt lat="45.04077" lon="5.29705">
        <ele>235.11000061035</ele>
        <time>2009-07-11T12:52:15Z</time>
      </trkpt>
      <trkpt lat="45.0395" lon="5.29718">
        <ele>240.27600097656</ele>
        <time>2009-07-11T12:52:31Z</time>
      </trkpt>
      <trkpt lat="45.03812" lon="5.29731">
        <ele>238.0059967041</ele>
        <time>2009-07-11T12:52:47Z</time>
      </trkpt>
      <trkpt lat="45.03796" lon="5.29733">
        <ele>238.73100280762</ele>
        <time>2009-07-11T12:52:49Z</time>
      </trkpt>
      <trkpt lat="45.0374" lon="5.29737">
        <ele>240.10200500488</ele>
        <time>2009-07-11T12:52:56Z</time>
      </trkpt>
      <trkpt lat="45.03675" lon="5.29702">
        <ele>240.8869934082</ele>
        <time>2009-07-11T12:53:05Z</time>
      </trkpt>
      <trkpt lat="45.03577" lon="5.29586">
        <ele>239.89399719238</ele>
        <time>2009-07-11T12:53:20Z</time>
      </trkpt>
      <trkpt lat="45.0351" lon="5.29479">
        <ele>237.05999755859</ele>
        <time>2009-07-11T12:53:31Z</time>
      </trkpt>
      <trkpt lat="45.03469" lon="5.29392">
        <ele>233.22500610352</ele>
        <time>2009-07-11T12:53:38Z</time>
      </trkpt>
      <trkpt lat="45.03426" lon="5.29342">
        <ele>231.69599914551</ele>
        <time>2009-07-11T12:53:43Z</time>
      </trkpt>
      <trkpt lat="45.03357" lon="5.29285">
        <ele>231.45599365234</ele>
        <time>2009-07-11T12:53:51Z</time>
      </trkpt>
      <trkpt lat="45.03316" lon="5.2925">
        <ele>233.39799499512</ele>
        <time>2009-07-11T12:53:56Z</time>
      </trkpt>
      <trkpt lat="45.03214" lon="5.29167">
        <ele>232.53999328613</ele>
        <time>2009-07-11T12:54:08Z</time>
      </trkpt>
      <trkpt lat="45.03104" lon="5.2907">
        <ele>232.62600708008</ele>
        <time>2009-07-11T12:54:21Z</time>
      </trkpt>
      <trkpt lat="45.02981" lon="5.28952">
        <ele>231.99000549316</ele>
        <time>2009-07-11T12:54:37Z</time>
      </trkpt>
      <trkpt lat="45.02915" lon="5.28937">
        <ele>229.81599426269</ele>
        <time>2009-07-11T12:54:44Z</time>
      </trkpt>
      <trkpt lat="45.02863" lon="5.28949">
        <ele>227.6309967041</ele>
        <time>2009-07-11T12:54:49Z</time>
      </trkpt>
      <trkpt lat="45.02786" lon="5.28926">
        <ele>222.87899780273</ele>
        <time>2009-07-11T12:54:56Z</time>
      </trkpt>
      <trkpt lat="45.02677" lon="5.28831">
        <ele>223.80200195312</ele>
        <time>2009-07-11T12:55:08Z</time>
      </trkpt>
      <trkpt lat="45.02612" lon="5.28785">
        <ele>225.87800598144</ele>
        <time>2009-07-11T12:55:16Z</time>
      </trkpt>
      <trkpt lat="45.02582" lon="5.28777">
        <ele>226.73699951172</ele>
        <time>2009-07-11T12:55:20Z</time>
      </trkpt>
      <trkpt lat="45.02519" lon="5.28752">
        <ele>227.25999450684</ele>
        <time>2009-07-11T12:55:29Z</time>
      </trkpt>
      <trkpt lat="45.02485" lon="5.2869">
        <ele>226.09899902344</ele>
        <time>2009-07-11T12:55:35Z</time>
      </trkpt>
      <trkpt lat="45.02417" lon="5.28664">
        <ele>226.6130065918</ele>
        <time>2009-07-11T12:55:43Z</time>
      </trkpt>
      <trkpt lat="45.02392" lon="5.28679">
        <ele>227.10299682617</ele>
        <time>2009-07-11T12:55:46Z</time>
      </trkpt>
      <trkpt lat="45.02331" lon="5.28748">
        <ele>229.10299682617</ele>
        <time>2009-07-11T12:55:55Z</time>
      </trkpt>
      <trkpt lat="45.02298" lon="5.28822">
        <ele>230.19099426269</ele>
        <time>2009-07-11T12:56:02Z</time>
      </trkpt>
      <trkpt lat="45.0227" lon="5.28899">
        <ele>231.33500671387</ele>
        <time>2009-07-11T12:56:09Z</time>
      </trkpt>
      <trkpt lat="45.02246" lon="5.2893">
        <ele>232.63200378418</ele>
        <time>2009-07-11T12:56:13Z</time>
      </trkpt>
      <trkpt lat="45.02184" lon="5.29013">
        <ele>236.67399597168</ele>
        <time>2009-07-11T12:56:25Z</time>
      </trkpt>
      <trkpt lat="45.02124" lon="5.29082">
        <ele>241.01300048828</ele>
        <time>2009-07-11T12:56:34Z</time>
      </trkpt>
      <trkpt lat="45.02095" lon="5.29113">
        <ele>242.74499511719</ele>
        <time>2009-07-11T12:56:38Z</time>
      </trkpt>
      <trkpt lat="45.02076" lon="5.29133">
        <ele>243.91799926758</ele>
        <time>2009-07-11T12:56:41Z</time>
      </trkpt>
      <trkpt lat="45.02064" lon="5.29139">
        <ele>244.61000061035</ele>
        <time>2009-07-11T12:56:43Z</time>
      </trkpt>
      <trkpt lat="45.02052" lon="5.29135">
        <ele>244.88400268555</ele>
        <time>2009-07-11T12:56:45Z</time>
      </trkpt>
      <trkpt lat="45.02022" lon="5.29117">
        <ele>244.65899658203</ele>
        <time>2009-07-11T12:56:51Z</time>
      </trkpt>
      <trkpt lat="45.01963" lon="5.29086">
        <ele>243.93299865723</ele>
        <time>2009-07-11T12:57:02Z</time>
      </trkpt>
      <trkpt lat="45.01895" lon="5.29051">
        <ele>244.14999389648</ele>
        <time>2009-07-11T12:57:14Z</time>
      </trkpt>
      <trkpt lat="45.01867" lon="5.29037">
        <ele>244.1609954834</ele>
        <time>2009-07-11T12:57:19Z</time>
      </trkpt>
      <trkpt lat="45.01839" lon="5.29019">
        <ele>244.5119934082</ele>
        <time>2009-07-11T12:57:24Z</time>
      </trkpt>
      <trkpt lat="45.01819" lon="5.2899">
        <ele>245.13299560547</ele>
        <time>2009-07-11T12:57:29Z</time>
      </trkpt>
      <trkpt lat="45.01812" lon="5.28967">
        <ele>245.48899841309</ele>
        <time>2009-07-11T12:57:32Z</time>
      </trkpt>
      <trkpt lat="45.01806" lon="5.28953">
        <ele>245.74899291992</ele>
        <time>2009-07-11T12:57:34Z</time>
      </trkpt>
      <trkpt lat="45.01786" lon="5.28938">
        <ele>246.12300109863</ele>
        <time>2009-07-11T12:57:38Z</time>
      </trkpt>
      <trkpt lat="45.0169" lon="5.28897">
        <ele>246.38800048828</ele>
        <time>2009-07-11T12:57:53Z</time>
      </trkpt>
      <trkpt lat="45.01657" lon="5.28882">
        <ele>246.82600402832</ele>
        <time>2009-07-11T12:57:58Z</time>
      </trkpt>
      <trkpt lat="45.01596" lon="5.28859">
        <ele>247.93699645996</ele>
        <time>2009-07-11T12:58:07Z</time>
      </trkpt>
      <trkpt lat="45.01534" lon="5.28838">
        <ele>248.63600158691</ele>
        <time>2009-07-11T12:58:17Z</time>
      </trkpt>
      <trkpt lat="45.0144" lon="5.28837">
        <ele>249.51899719238</ele>
        <time>2009-07-11T12:58:31Z</time>
      </trkpt>
      <trkpt lat="45.01405" lon="5.28845">
        <ele>250.79200744629</ele>
        <time>2009-07-11T12:58:37Z</time>
      </trkpt>
      <trkpt lat="45.01336" lon="5.28855">
        <ele>251.05700683594</ele>
        <time>2009-07-11T12:58:48Z</time>
      </trkpt>
      <trkpt lat="45.01288" lon="5.28838">
        <ele>252.59700012207</ele>
        <time>2009-07-11T12:58:56Z</time>
      </trkpt>
      <trkpt lat="45.01252" lon="5.28856">
        <ele>253.54400634766</ele>
        <time>2009-07-11T12:59:04Z</time>
      </trkpt>
      <trkpt lat="45.01256" lon="5.28867">
        <ele>253.77900695801</ele>
        <time>2009-07-11T12:59:06Z</time>
      </trkpt>
      <trkpt lat="45.01296" lon="5.2896">
        <ele>257.11700439453</ele>
        <time>2009-07-11T12:59:20Z</time>
      </trkpt>
      <trkpt lat="45.01298" lon="5.28967">
        <ele>257.32299804688</ele>
        <time>2009-07-11T12:59:21Z</time>
      </trkpt>
      <trkpt lat="45.01335" lon="5.2906">
        <ele>260.39401245117</ele>
        <time>2009-07-11T12:59:35Z</time>
      </trkpt>
      <trkpt lat="45.01333" lon="5.29085">
        <ele>262.0539855957</ele>
        <time>2009-07-11T12:59:39Z</time>
      </trkpt>
      <trkpt lat="45.01318" lon="5.2909">
        <ele>263.57501220703</ele>
        <time>2009-07-11T12:59:43Z</time>
      </trkpt>
      <trkpt lat="45.01268" lon="5.29076">
        <ele>266.31100463867</ele>
        <time>2009-07-11T12:59:54Z</time>
      </trkpt>
      <trkpt lat="45.01213" lon="5.2906">
        <ele>269.92098999023</ele>
        <time>2009-07-11T13:00:05Z</time>
      </trkpt>
      <trkpt lat="45.01196" lon="5.29051">
        <ele>271.14700317383</ele>
        <time>2009-07-11T13:00:08Z</time>
      </trkpt>
      <trkpt lat="45.01165" lon="5.2904">
        <ele>274.18200683594</ele>
        <time>2009-07-11T13:00:14Z</time>
      </trkpt>
      <trkpt lat="45.0112" lon="5.29033">
        <ele>277.53298950195</ele>
        <time>2009-07-11T13:00:24Z</time>
      </trkpt>
      <trkpt lat="45.0111" lon="5.29032">
        <ele>278.13500976562</ele>
        <time>2009-07-11T13:00:26Z</time>
      </trkpt>
      <trkpt lat="45.01081" lon="5.29015">
        <ele>279.53799438477</ele>
        <time>2009-07-11T13:00:32Z</time>
      </trkpt>
      <trkpt lat="45.0104" lon="5.28997">
        <ele>280.77801513672</ele>
        <time>2009-07-11T13:00:41Z</time>
      </trkpt>
      <trkpt lat="45.01014" lon="5.28985">
        <ele>281.70098876953</ele>
        <time>2009-07-11T13:00:47Z</time>
      </trkpt>
      <trkpt lat="45.0094" lon="5.28947">
        <ele>283.61199951172</ele>
        <time>2009-07-11T13:01:02Z</time>
      </trkpt>
      <trkpt lat="45.00847" lon="5.2889">
        <ele>287.35400390625</ele>
        <time>2009-07-11T13:01:20Z</time>
      </trkpt>
      <trkpt lat="45.00758" lon="5.28845">
        <ele>289.29501342773</ele>
        <time>2009-07-11T13:01:34Z</time>
      </trkpt>
      <trkpt lat="45.00628" lon="5.28751">
        <ele>292.70999145508</ele>
        <time>2009-07-11T13:01:56Z</time>
      </trkpt>
      <trkpt lat="45.00528" lon="5.28708">
        <ele>294.84100341797</ele>
        <time>2009-07-11T13:02:13Z</time>
      </trkpt>
      <trkpt lat="45.00421" lon="5.28706">
        <ele>295.15301513672</ele>
        <time>2009-07-11T13:02:29Z</time>
      </trkpt>
      <trkpt lat="45.00312" lon="5.28654">
        <ele>296.29400634766</ele>
        <time>2009-07-11T13:02:45Z</time>
      </trkpt>
      <trkpt lat="45.00208" lon="5.28572">
        <ele>300.32400512695</ele>
        <time>2009-07-11T13:03:03Z</time>
      </trkpt>
      <trkpt lat="45.00105" lon="5.28556">
        <ele>299.91198730469</ele>
        <time>2009-07-11T13:03:18Z</time>
      </trkpt>
      <trkpt lat="44.99998" lon="5.28511">
        <ele>301.10800170898</ele>
        <time>2009-07-11T13:03:33Z</time>
      </trkpt>
      <trkpt lat="44.99914" lon="5.28409">
        <ele>304.26998901367</ele>
        <time>2009-07-11T13:03:50Z</time>
      </trkpt>
      <trkpt lat="44.9983" lon="5.28273">
        <ele>307.74899291992</ele>
        <time>2009-07-11T13:04:10Z</time>
      </trkpt>
      <trkpt lat="44.99758" lon="5.28189">
        <ele>311.28298950195</ele>
        <time>2009-07-11T13:04:27Z</time>
      </trkpt>
      <trkpt lat="44.99684" lon="5.28111">
        <ele>315.12200927734</ele>
        <time>2009-07-11T13:04:44Z</time>
      </trkpt>
      <trkpt lat="44.99675" lon="5.28103">
        <ele>316.36401367188</ele>
        <time>2009-07-11T13:04:46Z</time>
      </trkpt>
      <trkpt lat="44.9966" lon="5.28095">
        <ele>317.0719909668</ele>
        <time>2009-07-11T13:04:49Z</time>
      </trkpt>
      <trkpt lat="44.99639" lon="5.2809">
        <ele>318.51300048828</ele>
        <time>2009-07-11T13:04:53Z</time>
      </trkpt>
      <trkpt lat="44.99583" lon="5.28096">
        <ele>321.0299987793</ele>
        <time>2009-07-11T13:05:04Z</time>
      </trkpt>
      <trkpt lat="44.99569" lon="5.28095">
        <ele>321.86401367188</ele>
        <time>2009-07-11T13:05:07Z</time>
      </trkpt>
      <trkpt lat="44.99527" lon="5.28047">
        <ele>324.69100952148</ele>
        <time>2009-07-11T13:05:18Z</time>
      </trkpt>
      <trkpt lat="44.99525" lon="5.2804">
        <ele>324.85900878906</ele>
        <time>2009-07-11T13:05:19Z</time>
      </trkpt>
      <trkpt lat="44.9951" lon="5.27987">
        <ele>327.27301025391</ele>
        <time>2009-07-11T13:05:27Z</time>
      </trkpt>
      <trkpt lat="44.99468" lon="5.27956">
        <ele>329.41500854492</ele>
        <time>2009-07-11T13:05:37Z</time>
      </trkpt>
      <trkpt lat="44.99453" lon="5.2796">
        <ele>329.73300170898</ele>
        <time>2009-07-11T13:05:40Z</time>
      </trkpt>
      <trkpt lat="44.99434" lon="5.2797">
        <ele>330.38101196289</ele>
        <time>2009-07-11T13:05:44Z</time>
      </trkpt>
      <trkpt lat="44.99358" lon="5.28045">
        <ele>334.13000488281</ele>
        <time>2009-07-11T13:06:02Z</time>
      </trkpt>
      <trkpt lat="44.99345" lon="5.28056">
        <ele>334.82800292969</ele>
        <time>2009-07-11T13:06:05Z</time>
      </trkpt>
      <trkpt lat="44.99278" lon="5.28079">
        <ele>338.28799438477</ele>
        <time>2009-07-11T13:06:18Z</time>
      </trkpt>
      <trkpt lat="44.99197" lon="5.28154">
        <ele>341.09698486328</ele>
        <time>2009-07-11T13:06:36Z</time>
      </trkpt>
      <trkpt lat="44.99162" lon="5.28179">
        <ele>343.01998901367</ele>
        <time>2009-07-11T13:06:43Z</time>
      </trkpt>
      <trkpt lat="44.99147" lon="5.28181">
        <ele>343.81399536133</ele>
        <time>2009-07-11T13:06:46Z</time>
      </trkpt>
      <trkpt lat="44.99035" lon="5.28168">
        <ele>348.20098876953</ele>
        <time>2009-07-11T13:07:06Z</time>
      </trkpt>
      <trkpt lat="44.98928" lon="5.28162">
        <ele>352.58801269531</ele>
        <time>2009-07-11T13:07:25Z</time>
      </trkpt>
      <trkpt lat="44.98913" lon="5.28152">
        <ele>353.38800048828</ele>
        <time>2009-07-11T13:07:28Z</time>
      </trkpt>
      <trkpt lat="44.98833" lon="5.2807">
        <ele>358.56298828125</ele>
        <time>2009-07-11T13:07:46Z</time>
      </trkpt>
      <trkpt lat="44.98825" lon="5.28061">
        <ele>359.23400878906</ele>
        <time>2009-07-11T13:07:48Z</time>
      </trkpt>
      <trkpt lat="44.98781" lon="5.27963">
        <ele>363.21301269531</ele>
        <time>2009-07-11T13:08:03Z</time>
      </trkpt>
      <trkpt lat="44.98746" lon="5.27863">
        <ele>367.36599731445</ele>
        <time>2009-07-11T13:08:17Z</time>
      </trkpt>
      <trkpt lat="44.98732" lon="5.27839">
        <ele>368.2919921875</ele>
        <time>2009-07-11T13:08:21Z</time>
      </trkpt>
      <trkpt lat="44.98648" lon="5.27745">
        <ele>373.17401123047</ele>
        <time>2009-07-11T13:08:41Z</time>
      </trkpt>
      <trkpt lat="44.98623" lon="5.27722">
        <ele>374.61499023438</ele>
        <time>2009-07-11T13:08:47Z</time>
      </trkpt>
      <trkpt lat="44.98585" lon="5.27714">
        <ele>376.50601196289</ele>
        <time>2009-07-11T13:08:55Z</time>
      </trkpt>
      <trkpt lat="44.98515" lon="5.27671">
        <ele>380.19100952148</ele>
        <time>2009-07-11T13:09:10Z</time>
      </trkpt>
      <trkpt lat="44.98448" lon="5.27646">
        <ele>382.26998901367</ele>
        <time>2009-07-11T13:09:23Z</time>
      </trkpt>
      <trkpt lat="44.98414" lon="5.27599">
        <ele>384.55499267578</ele>
        <time>2009-07-11T13:09:31Z</time>
      </trkpt>
      <trkpt lat="44.98399" lon="5.27562">
        <ele>386.20300292969</ele>
        <time>2009-07-11T13:09:36Z</time>
      </trkpt>
      <trkpt lat="44.98382" lon="5.27539">
        <ele>387.67199707031</ele>
        <time>2009-07-11T13:09:40Z</time>
      </trkpt>
      <trkpt lat="44.98273" lon="5.27451">
        <ele>393.34899902344</ele>
        <time>2009-07-11T13:10:00Z</time>
      </trkpt>
      <trkpt lat="44.98179" lon="5.27385">
        <ele>398.92700195312</ele>
        <time>2009-07-11T13:10:17Z</time>
      </trkpt>
      <trkpt lat="44.98156" lon="5.27365">
        <ele>400.01300048828</ele>
        <time>2009-07-11T13:10:22Z</time>
      </trkpt>
      <trkpt lat="44.98115" lon="5.27308">
        <ele>403.95700073242</ele>
        <time>2009-07-11T13:10:34Z</time>
      </trkpt>
      <trkpt lat="44.98075" lon="5.27289">
        <ele>406.66299438477</ele>
        <time>2009-07-11T13:10:44Z</time>
      </trkpt>
      <trkpt lat="44.98003" lon="5.27322">
        <ele>407.91598510742</ele>
        <time>2009-07-11T13:11:00Z</time>
      </trkpt>
      <trkpt lat="44.97908" lon="5.27387">
        <ele>409.35000610352</ele>
        <time>2009-07-11T13:11:18Z</time>
      </trkpt>
      <trkpt lat="44.97849" lon="5.27448">
        <ele>412.48001098633</ele>
        <time>2009-07-11T13:11:32Z</time>
      </trkpt>
      <trkpt lat="44.9783" lon="5.27459">
        <ele>413.625</ele>
        <time>2009-07-11T13:11:36Z</time>
      </trkpt>
      <trkpt lat="44.97809" lon="5.27462">
        <ele>414.60299682617</ele>
        <time>2009-07-11T13:11:40Z</time>
      </trkpt>
      <trkpt lat="44.97787" lon="5.27458">
        <ele>416.14498901367</ele>
        <time>2009-07-11T13:11:44Z</time>
      </trkpt>
      <trkpt lat="44.97696" lon="5.27408">
        <ele>420.97698974609</ele>
        <time>2009-07-11T13:12:02Z</time>
      </trkpt>
      <trkpt lat="44.97635" lon="5.27356">
        <ele>424.9280090332</ele>
        <time>2009-07-11T13:12:15Z</time>
      </trkpt>
      <trkpt lat="44.97582" lon="5.27357">
        <ele>428.42700195312</ele>
        <time>2009-07-11T13:12:25Z</time>
      </trkpt>
      <trkpt lat="44.9757" lon="5.27376">
        <ele>429.20199584961</ele>
        <time>2009-07-11T13:12:28Z</time>
      </trkpt>
      <trkpt lat="44.97528" lon="5.27499">
        <ele>434.78799438477</ele>
        <time>2009-07-11T13:12:44Z</time>
      </trkpt>
      <trkpt lat="44.97527" lon="5.27562">
        <ele>437.23901367188</ele>
        <time>2009-07-11T13:12:52Z</time>
      </trkpt>
      <trkpt lat="44.97527" lon="5.27658">
        <ele>441.48498535156</ele>
        <time>2009-07-11T13:13:06Z</time>
      </trkpt>
      <trkpt lat="44.9752" lon="5.27694">
        <ele>442.58599853516</ele>
        <time>2009-07-11T13:13:12Z</time>
      </trkpt>
      <trkpt lat="44.9751" lon="5.27722">
        <ele>443.56799316406</ele>
        <time>2009-07-11T13:13:17Z</time>
      </trkpt>
      <trkpt lat="44.97446" lon="5.27826">
        <ele>449.13800048828</ele>
        <time>2009-07-11T13:13:40Z</time>
      </trkpt>
      <trkpt lat="44.9744" lon="5.27833">
        <ele>449.81799316406</ele>
        <time>2009-07-11T13:13:42Z</time>
      </trkpt>
      <trkpt lat="44.97433" lon="5.27839">
        <ele>450.01501464844</ele>
        <time>2009-07-11T13:13:44Z</time>
      </trkpt>
      <trkpt lat="44.97414" lon="5.27846">
        <ele>451.29098510742</ele>
        <time>2009-07-11T13:13:49Z</time>
      </trkpt>
      <trkpt lat="44.97352" lon="5.27838">
        <ele>454.1669921875</ele>
        <time>2009-07-11T13:14:04Z</time>
      </trkpt>
      <trkpt lat="44.97335" lon="5.2784">
        <ele>454.83099365234</ele>
        <time>2009-07-11T13:14:08Z</time>
      </trkpt>
      <trkpt lat="44.97322" lon="5.27843">
        <ele>455.7080078125</ele>
        <time>2009-07-11T13:14:11Z</time>
      </trkpt>
      <trkpt lat="44.97264" lon="5.27899">
        <ele>457.70700073242</ele>
        <time>2009-07-11T13:14:26Z</time>
      </trkpt>
      <trkpt lat="44.97254" lon="5.27918">
        <ele>457.21398925781</ele>
        <time>2009-07-11T13:14:29Z</time>
      </trkpt>
      <trkpt lat="44.97197" lon="5.28026">
        <ele>453.24499511719</ele>
        <time>2009-07-11T13:14:41Z</time>
      </trkpt>
      <trkpt lat="44.97186" lon="5.28045">
        <ele>452.17599487305</ele>
        <time>2009-07-11T13:14:43Z</time>
      </trkpt>
      <trkpt lat="44.97148" lon="5.28122">
        <ele>449.44100952148</ele>
        <time>2009-07-11T13:14:50Z</time>
      </trkpt>
      <trkpt lat="44.97099" lon="5.28184">
        <ele>446.90301513672</ele>
        <time>2009-07-11T13:14:57Z</time>
      </trkpt>
      <trkpt lat="44.97091" lon="5.28193">
        <ele>446.65100097656</ele>
        <time>2009-07-11T13:14:58Z</time>
      </trkpt>
      <trkpt lat="44.97075" lon="5.28208">
        <ele>445.89999389648</ele>
        <time>2009-07-11T13:15:00Z</time>
      </trkpt>
      <trkpt lat="44.97026" lon="5.28176">
        <ele>445.11801147461</ele>
        <time>2009-07-11T13:15:06Z</time>
      </trkpt>
      <trkpt lat="44.97028" lon="5.28124">
        <ele>446.23999023438</ele>
        <time>2009-07-11T13:15:11Z</time>
      </trkpt>
      <trkpt lat="44.97054" lon="5.28048">
        <ele>448.11801147461</ele>
        <time>2009-07-11T13:15:20Z</time>
      </trkpt>
      <trkpt lat="44.97055" lon="5.28005">
        <ele>450.25799560547</ele>
        <time>2009-07-11T13:15:26Z</time>
      </trkpt>
      <trkpt lat="44.97041" lon="5.27973">
        <ele>452.45999145508</ele>
        <time>2009-07-11T13:15:31Z</time>
      </trkpt>
      <trkpt lat="44.97025" lon="5.27954">
        <ele>454.0950012207</ele>
        <time>2009-07-11T13:15:35Z</time>
      </trkpt>
      <trkpt lat="44.97005" lon="5.27928">
        <ele>454.96798706055</ele>
        <time>2009-07-11T13:15:40Z</time>
      </trkpt>
      <trkpt lat="44.96997" lon="5.27908">
        <ele>455.74700927734</ele>
        <time>2009-07-11T13:15:43Z</time>
      </trkpt>
      <trkpt lat="44.96986" lon="5.27864">
        <ele>453.79400634766</ele>
        <time>2009-07-11T13:15:48Z</time>
      </trkpt>
      <trkpt lat="44.96969" lon="5.27798">
        <ele>451.03900146484</ele>
        <time>2009-07-11T13:15:54Z</time>
      </trkpt>
      <trkpt lat="44.96906" lon="5.27688">
        <ele>450.08499145508</ele>
        <time>2009-07-11T13:16:05Z</time>
      </trkpt>
      <trkpt lat="44.96884" lon="5.27652">
        <ele>449.48001098633</ele>
        <time>2009-07-11T13:16:09Z</time>
      </trkpt>
      <trkpt lat="44.96864" lon="5.27578">
        <ele>450.72299194336</ele>
        <time>2009-07-11T13:16:16Z</time>
      </trkpt>
      <trkpt lat="44.96839" lon="5.2753">
        <ele>451.12298583984</ele>
        <time>2009-07-11T13:16:22Z</time>
      </trkpt>
      <trkpt lat="44.96762" lon="5.27454">
        <ele>452.51000976562</ele>
        <time>2009-07-11T13:16:35Z</time>
      </trkpt>
      <trkpt lat="44.96752" lon="5.27383">
        <ele>453.86999511719</ele>
        <time>2009-07-11T13:16:43Z</time>
      </trkpt>
      <trkpt lat="44.96758" lon="5.27367">
        <ele>453.65600585938</ele>
        <time>2009-07-11T13:16:45Z</time>
      </trkpt>
      <trkpt lat="44.96825" lon="5.2724">
        <ele>455.42300415039</ele>
        <time>2009-07-11T13:17:02Z</time>
      </trkpt>
      <trkpt lat="44.96832" lon="5.27187">
        <ele>457.2919921875</ele>
        <time>2009-07-11T13:17:09Z</time>
      </trkpt>
      <trkpt lat="44.96828" lon="5.27166">
        <ele>458.27499389648</ele>
        <time>2009-07-11T13:17:12Z</time>
      </trkpt>
      <trkpt lat="44.96793" lon="5.27094">
        <ele>461.76800537109</ele>
        <time>2009-07-11T13:17:25Z</time>
      </trkpt>
      <trkpt lat="44.96766" lon="5.27066">
        <ele>463.76800537109</ele>
        <time>2009-07-11T13:17:32Z</time>
      </trkpt>
      <trkpt lat="44.96757" lon="5.2706">
        <ele>464.62298583984</ele>
        <time>2009-07-11T13:17:34Z</time>
      </trkpt>
      <trkpt lat="44.96722" lon="5.27045">
        <ele>466.17700195312</ele>
        <time>2009-07-11T13:17:41Z</time>
      </trkpt>
      <trkpt lat="44.96675" lon="5.27048">
        <ele>468.60699462891</ele>
        <time>2009-07-11T13:17:50Z</time>
      </trkpt>
      <trkpt lat="44.96671" lon="5.2705">
        <ele>468.88598632812</ele>
        <time>2009-07-11T13:17:51Z</time>
      </trkpt>
      <trkpt lat="44.96602" lon="5.2711">
        <ele>473.41198730469</ele>
        <time>2009-07-11T13:18:09Z</time>
      </trkpt>
      <trkpt lat="44.96556" lon="5.27162">
        <ele>477.24099731445</ele>
        <time>2009-07-11T13:18:24Z</time>
      </trkpt>
      <trkpt lat="44.96532" lon="5.27146">
        <ele>478.01800537109</ele>
        <time>2009-07-11T13:18:31Z</time>
      </trkpt>
      <trkpt lat="44.96509" lon="5.27072">
        <ele>481.85800170898</ele>
        <time>2009-07-11T13:18:48Z</time>
      </trkpt>
      <trkpt lat="44.96506" lon="5.27065">
        <ele>481.91900634766</ele>
        <time>2009-07-11T13:18:52Z</time>
      </trkpt>
      <trkpt lat="44.96506" lon="5.27065">
        <ele>482.5830078125</ele>
        <time>2009-07-11T13:18:55Z</time>
      </trkpt>
      <trkpt lat="44.96505" lon="5.27064">
        <ele>482.13299560547</ele>
        <time>2009-07-11T13:19:07Z</time>
      </trkpt>
      <trkpt lat="44.96505" lon="5.27064">
        <ele>482.11898803711</ele>
        <time>2009-07-11T13:19:19Z</time>
      </trkpt>
      <trkpt lat="44.96505" lon="5.27065">
        <ele>481.98699951172</ele>
        <time>2009-07-11T13:19:22Z</time>
      </trkpt>
      <trkpt lat="44.96508" lon="5.27069">
        <ele>482.25100708008</ele>
        <time>2009-07-11T13:19:37Z</time>
      </trkpt>
      <trkpt lat="44.96507" lon="5.2707">
        <ele>482.24700927734</ele>
        <time>2009-07-11T13:19:40Z</time>
      </trkpt>
      <trkpt lat="44.96507" lon="5.2707">
        <ele>482.17001342773</ele>
        <time>2009-07-11T13:19:42Z</time>
      </trkpt>
      <trkpt lat="44.96498" lon="5.27071">
        <ele>482.58700561523</ele>
        <time>2009-07-11T13:20:58Z</time>
      </trkpt>
      <trkpt lat="44.96494" lon="5.2707">
        <ele>482.68798828125</ele>
        <time>2009-07-11T13:21:02Z</time>
      </trkpt>
      <trkpt lat="44.96482" lon="5.27057">
        <ele>483.42999267578</ele>
        <time>2009-07-11T13:21:11Z</time>
      </trkpt>
      <trkpt lat="44.96451" lon="5.27042">
        <ele>486.15399169922</ele>
        <time>2009-07-11T13:21:23Z</time>
      </trkpt>
      <trkpt lat="44.96431" lon="5.27037">
        <ele>487.40701293945</ele>
        <time>2009-07-11T13:21:30Z</time>
      </trkpt>
      <trkpt lat="44.96404" lon="5.27033">
        <ele>489.27801513672</ele>
        <time>2009-07-11T13:21:38Z</time>
      </trkpt>
      <trkpt lat="44.96376" lon="5.27031">
        <ele>491.77398681641</ele>
        <time>2009-07-11T13:21:46Z</time>
      </trkpt>
      <trkpt lat="44.96358" lon="5.2703">
        <ele>492.99301147461</ele>
        <time>2009-07-11T13:21:51Z</time>
      </trkpt>
      <trkpt lat="44.96334" lon="5.27028">
        <ele>494.55700683594</ele>
        <time>2009-07-11T13:21:58Z</time>
      </trkpt>
      <trkpt lat="44.96291" lon="5.27026">
        <ele>495.68099975586</ele>
        <time>2009-07-11T13:22:09Z</time>
      </trkpt>
      <trkpt lat="44.96271" lon="5.27021">
        <ele>495.32501220703</ele>
        <time>2009-07-11T13:22:13Z</time>
      </trkpt>
      <trkpt lat="44.96249" lon="5.27002">
        <ele>496.61599731445</ele>
        <time>2009-07-11T13:22:18Z</time>
      </trkpt>
      <trkpt lat="44.96235" lon="5.26977">
        <ele>497.39300537109</ele>
        <time>2009-07-11T13:22:23Z</time>
      </trkpt>
      <trkpt lat="44.96219" lon="5.26952">
        <ele>498.08999633789</ele>
        <time>2009-07-11T13:22:28Z</time>
      </trkpt>
      <trkpt lat="44.96164" lon="5.26916">
        <ele>500.06201171875</ele>
        <time>2009-07-11T13:22:41Z</time>
      </trkpt>
      <trkpt lat="44.96103" lon="5.26941">
        <ele>503.42001342773</ele>
        <time>2009-07-11T13:22:56Z</time>
      </trkpt>
      <trkpt lat="44.96052" lon="5.26993">
        <ele>507.46899414062</ele>
        <time>2009-07-11T13:23:12Z</time>
      </trkpt>
      <trkpt lat="44.96037" lon="5.26989">
        <ele>508.27600097656</ele>
        <time>2009-07-11T13:23:16Z</time>
      </trkpt>
      <trkpt lat="44.96025" lon="5.26976">
        <ele>509.47100830078</ele>
        <time>2009-07-11T13:23:20Z</time>
      </trkpt>
      <trkpt lat="44.96016" lon="5.26966">
        <ele>510.61801147461</ele>
        <time>2009-07-11T13:23:23Z</time>
      </trkpt>
      <trkpt lat="44.95972" lon="5.26932">
        <ele>514.25897216797</ele>
        <time>2009-07-11T13:23:35Z</time>
      </trkpt>
      <trkpt lat="44.95952" lon="5.26931">
        <ele>515.18597412109</ele>
        <time>2009-07-11T13:23:40Z</time>
      </trkpt>
      <trkpt lat="44.95876" lon="5.2697">
        <ele>519.06597900391</ele>
        <time>2009-07-11T13:23:58Z</time>
      </trkpt>
      <trkpt lat="44.95787" lon="5.27024">
        <ele>522.80401611328</ele>
        <time>2009-07-11T13:24:19Z</time>
      </trkpt>
      <trkpt lat="44.95707" lon="5.27072">
        <ele>526.08801269531</ele>
        <time>2009-07-11T13:24:38Z</time>
      </trkpt>
      <trkpt lat="44.95694" lon="5.27077">
        <ele>526.59997558594</ele>
        <time>2009-07-11T13:24:41Z</time>
      </trkpt>
      <trkpt lat="44.95666" lon="5.27075">
        <ele>527.77197265625</ele>
        <time>2009-07-11T13:24:47Z</time>
      </trkpt>
      <trkpt lat="44.9558" lon="5.27039">
        <ele>531.40802001953</ele>
        <time>2009-07-11T13:25:06Z</time>
      </trkpt>
      <trkpt lat="44.9553" lon="5.27037">
        <ele>533.96398925781</ele>
        <time>2009-07-11T13:25:17Z</time>
      </trkpt>
      <trkpt lat="44.95513" lon="5.27004">
        <ele>535.91802978516</ele>
        <time>2009-07-11T13:25:25Z</time>
      </trkpt>
      <trkpt lat="44.95521" lon="5.26982">
        <ele>537.57897949219</ele>
        <time>2009-07-11T13:25:30Z</time>
      </trkpt>
      <trkpt lat="44.95552" lon="5.26921">
        <ele>542.02899169922</ele>
        <time>2009-07-11T13:25:45Z</time>
      </trkpt>
      <trkpt lat="44.95564" lon="5.26889">
        <ele>543.65997314453</ele>
        <time>2009-07-11T13:25:52Z</time>
      </trkpt>
      <trkpt lat="44.95567" lon="5.26874">
        <ele>544.23901367188</ele>
        <time>2009-07-11T13:25:55Z</time>
      </trkpt>
      <trkpt lat="44.95565" lon="5.26797">
        <ele>548.67199707031</ele>
        <time>2009-07-11T13:26:10Z</time>
      </trkpt>
      <trkpt lat="44.95548" lon="5.26748">
        <ele>551.92797851562</ele>
        <time>2009-07-11T13:26:22Z</time>
      </trkpt>
      <trkpt lat="44.95522" lon="5.26678">
        <ele>556.21197509766</ele>
        <time>2009-07-11T13:26:39Z</time>
      </trkpt>
      <trkpt lat="44.95499" lon="5.26607">
        <ele>560.25897216797</ele>
        <time>2009-07-11T13:26:57Z</time>
      </trkpt>
      <trkpt lat="44.95487" lon="5.26546">
        <ele>563.81701660156</ele>
        <time>2009-07-11T13:27:10Z</time>
      </trkpt>
      <trkpt lat="44.95461" lon="5.26489">
        <ele>568.29901123047</ele>
        <time>2009-07-11T13:27:25Z</time>
      </trkpt>
      <trkpt lat="44.95424" lon="5.26441">
        <ele>572.43597412109</ele>
        <time>2009-07-11T13:27:40Z</time>
      </trkpt>
      <trkpt lat="44.95413" lon="5.26429">
        <ele>573.58801269531</ele>
        <time>2009-07-11T13:27:45Z</time>
      </trkpt>
      <trkpt lat="44.95404" lon="5.26446">
        <ele>575.43103027344</ele>
        <time>2009-07-11T13:27:52Z</time>
      </trkpt>
      <trkpt lat="44.95424" lon="5.26502">
        <ele>578.42700195312</ele>
        <time>2009-07-11T13:28:06Z</time>
      </trkpt>
      <trkpt lat="44.95425" lon="5.26563">
        <ele>580.61602783203</ele>
        <time>2009-07-11T13:28:18Z</time>
      </trkpt>
      <trkpt lat="44.95412" lon="5.2662">
        <ele>584.17999267578</ele>
        <time>2009-07-11T13:28:31Z</time>
      </trkpt>
      <trkpt lat="44.95412" lon="5.26667">
        <ele>587.15301513672</ele>
        <time>2009-07-11T13:28:39Z</time>
      </trkpt>
      <trkpt lat="44.95415" lon="5.2669">
        <ele>588.28900146484</ele>
        <time>2009-07-11T13:28:43Z</time>
      </trkpt>
      <trkpt lat="44.95417" lon="5.26707">
        <ele>588.96697998047</ele>
        <time>2009-07-11T13:28:46Z</time>
      </trkpt>
      <trkpt lat="44.95406" lon="5.26767">
        <ele>593.08599853516</ele>
        <time>2009-07-11T13:28:59Z</time>
      </trkpt>
      <trkpt lat="44.95355" lon="5.26806">
        <ele>597.79699707031</ele>
        <time>2009-07-11T13:29:14Z</time>
      </trkpt>
      <trkpt lat="44.95334" lon="5.26827">
        <ele>600.02697753906</ele>
        <time>2009-07-11T13:29:21Z</time>
      </trkpt>
      <trkpt lat="44.95312" lon="5.26873">
        <ele>603.96002197266</ele>
        <time>2009-07-11T13:29:34Z</time>
      </trkpt>
      <trkpt lat="44.95291" lon="5.26916">
        <ele>606.72302246094</ele>
        <time>2009-07-11T13:29:46Z</time>
      </trkpt>
      <trkpt lat="44.9526" lon="5.26968">
        <ele>610.92700195312</ele>
        <time>2009-07-11T13:30:01Z</time>
      </trkpt>
      <trkpt lat="44.95247" lon="5.26966">
        <ele>613.23400878906</ele>
        <time>2009-07-11T13:30:07Z</time>
      </trkpt>
      <trkpt lat="44.9525" lon="5.26947">
        <ele>614.19097900391</ele>
        <time>2009-07-11T13:30:13Z</time>
      </trkpt>
      <trkpt lat="44.95267" lon="5.26883">
        <ele>617.18499755859</ele>
        <time>2009-07-11T13:30:29Z</time>
      </trkpt>
      <trkpt lat="44.95271" lon="5.26834">
        <ele>620.90100097656</ele>
        <time>2009-07-11T13:30:42Z</time>
      </trkpt>
      <trkpt lat="44.95265" lon="5.26789">
        <ele>623.30700683594</ele>
        <time>2009-07-11T13:30:54Z</time>
      </trkpt>
      <trkpt lat="44.95254" lon="5.2674">
        <ele>626.85998535156</ele>
        <time>2009-07-11T13:31:06Z</time>
      </trkpt>
      <trkpt lat="44.95238" lon="5.26685">
        <ele>629.54699707031</ele>
        <time>2009-07-11T13:31:17Z</time>
      </trkpt>
      <trkpt lat="44.95232" lon="5.26666">
        <ele>631.16101074219</ele>
        <time>2009-07-11T13:31:21Z</time>
      </trkpt>
      <trkpt lat="44.95218" lon="5.26616">
        <ele>634.08898925781</ele>
        <time>2009-07-11T13:31:33Z</time>
      </trkpt>
      <trkpt lat="44.95206" lon="5.26569">
        <ele>636.67901611328</ele>
        <time>2009-07-11T13:31:45Z</time>
      </trkpt>
      <trkpt lat="44.95193" lon="5.26481">
        <ele>641.71899414062</ele>
        <time>2009-07-11T13:32:06Z</time>
      </trkpt>
      <trkpt lat="44.95182" lon="5.26403">
        <ele>646.07299804688</ele>
        <time>2009-07-11T13:32:25Z</time>
      </trkpt>
      <trkpt lat="44.95153" lon="5.26327">
        <ele>650.89202880859</ele>
        <time>2009-07-11T13:32:42Z</time>
      </trkpt>
      <trkpt lat="44.95144" lon="5.26306">
        <ele>652.75299072266</ele>
        <time>2009-07-11T13:32:47Z</time>
      </trkpt>
      <trkpt lat="44.95124" lon="5.26271">
        <ele>655.30798339844</ele>
        <time>2009-07-11T13:32:56Z</time>
      </trkpt>
      <trkpt lat="44.95114" lon="5.263">
        <ele>657.65600585938</ele>
        <time>2009-07-11T13:33:04Z</time>
      </trkpt>
      <trkpt lat="44.95115" lon="5.26304">
        <ele>657.94897460938</ele>
        <time>2009-07-11T13:33:05Z</time>
      </trkpt>
      <trkpt lat="44.95123" lon="5.26355">
        <ele>659.99798583984</ele>
        <time>2009-07-11T13:33:15Z</time>
      </trkpt>
      <trkpt lat="44.95118" lon="5.26381">
        <ele>661.31597900391</ele>
        <time>2009-07-11T13:33:20Z</time>
      </trkpt>
      <trkpt lat="44.95104" lon="5.2645">
        <ele>664.51397705078</ele>
        <time>2009-07-11T13:33:34Z</time>
      </trkpt>
      <trkpt lat="44.95094" lon="5.26498">
        <ele>667.47900390625</ele>
        <time>2009-07-11T13:33:46Z</time>
      </trkpt>
      <trkpt lat="44.95104" lon="5.26552">
        <ele>670.11700439453</ele>
        <time>2009-07-11T13:33:58Z</time>
      </trkpt>
      <trkpt lat="44.95112" lon="5.26598">
        <ele>672.67700195312</ele>
        <time>2009-07-11T13:34:10Z</time>
      </trkpt>
      <trkpt lat="44.95087" lon="5.26617">
        <ele>675.17498779297</ele>
        <time>2009-07-11T13:34:22Z</time>
      </trkpt>
      <trkpt lat="44.95045" lon="5.26632">
        <ele>678.34899902344</ele>
        <time>2009-07-11T13:34:36Z</time>
      </trkpt>
      <trkpt lat="44.95046" lon="5.26675">
        <ele>681.03698730469</ele>
        <time>2009-07-11T13:34:46Z</time>
      </trkpt>
      <trkpt lat="44.95066" lon="5.26733">
        <ele>683.91400146484</ele>
        <time>2009-07-11T13:34:59Z</time>
      </trkpt>
      <trkpt lat="44.95085" lon="5.26795">
        <ele>687.42297363281</ele>
        <time>2009-07-11T13:35:13Z</time>
      </trkpt>
      <trkpt lat="44.95082" lon="5.26843">
        <ele>691.48199462891</ele>
        <time>2009-07-11T13:35:25Z</time>
      </trkpt>
      <trkpt lat="44.95042" lon="5.26849">
        <ele>694.60198974609</ele>
        <time>2009-07-11T13:35:38Z</time>
      </trkpt>
      <trkpt lat="44.94989" lon="5.26863">
        <ele>698.03002929688</ele>
        <time>2009-07-11T13:35:53Z</time>
      </trkpt>
      <trkpt lat="44.94954" lon="5.26892">
        <ele>701.8330078125</ele>
        <time>2009-07-11T13:36:06Z</time>
      </trkpt>
      <trkpt lat="44.94921" lon="5.26919">
        <ele>706.51300048828</ele>
        <time>2009-07-11T13:36:22Z</time>
      </trkpt>
      <trkpt lat="44.94883" lon="5.26924">
        <ele>711.41101074219</ele>
        <time>2009-07-11T13:36:38Z</time>
      </trkpt>
      <trkpt lat="44.94851" lon="5.26921">
        <ele>710.43298339844</ele>
        <time>2009-07-11T13:36:49Z</time>
      </trkpt>
      <trkpt lat="44.94843" lon="5.26925">
        <ele>710.32098388672</ele>
        <time>2009-07-11T13:36:51Z</time>
      </trkpt>
      <trkpt lat="44.94835" lon="5.2693">
        <ele>710.2919921875</ele>
        <time>2009-07-11T13:36:53Z</time>
      </trkpt>
      <trkpt lat="44.94784" lon="5.26952">
        <ele>707.05297851562</ele>
        <time>2009-07-11T13:37:02Z</time>
      </trkpt>
      <trkpt lat="44.94755" lon="5.26957">
        <ele>705.36297607422</ele>
        <time>2009-07-11T13:37:06Z</time>
      </trkpt>
      <trkpt lat="44.94735" lon="5.26994">
        <ele>703.02899169922</ele>
        <time>2009-07-11T13:37:11Z</time>
      </trkpt>
      <trkpt lat="44.9472" lon="5.27037">
        <ele>700.64898681641</ele>
        <time>2009-07-11T13:37:16Z</time>
      </trkpt>
      <trkpt lat="44.94706" lon="5.27027">
        <ele>699.52697753906</ele>
        <time>2009-07-11T13:37:18Z</time>
      </trkpt>
      <trkpt lat="44.94661" lon="5.26995">
        <ele>696.99401855469</ele>
        <time>2009-07-11T13:37:24Z</time>
      </trkpt>
      <trkpt lat="44.94653" lon="5.2699">
        <ele>696.64398193359</ele>
        <time>2009-07-11T13:37:25Z</time>
      </trkpt>
      <trkpt lat="44.94626" lon="5.26988">
        <ele>695.62799072266</ele>
        <time>2009-07-11T13:37:28Z</time>
      </trkpt>
      <trkpt lat="44.94597" lon="5.27019">
        <ele>693.17700195312</ele>
        <time>2009-07-11T13:37:32Z</time>
      </trkpt>
      <trkpt lat="44.94561" lon="5.27018">
        <ele>690.53900146484</ele>
        <time>2009-07-11T13:37:38Z</time>
      </trkpt>
      <trkpt lat="44.94561" lon="5.26995">
        <ele>689.33502197266</ele>
        <time>2009-07-11T13:37:40Z</time>
      </trkpt>
      <trkpt lat="44.9456" lon="5.2697">
        <ele>688.60101318359</ele>
        <time>2009-07-11T13:37:42Z</time>
      </trkpt>
      <trkpt lat="44.94519" lon="5.26897">
        <ele>685.53997802734</ele>
        <time>2009-07-11T13:37:49Z</time>
      </trkpt>
      <trkpt lat="44.9447" lon="5.26904">
        <ele>683.13397216797</ele>
        <time>2009-07-11T13:37:54Z</time>
      </trkpt>
      <trkpt lat="44.94412" lon="5.26936">
        <ele>679.77801513672</ele>
        <time>2009-07-11T13:38:00Z</time>
      </trkpt>
      <trkpt lat="44.94386" lon="5.26967">
        <ele>677.94598388672</ele>
        <time>2009-07-11T13:38:03Z</time>
      </trkpt>
      <trkpt lat="44.94347" lon="5.26998">
        <ele>675.6240234375</ele>
        <time>2009-07-11T13:38:07Z</time>
      </trkpt>
      <trkpt lat="44.94307" lon="5.26989">
        <ele>674.18902587891</ele>
        <time>2009-07-11T13:38:11Z</time>
      </trkpt>
      <trkpt lat="44.94299" lon="5.26979">
        <ele>673.65698242188</ele>
        <time>2009-07-11T13:38:12Z</time>
      </trkpt>
      <trkpt lat="44.9425" lon="5.26912">
        <ele>669.44598388672</ele>
        <time>2009-07-11T13:38:19Z</time>
      </trkpt>
      <trkpt lat="44.94218" lon="5.26855">
        <ele>667.30102539062</ele>
        <time>2009-07-11T13:38:24Z</time>
      </trkpt>
      <trkpt lat="44.94196" lon="5.26844">
        <ele>666.46899414062</ele>
        <time>2009-07-11T13:38:26Z</time>
      </trkpt>
      <trkpt lat="44.94175" lon="5.26833">
        <ele>665.23400878906</ele>
        <time>2009-07-11T13:38:28Z</time>
      </trkpt>
      <trkpt lat="44.94118" lon="5.2682">
        <ele>663.65301513672</ele>
        <time>2009-07-11T13:38:34Z</time>
      </trkpt>
      <trkpt lat="44.94062" lon="5.26838">
        <ele>661.12200927734</ele>
        <time>2009-07-11T13:38:40Z</time>
      </trkpt>
      <trkpt lat="44.94012" lon="5.26818">
        <ele>658.52001953125</ele>
        <time>2009-07-11T13:38:45Z</time>
      </trkpt>
      <trkpt lat="44.93962" lon="5.26795">
        <ele>655.72497558594</ele>
        <time>2009-07-11T13:38:50Z</time>
      </trkpt>
      <trkpt lat="44.93913" lon="5.26774">
        <ele>653.96801757812</ele>
        <time>2009-07-11T13:38:55Z</time>
      </trkpt>
      <trkpt lat="44.93882" lon="5.26765">
        <ele>652.48101806641</ele>
        <time>2009-07-11T13:38:58Z</time>
      </trkpt>
      <trkpt lat="44.93851" lon="5.26725">
        <ele>649.45501708984</ele>
        <time>2009-07-11T13:39:02Z</time>
      </trkpt>
      <trkpt lat="44.93835" lon="5.26685">
        <ele>648.12097167969</ele>
        <time>2009-07-11T13:39:05Z</time>
      </trkpt>
      <trkpt lat="44.93823" lon="5.26626">
        <ele>645.66497802734</ele>
        <time>2009-07-11T13:39:09Z</time>
      </trkpt>
      <trkpt lat="44.9378" lon="5.26525">
        <ele>643.40698242188</ele>
        <time>2009-07-11T13:39:17Z</time>
      </trkpt>
      <trkpt lat="44.93769" lon="5.2652">
        <ele>643.21899414062</ele>
        <time>2009-07-11T13:39:18Z</time>
      </trkpt>
      <trkpt lat="44.93698" lon="5.26528">
        <ele>639.77600097656</ele>
        <time>2009-07-11T13:39:25Z</time>
      </trkpt>
      <trkpt lat="44.93677" lon="5.26566">
        <ele>637.23797607422</ele>
        <time>2009-07-11T13:39:28Z</time>
      </trkpt>
      <trkpt lat="44.93652" lon="5.26599">
        <ele>635.42199707031</ele>
        <time>2009-07-11T13:39:31Z</time>
      </trkpt>
      <trkpt lat="44.93628" lon="5.26632">
        <ele>634.20501708984</ele>
        <time>2009-07-11T13:39:34Z</time>
      </trkpt>
      <trkpt lat="44.93593" lon="5.26638">
        <ele>631.63702392578</ele>
        <time>2009-07-11T13:39:38Z</time>
      </trkpt>
      <trkpt lat="44.93561" lon="5.2661">
        <ele>630.09002685547</ele>
        <time>2009-07-11T13:39:42Z</time>
      </trkpt>
      <trkpt lat="44.93514" lon="5.26634">
        <ele>627.65899658203</ele>
        <time>2009-07-11T13:39:47Z</time>
      </trkpt>
      <trkpt lat="44.93482" lon="5.26627">
        <ele>625.66101074219</ele>
        <time>2009-07-11T13:39:50Z</time>
      </trkpt>
      <trkpt lat="44.93461" lon="5.26628">
        <ele>624.34100341797</ele>
        <time>2009-07-11T13:39:52Z</time>
      </trkpt>
      <trkpt lat="44.9342" lon="5.26638">
        <ele>621.70501708984</ele>
        <time>2009-07-11T13:39:56Z</time>
      </trkpt>
      <trkpt lat="44.9337" lon="5.26639">
        <ele>620.15301513672</ele>
        <time>2009-07-11T13:40:01Z</time>
      </trkpt>
      <trkpt lat="44.93328" lon="5.26654">
        <ele>617.69702148438</ele>
        <time>2009-07-11T13:40:05Z</time>
      </trkpt>
      <trkpt lat="44.93308" lon="5.26664">
        <ele>616.47497558594</ele>
        <time>2009-07-11T13:40:07Z</time>
      </trkpt>
      <trkpt lat="44.93267" lon="5.2669">
        <ele>614.416015625</ele>
        <time>2009-07-11T13:40:11Z</time>
      </trkpt>
      <trkpt lat="44.93218" lon="5.26673">
        <ele>610.72198486328</ele>
        <time>2009-07-11T13:40:16Z</time>
      </trkpt>
      <trkpt lat="44.93208" lon="5.26667">
        <ele>610.41998291016</ele>
        <time>2009-07-11T13:40:17Z</time>
      </trkpt>
      <trkpt lat="44.93197" lon="5.26664">
        <ele>609.70300292969</ele>
        <time>2009-07-11T13:40:18Z</time>
      </trkpt>
      <trkpt lat="44.93164" lon="5.26655">
        <ele>607.80999755859</ele>
        <time>2009-07-11T13:40:21Z</time>
      </trkpt>
      <trkpt lat="44.93154" lon="5.26652">
        <ele>607.30700683594</ele>
        <time>2009-07-11T13:40:22Z</time>
      </trkpt>
      <trkpt lat="44.93113" lon="5.26625">
        <ele>605.95300292969</ele>
        <time>2009-07-11T13:40:26Z</time>
      </trkpt>
      <trkpt lat="44.93057" lon="5.26616">
        <ele>602.93499755859</ele>
        <time>2009-07-11T13:40:31Z</time>
      </trkpt>
      <trkpt lat="44.92957" lon="5.26593">
        <ele>598.07897949219</ele>
        <time>2009-07-11T13:40:40Z</time>
      </trkpt>
      <trkpt lat="44.9283" lon="5.26576">
        <ele>592.18798828125</ele>
        <time>2009-07-11T13:40:51Z</time>
      </trkpt>
      <trkpt lat="44.92735" lon="5.26603">
        <ele>586.4580078125</ele>
        <time>2009-07-11T13:40:59Z</time>
      </trkpt>
      <trkpt lat="44.92614" lon="5.26609">
        <ele>580.46301269531</ele>
        <time>2009-07-11T13:41:09Z</time>
      </trkpt>
      <trkpt lat="44.92496" lon="5.26643">
        <ele>575.66198730469</ele>
        <time>2009-07-11T13:41:19Z</time>
      </trkpt>
      <trkpt lat="44.92484" lon="5.26647">
        <ele>575.55700683594</ele>
        <time>2009-07-11T13:41:20Z</time>
      </trkpt>
      <trkpt lat="44.92449" lon="5.26657">
        <ele>574.51000976562</ele>
        <time>2009-07-11T13:41:23Z</time>
      </trkpt>
      <trkpt lat="44.92384" lon="5.26645">
        <ele>573.72198486328</ele>
        <time>2009-07-11T13:41:29Z</time>
      </trkpt>
      <trkpt lat="44.92352" lon="5.26624">
        <ele>574.10198974609</ele>
        <time>2009-07-11T13:41:33Z</time>
      </trkpt>
      <trkpt lat="44.92301" lon="5.26572">
        <ele>575.23297119141</ele>
        <time>2009-07-11T13:41:41Z</time>
      </trkpt>
      <trkpt lat="44.92276" lon="5.26542">
        <ele>575.67401123047</ele>
        <time>2009-07-11T13:41:45Z</time>
      </trkpt>
      <trkpt lat="44.92258" lon="5.26519">
        <ele>575.76000976562</ele>
        <time>2009-07-11T13:41:48Z</time>
      </trkpt>
      <trkpt lat="44.92239" lon="5.265">
        <ele>576.18701171875</ele>
        <time>2009-07-11T13:41:51Z</time>
      </trkpt>
      <trkpt lat="44.9216" lon="5.26443">
        <ele>578.22302246094</ele>
        <time>2009-07-11T13:42:04Z</time>
      </trkpt>
      <trkpt lat="44.9208" lon="5.26386">
        <ele>581.29302978516</ele>
        <time>2009-07-11T13:42:20Z</time>
      </trkpt>
      <trkpt lat="44.92054" lon="5.26367">
        <ele>582.51702880859</ele>
        <time>2009-07-11T13:42:27Z</time>
      </trkpt>
      <trkpt lat="44.92019" lon="5.26378">
        <ele>583.14898681641</ele>
        <time>2009-07-11T13:42:34Z</time>
      </trkpt>
      <trkpt lat="44.91991" lon="5.2637">
        <ele>582.82897949219</ele>
        <time>2009-07-11T13:42:39Z</time>
      </trkpt>
      <trkpt lat="44.91975" lon="5.26357">
        <ele>582.80700683594</ele>
        <time>2009-07-11T13:42:42Z</time>
      </trkpt>
      <trkpt lat="44.91918" lon="5.26338">
        <ele>583.78302001953</ele>
        <time>2009-07-11T13:42:51Z</time>
      </trkpt>
      <trkpt lat="44.91905" lon="5.26329">
        <ele>583.68597412109</ele>
        <time>2009-07-11T13:42:53Z</time>
      </trkpt>
      <trkpt lat="44.91888" lon="5.26312">
        <ele>584.03900146484</ele>
        <time>2009-07-11T13:42:56Z</time>
      </trkpt>
      <trkpt lat="44.91852" lon="5.26297">
        <ele>585.14398193359</ele>
        <time>2009-07-11T13:43:02Z</time>
      </trkpt>
      <trkpt lat="44.91843" lon="5.26295">
        <ele>586.27099609375</ele>
        <time>2009-07-11T13:43:05Z</time>
      </trkpt>
      <trkpt lat="44.91815" lon="5.26296">
        <ele>586.74798583984</ele>
        <time>2009-07-11T13:43:22Z</time>
      </trkpt>
      <trkpt lat="44.9177" lon="5.26282">
        <ele>591.05798339844</ele>
        <time>2009-07-11T13:43:36Z</time>
      </trkpt>
      <trkpt lat="44.91738" lon="5.26241">
        <ele>593.36297607422</ele>
        <time>2009-07-11T13:43:49Z</time>
      </trkpt>
      <trkpt lat="44.91729" lon="5.26226">
        <ele>593.14801025391</ele>
        <time>2009-07-11T13:43:52Z</time>
      </trkpt>
      <trkpt lat="44.91694" lon="5.26182">
        <ele>591.61199951172</ele>
        <time>2009-07-11T13:44:00Z</time>
      </trkpt>
      <trkpt lat="44.91673" lon="5.26165">
        <ele>591.46002197266</ele>
        <time>2009-07-11T13:44:04Z</time>
      </trkpt>
      <trkpt lat="44.91604" lon="5.26132">
        <ele>593.94299316406</ele>
        <time>2009-07-11T13:44:18Z</time>
      </trkpt>
      <trkpt lat="44.91539" lon="5.26104">
        <ele>596.65899658203</ele>
        <time>2009-07-11T13:44:33Z</time>
      </trkpt>
      <trkpt lat="44.91467" lon="5.26065">
        <ele>599.67602539062</ele>
        <time>2009-07-11T13:44:50Z</time>
      </trkpt>
      <trkpt lat="44.91463" lon="5.26063">
        <ele>600.00598144531</ele>
        <time>2009-07-11T13:44:51Z</time>
      </trkpt>
      <trkpt lat="44.91455" lon="5.2606">
        <ele>600.62200927734</ele>
        <time>2009-07-11T13:44:53Z</time>
      </trkpt>
      <trkpt lat="44.91447" lon="5.26056">
        <ele>601.01501464844</ele>
        <time>2009-07-11T13:44:55Z</time>
      </trkpt>
      <trkpt lat="44.91415" lon="5.26031">
        <ele>604.88702392578</ele>
        <time>2009-07-11T13:45:08Z</time>
      </trkpt>
      <trkpt lat="44.91392" lon="5.26011">
        <ele>607.87298583984</ele>
        <time>2009-07-11T13:45:22Z</time>
      </trkpt>
      <trkpt lat="44.91358" lon="5.25979">
        <ele>612.6259765625</ele>
        <time>2009-07-11T13:45:41Z</time>
      </trkpt>
      <trkpt lat="44.91336" lon="5.25939">
        <ele>616.57299804688</ele>
        <time>2009-07-11T13:45:57Z</time>
      </trkpt>
      <trkpt lat="44.91331" lon="5.25887">
        <ele>620.45599365234</ele>
        <time>2009-07-11T13:46:13Z</time>
      </trkpt>
      <trkpt lat="44.91347" lon="5.25844">
        <ele>624.26599121094</ele>
        <time>2009-07-11T13:46:28Z</time>
      </trkpt>
      <trkpt lat="44.91372" lon="5.25809">
        <ele>628.84600830078</ele>
        <time>2009-07-11T13:46:44Z</time>
      </trkpt>
      <trkpt lat="44.91394" lon="5.25768">
        <ele>632.22698974609</ele>
        <time>2009-07-11T13:46:59Z</time>
      </trkpt>
      <trkpt lat="44.91412" lon="5.25718">
        <ele>636.67602539062</ele>
        <time>2009-07-11T13:47:16Z</time>
      </trkpt>
      <trkpt lat="44.91425" lon="5.2567">
        <ele>640.58898925781</ele>
        <time>2009-07-11T13:47:32Z</time>
      </trkpt>
      <trkpt lat="44.91442" lon="5.25633">
        <ele>644.10498046875</ele>
        <time>2009-07-11T13:47:47Z</time>
      </trkpt>
      <trkpt lat="44.91455" lon="5.25596">
        <ele>647.49200439453</ele>
        <time>2009-07-11T13:48:02Z</time>
      </trkpt>
      <trkpt lat="44.91462" lon="5.25543">
        <ele>651.54602050781</ele>
        <time>2009-07-11T13:48:20Z</time>
      </trkpt>
      <trkpt lat="44.91463" lon="5.25509">
        <ele>654.05603027344</ele>
        <time>2009-07-11T13:48:32Z</time>
      </trkpt>
      <trkpt lat="44.91463" lon="5.25475">
        <ele>656.48400878906</ele>
        <time>2009-07-11T13:48:44Z</time>
      </trkpt>
      <trkpt lat="44.91453" lon="5.25429">
        <ele>659.57202148438</ele>
        <time>2009-07-11T13:48:59Z</time>
      </trkpt>
      <trkpt lat="44.91442" lon="5.2539">
        <ele>662.84002685547</ele>
        <time>2009-07-11T13:49:12Z</time>
      </trkpt>
      <trkpt lat="44.91438" lon="5.25376">
        <ele>664.31799316406</ele>
        <time>2009-07-11T13:49:17Z</time>
      </trkpt>
      <trkpt lat="44.91437" lon="5.25375">
        <ele>664.33898925781</ele>
        <time>2009-07-11T13:49:20Z</time>
      </trkpt>
      <trkpt lat="44.91436" lon="5.2538">
        <ele>663.99298095703</ele>
        <time>2009-07-11T13:49:31Z</time>
      </trkpt>
      <trkpt lat="44.91437" lon="5.25382">
        <ele>663.88098144531</ele>
        <time>2009-07-11T13:49:32Z</time>
      </trkpt>
      <trkpt lat="44.91448" lon="5.25414">
        <ele>660.90997314453</ele>
        <time>2009-07-11T13:49:39Z</time>
      </trkpt>
      <trkpt lat="44.91456" lon="5.25442">
        <ele>658.27600097656</ele>
        <time>2009-07-11T13:49:42Z</time>
      </trkpt>
      <trkpt lat="44.91463" lon="5.25492">
        <ele>654.333984375</ele>
        <time>2009-07-11T13:49:46Z</time>
      </trkpt>
      <trkpt lat="44.91463" lon="5.25555">
        <ele>649.13598632812</ele>
        <time>2009-07-11T13:49:50Z</time>
      </trkpt>
      <trkpt lat="44.91462" lon="5.25572">
        <ele>647.52099609375</ele>
        <time>2009-07-11T13:49:51Z</time>
      </trkpt>
      <trkpt lat="44.91426" lon="5.2568">
        <ele>639.41998291016</ele>
        <time>2009-07-11T13:49:58Z</time>
      </trkpt>
      <trkpt lat="44.91416" lon="5.25714">
        <ele>639.38598632812</ele>
        <time>2009-07-11T13:50:00Z</time>
      </trkpt>
      <trkpt lat="44.91387" lon="5.25781">
        <ele>629.34497070312</ele>
        <time>2009-07-11T13:50:04Z</time>
      </trkpt>
      <trkpt lat="44.91348" lon="5.25838">
        <ele>623.81597900391</ele>
        <time>2009-07-11T13:50:08Z</time>
      </trkpt>
      <trkpt lat="44.91339" lon="5.2585">
        <ele>623.0830078125</ele>
        <time>2009-07-11T13:50:09Z</time>
      </trkpt>
      <trkpt lat="44.91333" lon="5.25941">
        <ele>615.96002197266</ele>
        <time>2009-07-11T13:50:15Z</time>
      </trkpt>
      <trkpt lat="44.91362" lon="5.2599">
        <ele>610.41302490234</ele>
        <time>2009-07-11T13:50:19Z</time>
      </trkpt>
      <trkpt lat="44.91443" lon="5.26057">
        <ele>598.70300292969</ele>
        <time>2009-07-11T13:50:26Z</time>
      </trkpt>
      <trkpt lat="44.91521" lon="5.26095">
        <ele>595.79400634766</ele>
        <time>2009-07-11T13:50:32Z</time>
      </trkpt>
      <trkpt lat="44.91589" lon="5.26126">
        <ele>592.53100585938</ele>
        <time>2009-07-11T13:50:38Z</time>
      </trkpt>
      <trkpt lat="44.91693" lon="5.26178">
        <ele>591.48602294922</ele>
        <time>2009-07-11T13:50:49Z</time>
      </trkpt>
      <trkpt lat="44.91745" lon="5.26243">
        <ele>593.27398681641</ele>
        <time>2009-07-11T13:50:58Z</time>
      </trkpt>
      <trkpt lat="44.91756" lon="5.26262">
        <ele>593.38800048828</ele>
        <time>2009-07-11T13:51:01Z</time>
      </trkpt>
      <trkpt lat="44.91764" lon="5.26274">
        <ele>592.82202148438</ele>
        <time>2009-07-11T13:51:03Z</time>
      </trkpt>
      <trkpt lat="44.91806" lon="5.26297">
        <ele>588.44500732422</ele>
        <time>2009-07-11T13:51:09Z</time>
      </trkpt>
      <trkpt lat="44.91836" lon="5.26299">
        <ele>586.34197998047</ele>
        <time>2009-07-11T13:51:12Z</time>
      </trkpt>
      <trkpt lat="44.91874" lon="5.26305">
        <ele>585.42901611328</ele>
        <time>2009-07-11T13:51:16Z</time>
      </trkpt>
      <trkpt lat="44.91908" lon="5.26329">
        <ele>583.12298583984</ele>
        <time>2009-07-11T13:51:20Z</time>
      </trkpt>
      <trkpt lat="44.91948" lon="5.26346">
        <ele>583.18798828125</ele>
        <time>2009-07-11T13:51:25Z</time>
      </trkpt>
      <trkpt lat="44.91987" lon="5.26358">
        <ele>582.75201416016</ele>
        <time>2009-07-11T13:51:30Z</time>
      </trkpt>
      <trkpt lat="44.91999" lon="5.26369">
        <ele>582.60101318359</ele>
        <time>2009-07-11T13:51:32Z</time>
      </trkpt>
      <trkpt lat="44.92033" lon="5.26377">
        <ele>582.86999511719</ele>
        <time>2009-07-11T13:51:37Z</time>
      </trkpt>
      <trkpt lat="44.9208" lon="5.26381">
        <ele>582.00701904297</ele>
        <time>2009-07-11T13:51:44Z</time>
      </trkpt>
      <trkpt lat="44.92188" lon="5.26462">
        <ele>577.39801025391</ele>
        <time>2009-07-11T13:51:59Z</time>
      </trkpt>
      <trkpt lat="44.9228" lon="5.26541">
        <ele>575.23101806641</ele>
        <time>2009-07-11T13:52:12Z</time>
      </trkpt>
      <trkpt lat="44.92359" lon="5.26632">
        <ele>576.27502441406</ele>
        <time>2009-07-11T13:52:26Z</time>
      </trkpt>
      <trkpt lat="44.92427" lon="5.26664">
        <ele>575.44396972656</ele>
        <time>2009-07-11T13:52:35Z</time>
      </trkpt>
      <trkpt lat="44.92458" lon="5.26663">
        <ele>575.37902832031</ele>
        <time>2009-07-11T13:52:39Z</time>
      </trkpt>
      <trkpt lat="44.92509" lon="5.26647">
        <ele>578.10601806641</ele>
        <time>2009-07-11T13:52:47Z</time>
      </trkpt>
      <trkpt lat="44.92577" lon="5.26627">
        <ele>580.50402832031</ele>
        <time>2009-07-11T13:52:59Z</time>
      </trkpt>
      <trkpt lat="44.92625" lon="5.26615">
        <ele>582.57098388672</ele>
        <time>2009-07-11T13:53:08Z</time>
      </trkpt>
      <trkpt lat="44.92697" lon="5.26612">
        <ele>586.84197998047</ele>
        <time>2009-07-11T13:53:22Z</time>
      </trkpt>
      <trkpt lat="44.92702" lon="5.26612">
        <ele>586.90100097656</ele>
        <time>2009-07-11T13:53:23Z</time>
      </trkpt>
      <trkpt lat="44.92781" lon="5.26602">
        <ele>591.25201416016</ele>
        <time>2009-07-11T13:53:41Z</time>
      </trkpt>
      <trkpt lat="44.92822" lon="5.26588">
        <ele>593.40802001953</ele>
        <time>2009-07-11T13:53:51Z</time>
      </trkpt>
      <trkpt lat="44.92886" lon="5.26574">
        <ele>595.89697265625</ele>
        <time>2009-07-11T13:54:06Z</time>
      </trkpt>
      <trkpt lat="44.92949" lon="5.2659">
        <ele>599.43798828125</ele>
        <time>2009-07-11T13:54:21Z</time>
      </trkpt>
      <trkpt lat="44.93036" lon="5.2662">
        <ele>604.51501464844</ele>
        <time>2009-07-11T13:54:42Z</time>
      </trkpt>
      <trkpt lat="44.93077" lon="5.26623">
        <ele>606.33697509766</ele>
        <time>2009-07-11T13:54:52Z</time>
      </trkpt>
      <trkpt lat="44.93085" lon="5.26625">
        <ele>606.89099121094</ele>
        <time>2009-07-11T13:54:54Z</time>
      </trkpt>
      <trkpt lat="44.93137" lon="5.26647">
        <ele>609.87097167969</ele>
        <time>2009-07-11T13:55:07Z</time>
      </trkpt>
      <trkpt lat="44.93149" lon="5.26654">
        <ele>610.25598144531</ele>
        <time>2009-07-11T13:55:10Z</time>
      </trkpt>
      <trkpt lat="44.93207" lon="5.2667">
        <ele>613.09497070312</ele>
        <time>2009-07-11T13:55:24Z</time>
      </trkpt>
      <trkpt lat="44.93246" lon="5.26697">
        <ele>616.36499023438</ele>
        <time>2009-07-11T13:55:36Z</time>
      </trkpt>
      <trkpt lat="44.93258" lon="5.26696">
        <ele>616.77197265625</ele>
        <time>2009-07-11T13:55:39Z</time>
      </trkpt>
      <trkpt lat="44.933" lon="5.26672">
        <ele>619.44000244141</ele>
        <time>2009-07-11T13:55:51Z</time>
      </trkpt>
      <trkpt lat="44.93332" lon="5.26656">
        <ele>621.28399658203</ele>
        <time>2009-07-11T13:55:59Z</time>
      </trkpt>
      <trkpt lat="44.93349" lon="5.26653">
        <ele>622.23901367188</ele>
        <time>2009-07-11T13:56:03Z</time>
      </trkpt>
      <trkpt lat="44.93401" lon="5.26631">
        <ele>625.03100585938</ele>
        <time>2009-07-11T13:56:17Z</time>
      </trkpt>
      <trkpt lat="44.93433" lon="5.26642">
        <ele>625.90698242188</ele>
        <time>2009-07-11T13:56:27Z</time>
      </trkpt>
      <trkpt lat="44.93441" lon="5.26643">
        <ele>626.48400878906</ele>
        <time>2009-07-11T13:56:29Z</time>
      </trkpt>
      <trkpt lat="44.93463" lon="5.26632">
        <ele>627.43701171875</ele>
        <time>2009-07-11T13:56:35Z</time>
      </trkpt>
      <trkpt lat="44.93508" lon="5.26631">
        <ele>630.55603027344</ele>
        <time>2009-07-11T13:56:48Z</time>
      </trkpt>
      <trkpt lat="44.93557" lon="5.26617">
        <ele>633.33099365234</ele>
        <time>2009-07-11T13:57:02Z</time>
      </trkpt>
      <trkpt lat="44.93568" lon="5.26612">
        <ele>633.82598876953</ele>
        <time>2009-07-11T13:57:05Z</time>
      </trkpt>
      <trkpt lat="44.93589" lon="5.26627">
        <ele>635.81097412109</ele>
        <time>2009-07-11T13:57:11Z</time>
      </trkpt>
      <trkpt lat="44.93597" lon="5.26638">
        <ele>636.47900390625</ele>
        <time>2009-07-11T13:57:14Z</time>
      </trkpt>
      <trkpt lat="44.93624" lon="5.26634">
        <ele>637.98498535156</ele>
        <time>2009-07-11T13:57:21Z</time>
      </trkpt>
      <trkpt lat="44.93631" lon="5.26626">
        <ele>638.53601074219</ele>
        <time>2009-07-11T13:57:23Z</time>
      </trkpt>
      <trkpt lat="44.93637" lon="5.26616">
        <ele>638.76501464844</ele>
        <time>2009-07-11T13:57:25Z</time>
      </trkpt>
      <trkpt lat="44.93665" lon="5.26583">
        <ele>640.73297119141</ele>
        <time>2009-07-11T13:57:33Z</time>
      </trkpt>
      <trkpt lat="44.93675" lon="5.2657">
        <ele>641.23699951172</ele>
        <time>2009-07-11T13:57:36Z</time>
      </trkpt>
      <trkpt lat="44.937" lon="5.26527">
        <ele>643.76702880859</ele>
        <time>2009-07-11T13:57:48Z</time>
      </trkpt>
      <trkpt lat="44.93724" lon="5.26506">
        <ele>644.70001220703</ele>
        <time>2009-07-11T13:58:00Z</time>
      </trkpt>
      <trkpt lat="44.93767" lon="5.26521">
        <ele>647.08502197266</ele>
        <time>2009-07-11T13:58:13Z</time>
      </trkpt>
      <trkpt lat="44.93793" lon="5.26535">
        <ele>648.00598144531</ele>
        <time>2009-07-11T13:58:21Z</time>
      </trkpt>
      <trkpt lat="44.93808" lon="5.26557">
        <ele>649.21197509766</ele>
        <time>2009-07-11T13:58:26Z</time>
      </trkpt>
      <trkpt lat="44.93816" lon="5.26572">
        <ele>649.95202636719</ele>
        <time>2009-07-11T13:58:29Z</time>
      </trkpt>
      <trkpt lat="44.93824" lon="5.26595">
        <ele>650.91497802734</ele>
        <time>2009-07-11T13:58:33Z</time>
      </trkpt>
      <trkpt lat="44.93839" lon="5.26694">
        <ele>654.45397949219</ele>
        <time>2009-07-11T13:58:50Z</time>
      </trkpt>
      <trkpt lat="44.93858" lon="5.26741">
        <ele>656.21398925781</ele>
        <time>2009-07-11T13:58:59Z</time>
      </trkpt>
      <trkpt lat="44.93865" lon="5.26755">
        <ele>656.84698486328</ele>
        <time>2009-07-11T13:59:02Z</time>
      </trkpt>
      <trkpt lat="44.93884" lon="5.2677">
        <ele>658.29498291016</ele>
        <time>2009-07-11T13:59:08Z</time>
      </trkpt>
      <trkpt lat="44.93939" lon="5.26788">
        <ele>660.36901855469</ele>
        <time>2009-07-11T13:59:23Z</time>
      </trkpt>
      <trkpt lat="44.93979" lon="5.26805">
        <ele>663.01397705078</ele>
        <time>2009-07-11T13:59:34Z</time>
      </trkpt>
      <trkpt lat="44.93998" lon="5.26814">
        <ele>663.11199951172</ele>
        <time>2009-07-11T13:59:39Z</time>
      </trkpt>
      <trkpt lat="44.94067" lon="5.26841">
        <ele>666.90899658203</ele>
        <time>2009-07-11T13:59:57Z</time>
      </trkpt>
      <trkpt lat="44.94086" lon="5.26845">
        <ele>668.35101318359</ele>
        <time>2009-07-11T14:00:02Z</time>
      </trkpt>
      <trkpt lat="44.94103" lon="5.26839">
        <ele>668.46801757812</ele>
        <time>2009-07-11T14:00:06Z</time>
      </trkpt>
      <trkpt lat="44.94122" lon="5.26823">
        <ele>669.60998535156</ele>
        <time>2009-07-11T14:00:11Z</time>
      </trkpt>
      <trkpt lat="44.94148" lon="5.26817">
        <ele>670.78698730469</ele>
        <time>2009-07-11T14:00:17Z</time>
      </trkpt>
      <trkpt lat="44.94181" lon="5.26841">
        <ele>671.73901367188</ele>
        <time>2009-07-11T14:00:25Z</time>
      </trkpt>
      <trkpt lat="44.94221" lon="5.26861">
        <ele>672.51202392578</ele>
        <time>2009-07-11T14:00:34Z</time>
      </trkpt>
      <trkpt lat="44.94242" lon="5.26882">
        <ele>674.15502929688</ele>
        <time>2009-07-11T14:00:40Z</time>
      </trkpt>
      <trkpt lat="44.94256" lon="5.26937">
        <ele>676.40197753906</ele>
        <time>2009-07-11T14:00:52Z</time>
      </trkpt>
      <trkpt lat="44.94286" lon="5.26967">
        <ele>678.79498291016</ele>
        <time>2009-07-11T14:01:02Z</time>
      </trkpt>
      <trkpt lat="44.94319" lon="5.27002">
        <ele>681.13800048828</ele>
        <time>2009-07-11T14:01:13Z</time>
      </trkpt>
      <trkpt lat="44.94347" lon="5.27006">
        <ele>680.80902099609</ele>
        <time>2009-07-11T14:01:20Z</time>
      </trkpt>
      <trkpt lat="44.94414" lon="5.26948">
        <ele>684.76397705078</ele>
        <time>2009-07-11T14:01:39Z</time>
      </trkpt>
      <trkpt lat="44.94463" lon="5.26913">
        <ele>687.33599853516</ele>
        <time>2009-07-11T14:01:54Z</time>
      </trkpt>
      <trkpt lat="44.94511" lon="5.26898">
        <ele>689.04998779297</ele>
        <time>2009-07-11T14:02:08Z</time>
      </trkpt>
      <trkpt lat="44.94521" lon="5.26901">
        <ele>690.37902832031</ele>
        <time>2009-07-11T14:02:11Z</time>
      </trkpt>
      <trkpt lat="44.94555" lon="5.26947">
        <ele>693.48101806641</ele>
        <time>2009-07-11T14:02:25Z</time>
      </trkpt>
      <trkpt lat="44.94561" lon="5.27015">
        <ele>696.67498779297</ele>
        <time>2009-07-11T14:02:39Z</time>
      </trkpt>
      <trkpt lat="44.94566" lon="5.27036">
        <ele>697.49700927734</ele>
        <time>2009-07-11T14:02:44Z</time>
      </trkpt>
      <trkpt lat="44.94588" lon="5.27031">
        <ele>698.84600830078</ele>
        <time>2009-07-11T14:02:51Z</time>
      </trkpt>
      <trkpt lat="44.94629" lon="5.26992">
        <ele>701.05902099609</ele>
        <time>2009-07-11T14:03:04Z</time>
      </trkpt>
      <trkpt lat="44.94669" lon="5.27">
        <ele>703.91198730469</ele>
        <time>2009-07-11T14:03:15Z</time>
      </trkpt>
      <trkpt lat="44.94687" lon="5.27011">
        <ele>704.91198730469</ele>
        <time>2009-07-11T14:03:19Z</time>
      </trkpt>
      <trkpt lat="44.94706" lon="5.27027">
        <ele>705.89599609375</ele>
        <time>2009-07-11T14:03:24Z</time>
      </trkpt>
      <trkpt lat="44.94717" lon="5.27036">
        <ele>706.42199707031</ele>
        <time>2009-07-11T14:03:27Z</time>
      </trkpt>
      <trkpt lat="44.94738" lon="5.27016">
        <ele>708.10900878906</ele>
        <time>2009-07-11T14:03:34Z</time>
      </trkpt>
      <trkpt lat="44.94737" lon="5.26985">
        <ele>709.33599853516</ele>
        <time>2009-07-11T14:03:39Z</time>
      </trkpt>
      <trkpt lat="44.94754" lon="5.26959">
        <ele>710.69598388672</ele>
        <time>2009-07-11T14:03:46Z</time>
      </trkpt>
      <trkpt lat="44.94767" lon="5.26957">
        <ele>711.55603027344</ele>
        <time>2009-07-11T14:03:49Z</time>
      </trkpt>
      <trkpt lat="44.948" lon="5.26948">
        <ele>713.52099609375</ele>
        <time>2009-07-11T14:03:57Z</time>
      </trkpt>
      <trkpt lat="44.94843" lon="5.26927">
        <ele>714.58099365234</ele>
        <time>2009-07-11T14:04:07Z</time>
      </trkpt>
      <trkpt lat="44.94883" lon="5.26924">
        <ele>715.333984375</ele>
        <time>2009-07-11T14:04:19Z</time>
      </trkpt>
      <trkpt lat="44.94889" lon="5.26929">
        <ele>715.33599853516</ele>
        <time>2009-07-11T14:04:21Z</time>
      </trkpt>
      <trkpt lat="44.94926" lon="5.26923">
        <ele>709.96997070312</ele>
        <time>2009-07-11T14:04:28Z</time>
      </trkpt>
      <trkpt lat="44.94974" lon="5.26881">
        <ele>702.64001464844</ele>
        <time>2009-07-11T14:04:34Z</time>
      </trkpt>
      <trkpt lat="44.95039" lon="5.26852">
        <ele>698.20697021484</ele>
        <time>2009-07-11T14:04:40Z</time>
      </trkpt>
      <trkpt lat="44.9505" lon="5.26852">
        <ele>697.57702636719</ele>
        <time>2009-07-11T14:04:41Z</time>
      </trkpt>
      <trkpt lat="44.95089" lon="5.26843">
        <ele>694.60498046875</ele>
        <time>2009-07-11T14:04:45Z</time>
      </trkpt>
      <trkpt lat="44.95086" lon="5.26786">
        <ele>691.22497558594</ele>
        <time>2009-07-11T14:04:49Z</time>
      </trkpt>
      <trkpt lat="44.95081" lon="5.26772">
        <ele>690.20501708984</ele>
        <time>2009-07-11T14:04:50Z</time>
      </trkpt>
      <trkpt lat="44.95039" lon="5.26655">
        <ele>684.34002685547</ele>
        <time>2009-07-11T14:04:58Z</time>
      </trkpt>
      <trkpt lat="44.95071" lon="5.26624">
        <ele>680.15100097656</ele>
        <time>2009-07-11T14:05:03Z</time>
      </trkpt>
      <trkpt lat="44.95118" lon="5.26589">
        <ele>676.99499511719</ele>
        <time>2009-07-11T14:05:09Z</time>
      </trkpt>
      <trkpt lat="44.95111" lon="5.26563">
        <ele>675.39099121094</ele>
        <time>2009-07-11T14:05:11Z</time>
      </trkpt>
      <trkpt lat="44.95094" lon="5.26509">
        <ele>672.40502929688</ele>
        <time>2009-07-11T14:05:15Z</time>
      </trkpt>
      <trkpt lat="44.95097" lon="5.26469">
        <ele>670.23999023438</ele>
        <time>2009-07-11T14:05:18Z</time>
      </trkpt>
      <trkpt lat="44.95102" lon="5.26453">
        <ele>669.07299804688</ele>
        <time>2009-07-11T14:05:19Z</time>
      </trkpt>
      <trkpt lat="44.95111" lon="5.26389">
        <ele>665.13500976562</ele>
        <time>2009-07-11T14:05:23Z</time>
      </trkpt>
      <trkpt lat="44.95107" lon="5.26289">
        <ele>662.82702636719</ele>
        <time>2009-07-11T14:05:30Z</time>
      </trkpt>
      <trkpt lat="44.95131" lon="5.2629">
        <ele>658.48400878906</ele>
        <time>2009-07-11T14:05:34Z</time>
      </trkpt>
      <trkpt lat="44.95136" lon="5.263">
        <ele>658.40197753906</ele>
        <time>2009-07-11T14:05:35Z</time>
      </trkpt>
      <trkpt lat="44.9514" lon="5.26312">
        <ele>657.61999511719</ele>
        <time>2009-07-11T14:05:36Z</time>
      </trkpt>
      <trkpt lat="44.9517" lon="5.26384">
        <ele>652.59497070312</ele>
        <time>2009-07-11T14:05:42Z</time>
      </trkpt>
      <trkpt lat="44.95183" lon="5.26445">
        <ele>649.03802490234</ele>
        <time>2009-07-11T14:05:46Z</time>
      </trkpt>
      <trkpt lat="44.95197" lon="5.26566">
        <ele>641.67401123047</ele>
        <time>2009-07-11T14:05:53Z</time>
      </trkpt>
      <trkpt lat="44.95208" lon="5.2664">
        <ele>637.12902832031</ele>
        <time>2009-07-11T14:05:57Z</time>
      </trkpt>
      <trkpt lat="44.95256" lon="5.26797">
        <ele>627.49499511719</ele>
        <time>2009-07-11T14:06:06Z</time>
      </trkpt>
      <trkpt lat="44.95258" lon="5.26912">
        <ele>620.19097900391</ele>
        <time>2009-07-11T14:06:12Z</time>
      </trkpt>
      <trkpt lat="44.95242" lon="5.26972">
        <ele>620.40997314453</ele>
        <time>2009-07-11T14:06:16Z</time>
      </trkpt>
      <trkpt lat="44.95244" lon="5.26979">
        <ele>619.95501708984</ele>
        <time>2009-07-11T14:06:17Z</time>
      </trkpt>
      <trkpt lat="44.95275" lon="5.26957">
        <ele>615.60498046875</ele>
        <time>2009-07-11T14:06:21Z</time>
      </trkpt>
      <trkpt lat="44.95298" lon="5.26915">
        <ele>613.45098876953</ele>
        <time>2009-07-11T14:06:25Z</time>
      </trkpt>
      <trkpt lat="44.95301" lon="5.26908">
        <ele>613.62701416016</ele>
        <time>2009-07-11T14:06:26Z</time>
      </trkpt>
      <trkpt lat="44.95302" lon="5.26905">
        <ele>613.56799316406</ele>
        <time>2009-07-11T14:06:27Z</time>
      </trkpt>
      <trkpt lat="44.95304" lon="5.26904">
        <ele>613.64202880859</ele>
        <time>2009-07-11T14:06:28Z</time>
      </trkpt>
      <trkpt lat="44.95305" lon="5.26904">
        <ele>613.44000244141</ele>
        <time>2009-07-11T14:06:29Z</time>
      </trkpt>
      <trkpt lat="44.95306" lon="5.26907">
        <ele>612.81201171875</ele>
        <time>2009-07-11T14:06:32Z</time>
      </trkpt>
      <trkpt lat="44.95303" lon="5.26902">
        <ele>612.58502197266</ele>
        <time>2009-07-11T14:07:03Z</time>
      </trkpt>
      <trkpt lat="44.95313" lon="5.26875">
        <ele>610.48400878906</ele>
        <time>2009-07-11T14:07:09Z</time>
      </trkpt>
      <trkpt lat="44.95326" lon="5.26846">
        <ele>607.89801025391</ele>
        <time>2009-07-11T14:07:13Z</time>
      </trkpt>
      <trkpt lat="44.95351" lon="5.26815">
        <ele>603.75201416016</ele>
        <time>2009-07-11T14:07:17Z</time>
      </trkpt>
      <trkpt lat="44.95376" lon="5.26796">
        <ele>601.78698730469</ele>
        <time>2009-07-11T14:07:20Z</time>
      </trkpt>
      <trkpt lat="44.95395" lon="5.26781">
        <ele>599.45098876953</ele>
        <time>2009-07-11T14:07:22Z</time>
      </trkpt>
      <trkpt lat="44.95419" lon="5.267">
        <ele>594.67901611328</ele>
        <time>2009-07-11T14:07:28Z</time>
      </trkpt>
      <trkpt lat="44.95414" lon="5.26666">
        <ele>591.91998291016</ele>
        <time>2009-07-11T14:07:30Z</time>
      </trkpt>
      <trkpt lat="44.95432" lon="5.26542">
        <ele>584.25</ele>
        <time>2009-07-11T14:07:37Z</time>
      </trkpt>
      <trkpt lat="44.95425" lon="5.26489">
        <ele>582.76702880859</ele>
        <time>2009-07-11T14:07:40Z</time>
      </trkpt>
      <trkpt lat="44.95414" lon="5.26459">
        <ele>581.83801269531</ele>
        <time>2009-07-11T14:07:42Z</time>
      </trkpt>
      <trkpt lat="44.95406" lon="5.26439">
        <ele>582.26202392578</ele>
        <time>2009-07-11T14:07:44Z</time>
      </trkpt>
      <trkpt lat="44.95407" lon="5.26432">
        <ele>582.26202392578</ele>
        <time>2009-07-11T14:07:45Z</time>
      </trkpt>
      <trkpt lat="44.9542" lon="5.26431">
        <ele>580.39001464844</ele>
        <time>2009-07-11T14:07:47Z</time>
      </trkpt>
      <trkpt lat="44.95426" lon="5.26438">
        <ele>579.61499023438</ele>
        <time>2009-07-11T14:07:48Z</time>
      </trkpt>
      <trkpt lat="44.95438" lon="5.26454">
        <ele>577.51000976562</ele>
        <time>2009-07-11T14:07:50Z</time>
      </trkpt>
      <trkpt lat="44.95464" lon="5.26491">
        <ele>573.53399658203</ele>
        <time>2009-07-11T14:07:54Z</time>
      </trkpt>
      <trkpt lat="44.95483" lon="5.26528">
        <ele>569.75897216797</ele>
        <time>2009-07-11T14:07:57Z</time>
      </trkpt>
      <trkpt lat="44.95486" lon="5.26544">
        <ele>569.43701171875</ele>
        <time>2009-07-11T14:07:58Z</time>
      </trkpt>
      <trkpt lat="44.95493" lon="5.26576">
        <ele>568.27801513672</ele>
        <time>2009-07-11T14:08:00Z</time>
      </trkpt>
      <trkpt lat="44.95541" lon="5.26742">
        <ele>558.04498291016</ele>
        <time>2009-07-11T14:08:10Z</time>
      </trkpt>
      <trkpt lat="44.9556" lon="5.26794">
        <ele>553.65002441406</ele>
        <time>2009-07-11T14:08:13Z</time>
      </trkpt>
      <trkpt lat="44.95551" lon="5.26926">
        <ele>545.74597167969</ele>
        <time>2009-07-11T14:08:20Z</time>
      </trkpt>
      <trkpt lat="44.95543" lon="5.26942">
        <ele>544.9169921875</ele>
        <time>2009-07-11T14:08:21Z</time>
      </trkpt>
      <trkpt lat="44.95518" lon="5.26988">
        <ele>542.34600830078</ele>
        <time>2009-07-11T14:08:24Z</time>
      </trkpt>
      <trkpt lat="44.95512" lon="5.27001">
        <ele>541.62200927734</ele>
        <time>2009-07-11T14:08:25Z</time>
      </trkpt>
      <trkpt lat="44.9552" lon="5.27039">
        <ele>539.51397705078</ele>
        <time>2009-07-11T14:08:28Z</time>
      </trkpt>
      <trkpt lat="44.95528" lon="5.27044">
        <ele>538.93499755859</ele>
        <time>2009-07-11T14:08:29Z</time>
      </trkpt>
      <trkpt lat="44.95539" lon="5.27046">
        <ele>538.42498779297</ele>
        <time>2009-07-11T14:08:30Z</time>
      </trkpt>
      <trkpt lat="44.95595" lon="5.27048">
        <ele>536.04699707031</ele>
        <time>2009-07-11T14:08:35Z</time>
      </trkpt>
      <trkpt lat="44.9565" lon="5.27069">
        <ele>533.71697998047</ele>
        <time>2009-07-11T14:08:40Z</time>
      </trkpt>
      <trkpt lat="44.95671" lon="5.27079">
        <ele>533.21197509766</ele>
        <time>2009-07-11T14:08:42Z</time>
      </trkpt>
      <trkpt lat="44.95704" lon="5.2708">
        <ele>531.77801513672</ele>
        <time>2009-07-11T14:08:45Z</time>
      </trkpt>
      <trkpt lat="44.95714" lon="5.27076">
        <ele>531.208984375</ele>
        <time>2009-07-11T14:08:46Z</time>
      </trkpt>
      <trkpt lat="44.95846" lon="5.26996">
        <ele>525.44897460938</ele>
        <time>2009-07-11T14:08:59Z</time>
      </trkpt>
      <trkpt lat="44.95927" lon="5.26949">
        <ele>521.25500488281</ele>
        <time>2009-07-11T14:09:07Z</time>
      </trkpt>
      <trkpt lat="44.95947" lon="5.26939">
        <ele>520.29602050781</ele>
        <time>2009-07-11T14:09:09Z</time>
      </trkpt>
      <trkpt lat="44.96018" lon="5.26964">
        <ele>515.53100585938</ele>
        <time>2009-07-11T14:09:16Z</time>
      </trkpt>
      <trkpt lat="44.96027" lon="5.26974">
        <ele>514.77398681641</ele>
        <time>2009-07-11T14:09:17Z</time>
      </trkpt>
      <trkpt lat="44.96086" lon="5.26973">
        <ele>510.71200561523</ele>
        <time>2009-07-11T14:09:23Z</time>
      </trkpt>
      <trkpt lat="44.96105" lon="5.26951">
        <ele>508.6369934082</ele>
        <time>2009-07-11T14:09:25Z</time>
      </trkpt>
      <trkpt lat="44.96148" lon="5.26924">
        <ele>505.65600585938</ele>
        <time>2009-07-11T14:09:29Z</time>
      </trkpt>
      <trkpt lat="44.96194" lon="5.2693">
        <ele>503.97198486328</ele>
        <time>2009-07-11T14:09:33Z</time>
      </trkpt>
      <trkpt lat="44.96223" lon="5.26955">
        <ele>502.86401367188</ele>
        <time>2009-07-11T14:09:36Z</time>
      </trkpt>
      <trkpt lat="44.96238" lon="5.26976">
        <ele>502.72698974609</ele>
        <time>2009-07-11T14:09:38Z</time>
      </trkpt>
      <trkpt lat="44.96251" lon="5.26999">
        <ele>502.01998901367</ele>
        <time>2009-07-11T14:09:40Z</time>
      </trkpt>
      <trkpt lat="44.96295" lon="5.27029">
        <ele>500.36999511719</ele>
        <time>2009-07-11T14:09:45Z</time>
      </trkpt>
      <trkpt lat="44.96362" lon="5.27034">
        <ele>498.57501220703</ele>
        <time>2009-07-11T14:09:52Z</time>
      </trkpt>
      <trkpt lat="44.96448" lon="5.27041">
        <ele>492.73300170898</ele>
        <time>2009-07-11T14:10:00Z</time>
      </trkpt>
      <trkpt lat="44.96503" lon="5.27068">
        <ele>487.20498657227</ele>
        <time>2009-07-11T14:10:05Z</time>
      </trkpt>
      <trkpt lat="44.96527" lon="5.27103">
        <ele>485.59899902344</ele>
        <time>2009-07-11T14:10:08Z</time>
      </trkpt>
      <trkpt lat="44.96565" lon="5.27166">
        <ele>483.39700317383</ele>
        <time>2009-07-11T14:10:14Z</time>
      </trkpt>
      <trkpt lat="44.96581" lon="5.27151">
        <ele>482.3030090332</ele>
        <time>2009-07-11T14:10:16Z</time>
      </trkpt>
      <trkpt lat="44.96624" lon="5.27095">
        <ele>478.34100341797</ele>
        <time>2009-07-11T14:10:22Z</time>
      </trkpt>
      <trkpt lat="44.96648" lon="5.27069">
        <ele>476.71499633789</ele>
        <time>2009-07-11T14:10:25Z</time>
      </trkpt>
      <trkpt lat="44.96711" lon="5.27045">
        <ele>472.44100952148</ele>
        <time>2009-07-11T14:10:31Z</time>
      </trkpt>
      <trkpt lat="44.96756" lon="5.27057">
        <ele>469.55999755859</ele>
        <time>2009-07-11T14:10:35Z</time>
      </trkpt>
      <trkpt lat="44.96776" lon="5.27071">
        <ele>468.86599731445</ele>
        <time>2009-07-11T14:10:37Z</time>
      </trkpt>
      <trkpt lat="44.96809" lon="5.27115">
        <ele>466.46301269531</ele>
        <time>2009-07-11T14:10:41Z</time>
      </trkpt>
      <trkpt lat="44.96827" lon="5.27237">
        <ele>462.2380065918</ele>
        <time>2009-07-11T14:10:49Z</time>
      </trkpt>
      <trkpt lat="44.96821" lon="5.27251">
        <ele>461.4880065918</ele>
        <time>2009-07-11T14:10:50Z</time>
      </trkpt>
      <trkpt lat="44.96758" lon="5.27377">
        <ele>460.02398681641</ele>
        <time>2009-07-11T14:11:00Z</time>
      </trkpt>
      <trkpt lat="44.96758" lon="5.27455">
        <ele>458.4289855957</ele>
        <time>2009-07-11T14:11:06Z</time>
      </trkpt>
      <trkpt lat="44.96772" lon="5.27474">
        <ele>458.22900390625</ele>
        <time>2009-07-11T14:11:08Z</time>
      </trkpt>
      <trkpt lat="44.96843" lon="5.27542">
        <ele>457.70001220703</ele>
        <time>2009-07-11T14:11:17Z</time>
      </trkpt>
      <trkpt lat="44.96869" lon="5.27605">
        <ele>457.28399658203</ele>
        <time>2009-07-11T14:11:23Z</time>
      </trkpt>
      <trkpt lat="44.96877" lon="5.2764">
        <ele>456.9049987793</ele>
        <time>2009-07-11T14:11:26Z</time>
      </trkpt>
      <trkpt lat="44.96947" lon="5.27765">
        <ele>456.47900390625</ele>
        <time>2009-07-11T14:11:39Z</time>
      </trkpt>
      <trkpt lat="44.96984" lon="5.27855">
        <ele>460.64599609375</ele>
        <time>2009-07-11T14:11:50Z</time>
      </trkpt>
      <trkpt lat="44.96996" lon="5.27915">
        <ele>462.64599609375</ele>
        <time>2009-07-11T14:11:59Z</time>
      </trkpt>
      <trkpt lat="44.97005" lon="5.2794">
        <ele>462.72100830078</ele>
        <time>2009-07-11T14:12:03Z</time>
      </trkpt>
      <trkpt lat="44.97036" lon="5.27979">
        <ele>460.42199707031</ele>
        <time>2009-07-11T14:12:09Z</time>
      </trkpt>
      <trkpt lat="44.97054" lon="5.28049">
        <ele>454.03399658203</ele>
        <time>2009-07-11T14:12:15Z</time>
      </trkpt>
      <trkpt lat="44.97048" lon="5.28076">
        <ele>452.92401123047</ele>
        <time>2009-07-11T14:12:17Z</time>
      </trkpt>
      <trkpt lat="44.97021" lon="5.28152">
        <ele>452.77099609375</ele>
        <time>2009-07-11T14:12:23Z</time>
      </trkpt>
      <trkpt lat="44.97038" lon="5.28201">
        <ele>453.02099609375</ele>
        <time>2009-07-11T14:12:28Z</time>
      </trkpt>
      <trkpt lat="44.97093" lon="5.28194">
        <ele>453.87399291992</ele>
        <time>2009-07-11T14:12:34Z</time>
      </trkpt>
      <trkpt lat="44.97108" lon="5.28179">
        <ele>454.79098510742</ele>
        <time>2009-07-11T14:12:36Z</time>
      </trkpt>
      <trkpt lat="44.97159" lon="5.2812">
        <ele>457.26300048828</ele>
        <time>2009-07-11T14:12:46Z</time>
      </trkpt>
      <trkpt lat="44.9718" lon="5.28076">
        <ele>457.31900024414</ele>
        <time>2009-07-11T14:12:52Z</time>
      </trkpt>
      <trkpt lat="44.97208" lon="5.28016">
        <ele>459.95999145508</ele>
        <time>2009-07-11T14:13:01Z</time>
      </trkpt>
      <trkpt lat="44.97239" lon="5.27954">
        <ele>461.81698608398</ele>
        <time>2009-07-11T14:13:11Z</time>
      </trkpt>
      <trkpt lat="44.97284" lon="5.27878">
        <ele>463.51901245117</ele>
        <time>2009-07-11T14:13:24Z</time>
      </trkpt>
      <trkpt lat="44.97349" lon="5.27837">
        <ele>459.79098510742</ele>
        <time>2009-07-11T14:13:34Z</time>
      </trkpt>
      <trkpt lat="44.97384" lon="5.2784">
        <ele>457.82998657227</ele>
        <time>2009-07-11T14:13:38Z</time>
      </trkpt>
      <trkpt lat="44.97411" lon="5.27846">
        <ele>456.78399658203</ele>
        <time>2009-07-11T14:13:41Z</time>
      </trkpt>
      <trkpt lat="44.97456" lon="5.27825">
        <ele>454.68701171875</ele>
        <time>2009-07-11T14:13:46Z</time>
      </trkpt>
      <trkpt lat="44.9747" lon="5.27804">
        <ele>453.62200927734</ele>
        <time>2009-07-11T14:13:48Z</time>
      </trkpt>
      <trkpt lat="44.97497" lon="5.27759">
        <ele>449.72299194336</ele>
        <time>2009-07-11T14:13:52Z</time>
      </trkpt>
      <trkpt lat="44.97504" lon="5.27748">
        <ele>449.57501220703</ele>
        <time>2009-07-11T14:13:53Z</time>
      </trkpt>
      <trkpt lat="44.97528" lon="5.27695">
        <ele>447.42300415039</ele>
        <time>2009-07-11T14:13:57Z</time>
      </trkpt>
      <trkpt lat="44.97538" lon="5.27617">
        <ele>443.77301025391</ele>
        <time>2009-07-11T14:14:02Z</time>
      </trkpt>
      <trkpt lat="44.97537" lon="5.27568">
        <ele>440.82598876953</ele>
        <time>2009-07-11T14:14:05Z</time>
      </trkpt>
      <trkpt lat="44.97536" lon="5.27552">
        <ele>440.32000732422</ele>
        <time>2009-07-11T14:14:06Z</time>
      </trkpt>
      <trkpt lat="44.97535" lon="5.2752">
        <ele>438.73599243164</ele>
        <time>2009-07-11T14:14:08Z</time>
      </trkpt>
      <trkpt lat="44.97549" lon="5.27442">
        <ele>435.4049987793</ele>
        <time>2009-07-11T14:14:13Z</time>
      </trkpt>
      <trkpt lat="44.97579" lon="5.27371">
        <ele>431.8219909668</ele>
        <time>2009-07-11T14:14:18Z</time>
      </trkpt>
      <trkpt lat="44.97632" lon="5.27351">
        <ele>429.14199829102</ele>
        <time>2009-07-11T14:14:23Z</time>
      </trkpt>
      <trkpt lat="44.97653" lon="5.27366">
        <ele>427.79400634766</ele>
        <time>2009-07-11T14:14:25Z</time>
      </trkpt>
      <trkpt lat="44.97713" lon="5.27421">
        <ele>423.57501220703</ele>
        <time>2009-07-11T14:14:31Z</time>
      </trkpt>
      <trkpt lat="44.97745" lon="5.27445">
        <ele>421.32598876953</ele>
        <time>2009-07-11T14:14:34Z</time>
      </trkpt>
      <trkpt lat="44.97791" lon="5.27463">
        <ele>419.25500488281</ele>
        <time>2009-07-11T14:14:38Z</time>
      </trkpt>
      <trkpt lat="44.97803" lon="5.27466">
        <ele>418.57299804688</ele>
        <time>2009-07-11T14:14:39Z</time>
      </trkpt>
      <trkpt lat="44.97872" lon="5.27441">
        <ele>415.11499023438</ele>
        <time>2009-07-11T14:14:45Z</time>
      </trkpt>
      <trkpt lat="44.97901" lon="5.27408">
        <ele>412.67001342773</ele>
        <time>2009-07-11T14:14:48Z</time>
      </trkpt>
      <trkpt lat="44.97962" lon="5.27361">
        <ele>411.87600708008</ele>
        <time>2009-07-11T14:14:54Z</time>
      </trkpt>
      <trkpt lat="44.98049" lon="5.27303">
        <ele>410.59298706055</ele>
        <time>2009-07-11T14:15:03Z</time>
      </trkpt>
      <trkpt lat="44.98107" lon="5.273">
        <ele>407.6130065918</ele>
        <time>2009-07-11T14:15:09Z</time>
      </trkpt>
      <trkpt lat="44.98139" lon="5.27335">
        <ele>404.93899536133</ele>
        <time>2009-07-11T14:15:13Z</time>
      </trkpt>
      <trkpt lat="44.98161" lon="5.27368">
        <ele>402.98599243164</ele>
        <time>2009-07-11T14:15:16Z</time>
      </trkpt>
      <trkpt lat="44.982" lon="5.27398">
        <ele>400.11099243164</ele>
        <time>2009-07-11T14:15:20Z</time>
      </trkpt>
      <trkpt lat="44.9831" lon="5.27485">
        <ele>394.71200561523</ele>
        <time>2009-07-11T14:15:31Z</time>
      </trkpt>
      <trkpt lat="44.98341" lon="5.27507">
        <ele>392.98199462891</ele>
        <time>2009-07-11T14:15:34Z</time>
      </trkpt>
      <trkpt lat="44.98383" lon="5.27538">
        <ele>390.42498779297</ele>
        <time>2009-07-11T14:15:38Z</time>
      </trkpt>
      <trkpt lat="44.98431" lon="5.27628">
        <ele>387.33200073242</ele>
        <time>2009-07-11T14:15:45Z</time>
      </trkpt>
      <trkpt lat="44.98469" lon="5.27657">
        <ele>384.47698974609</ele>
        <time>2009-07-11T14:15:49Z</time>
      </trkpt>
      <trkpt lat="44.98501" lon="5.27667">
        <ele>383.51501464844</ele>
        <time>2009-07-11T14:15:52Z</time>
      </trkpt>
      <trkpt lat="44.98549" lon="5.27702">
        <ele>381.70098876953</ele>
        <time>2009-07-11T14:15:57Z</time>
      </trkpt>
      <trkpt lat="44.98589" lon="5.27722">
        <ele>380.22299194336</ele>
        <time>2009-07-11T14:16:01Z</time>
      </trkpt>
      <trkpt lat="44.98611" lon="5.27726">
        <ele>379.07000732422</ele>
        <time>2009-07-11T14:16:03Z</time>
      </trkpt>
      <trkpt lat="44.9865" lon="5.2775">
        <ele>376.18301391602</ele>
        <time>2009-07-11T14:16:07Z</time>
      </trkpt>
      <trkpt lat="44.98677" lon="5.27777">
        <ele>374.7380065918</ele>
        <time>2009-07-11T14:16:10Z</time>
      </trkpt>
      <trkpt lat="44.98729" lon="5.27834">
        <ele>371.77801513672</ele>
        <time>2009-07-11T14:16:16Z</time>
      </trkpt>
      <trkpt lat="44.98737" lon="5.27845">
        <ele>370.58499145508</ele>
        <time>2009-07-11T14:16:17Z</time>
      </trkpt>
      <trkpt lat="44.98763" lon="5.27897">
        <ele>369.12701416016</ele>
        <time>2009-07-11T14:16:21Z</time>
      </trkpt>
      <trkpt lat="44.98791" lon="5.27985">
        <ele>365.5710144043</ele>
        <time>2009-07-11T14:16:27Z</time>
      </trkpt>
      <trkpt lat="44.98806" lon="5.28029">
        <ele>364.93099975586</ele>
        <time>2009-07-11T14:16:30Z</time>
      </trkpt>
      <trkpt lat="44.98839" lon="5.28077">
        <ele>362.29598999023</ele>
        <time>2009-07-11T14:16:34Z</time>
      </trkpt>
      <trkpt lat="44.98878" lon="5.28118">
        <ele>358.85699462891</ele>
        <time>2009-07-11T14:16:38Z</time>
      </trkpt>
      <trkpt lat="44.9892" lon="5.28156">
        <ele>356.05499267578</ele>
        <time>2009-07-11T14:16:42Z</time>
      </trkpt>
      <trkpt lat="44.98953" lon="5.28172">
        <ele>354.81600952148</ele>
        <time>2009-07-11T14:16:45Z</time>
      </trkpt>
      <trkpt lat="44.98965" lon="5.28172">
        <ele>354.61599731445</ele>
        <time>2009-07-11T14:16:46Z</time>
      </trkpt>
      <trkpt lat="44.99093" lon="5.28171">
        <ele>349.14199829102</ele>
        <time>2009-07-11T14:16:57Z</time>
      </trkpt>
      <trkpt lat="44.99149" lon="5.28181">
        <ele>348.10800170898</ele>
        <time>2009-07-11T14:17:02Z</time>
      </trkpt>
      <trkpt lat="44.99181" lon="5.28176">
        <ele>346.66900634766</ele>
        <time>2009-07-11T14:17:05Z</time>
      </trkpt>
      <trkpt lat="44.9921" lon="5.28153">
        <ele>345.27600097656</ele>
        <time>2009-07-11T14:17:08Z</time>
      </trkpt>
      <trkpt lat="44.99236" lon="5.28122">
        <ele>343.53799438477</ele>
        <time>2009-07-11T14:17:11Z</time>
      </trkpt>
      <trkpt lat="44.99245" lon="5.28113">
        <ele>342.99099731445</ele>
        <time>2009-07-11T14:17:12Z</time>
      </trkpt>
      <trkpt lat="44.99284" lon="5.28083">
        <ele>341.61801147461</ele>
        <time>2009-07-11T14:17:16Z</time>
      </trkpt>
      <trkpt lat="44.99305" lon="5.28075">
        <ele>340.58801269531</ele>
        <time>2009-07-11T14:17:18Z</time>
      </trkpt>
      <trkpt lat="44.99338" lon="5.28066">
        <ele>338.65200805664</ele>
        <time>2009-07-11T14:17:21Z</time>
      </trkpt>
      <trkpt lat="44.99359" lon="5.28056">
        <ele>337.77600097656</ele>
        <time>2009-07-11T14:17:23Z</time>
      </trkpt>
      <trkpt lat="44.99377" lon="5.2804">
        <ele>336.3869934082</ele>
        <time>2009-07-11T14:17:25Z</time>
      </trkpt>
      <trkpt lat="44.99385" lon="5.2803">
        <ele>336.76501464844</ele>
        <time>2009-07-11T14:17:26Z</time>
      </trkpt>
      <trkpt lat="44.99438" lon="5.27975">
        <ele>334.26800537109</ele>
        <time>2009-07-11T14:17:32Z</time>
      </trkpt>
      <trkpt lat="44.99459" lon="5.27964">
        <ele>333.46200561523</ele>
        <time>2009-07-11T14:17:34Z</time>
      </trkpt>
      <trkpt lat="44.99517" lon="5.27994">
        <ele>330.64401245117</ele>
        <time>2009-07-11T14:17:40Z</time>
      </trkpt>
      <trkpt lat="44.99521" lon="5.28008">
        <ele>330.34899902344</ele>
        <time>2009-07-11T14:17:41Z</time>
      </trkpt>
      <trkpt lat="44.99532" lon="5.28054">
        <ele>328.50399780273</ele>
        <time>2009-07-11T14:17:44Z</time>
      </trkpt>
      <trkpt lat="44.99561" lon="5.28098">
        <ele>326.49600219727</ele>
        <time>2009-07-11T14:17:48Z</time>
      </trkpt>
      <trkpt lat="44.99594" lon="5.28104">
        <ele>324.72500610352</ele>
        <time>2009-07-11T14:17:51Z</time>
      </trkpt>
      <trkpt lat="44.9964" lon="5.28099">
        <ele>322.23498535156</ele>
        <time>2009-07-11T14:17:55Z</time>
      </trkpt>
      <trkpt lat="44.99694" lon="5.28123">
        <ele>318.58599853516</ele>
        <time>2009-07-11T14:18:00Z</time>
      </trkpt>
      <trkpt lat="44.99723" lon="5.28152">
        <ele>318.00500488281</ele>
        <time>2009-07-11T14:18:03Z</time>
      </trkpt>
      <trkpt lat="44.99743" lon="5.28171">
        <ele>316.81900024414</ele>
        <time>2009-07-11T14:18:05Z</time>
      </trkpt>
      <trkpt lat="44.99791" lon="5.28222">
        <ele>313.37100219727</ele>
        <time>2009-07-11T14:18:10Z</time>
      </trkpt>
      <trkpt lat="44.99886" lon="5.2836">
        <ele>309.79000854492</ele>
        <time>2009-07-11T14:18:22Z</time>
      </trkpt>
      <trkpt lat="44.99987" lon="5.28504">
        <ele>305.52200317383</ele>
        <time>2009-07-11T14:18:36Z</time>
      </trkpt>
      <trkpt lat="45.00084" lon="5.28559">
        <ele>304.69299316406</ele>
        <time>2009-07-11T14:18:47Z</time>
      </trkpt>
      <trkpt lat="45.00195" lon="5.28572">
        <ele>305.82598876953</ele>
        <time>2009-07-11T14:19:01Z</time>
      </trkpt>
      <trkpt lat="45.0026" lon="5.28607">
        <ele>303.04699707031</ele>
        <time>2009-07-11T14:19:09Z</time>
      </trkpt>
      <trkpt lat="45.00317" lon="5.28657">
        <ele>300.44299316406</ele>
        <time>2009-07-11T14:19:16Z</time>
      </trkpt>
      <trkpt lat="45.00415" lon="5.2871">
        <ele>300.50601196289</ele>
        <time>2009-07-11T14:19:28Z</time>
      </trkpt>
      <trkpt lat="45.0054" lon="5.28715">
        <ele>299.73199462891</ele>
        <time>2009-07-11T14:19:43Z</time>
      </trkpt>
      <trkpt lat="45.0064" lon="5.28757">
        <ele>296.99200439453</ele>
        <time>2009-07-11T14:19:55Z</time>
      </trkpt>
      <trkpt lat="45.00758" lon="5.28844">
        <ele>293.32800292969</ele>
        <time>2009-07-11T14:20:10Z</time>
      </trkpt>
      <trkpt lat="45.00857" lon="5.28895">
        <ele>290.46398925781</ele>
        <time>2009-07-11T14:20:22Z</time>
      </trkpt>
      <trkpt lat="45.00882" lon="5.28906">
        <ele>289.85699462891</ele>
        <time>2009-07-11T14:20:25Z</time>
      </trkpt>
      <trkpt lat="45.00999" lon="5.28975">
        <ele>285.5539855957</ele>
        <time>2009-07-11T14:20:38Z</time>
      </trkpt>
      <trkpt lat="45.01081" lon="5.29018">
        <ele>283.90701293945</ele>
        <time>2009-07-11T14:20:47Z</time>
      </trkpt>
      <trkpt lat="45.01098" lon="5.29033">
        <ele>284.59399414062</ele>
        <time>2009-07-11T14:20:50Z</time>
      </trkpt>
      <trkpt lat="45.01101" lon="5.29037">
        <ele>284.80999755859</ele>
        <time>2009-07-11T14:20:51Z</time>
      </trkpt>
      <trkpt lat="45.01122" lon="5.2904">
        <ele>282.00100708008</ele>
        <time>2009-07-11T14:20:55Z</time>
      </trkpt>
      <trkpt lat="45.01141" lon="5.2904">
        <ele>280.88400268555</ele>
        <time>2009-07-11T14:20:58Z</time>
      </trkpt>
      <trkpt lat="45.01138" lon="5.29023">
        <ele>281.92199707031</ele>
        <time>2009-07-11T14:21:04Z</time>
      </trkpt>
      <trkpt lat="45.01136" lon="5.29023">
        <ele>282.0119934082</ele>
        <time>2009-07-11T14:21:06Z</time>
      </trkpt>
      <trkpt lat="45.01135" lon="5.29023">
        <ele>282.05499267578</ele>
        <time>2009-07-11T14:21:08Z</time>
      </trkpt>
      <trkpt lat="45.01143" lon="5.29031">
        <ele>281.14001464844</ele>
        <time>2009-07-11T14:21:17Z</time>
      </trkpt>
      <trkpt lat="45.01165" lon="5.29035">
        <ele>279.66799926758</ele>
        <time>2009-07-11T14:21:26Z</time>
      </trkpt>
      <trkpt lat="45.01176" lon="5.29043">
        <ele>278.28100585938</ele>
        <time>2009-07-11T14:21:32Z</time>
      </trkpt>
      <trkpt lat="45.01189" lon="5.29052">
        <ele>277.52200317383</ele>
        <time>2009-07-11T14:21:35Z</time>
      </trkpt>
      <trkpt lat="45.01263" lon="5.29073">
        <ele>270.81201171875</ele>
        <time>2009-07-11T14:21:45Z</time>
      </trkpt>
      <trkpt lat="45.01292" lon="5.29081">
        <ele>268.5419921875</ele>
        <time>2009-07-11T14:21:48Z</time>
      </trkpt>
      <trkpt lat="45.01353" lon="5.29099">
        <ele>264.87399291992</ele>
        <time>2009-07-11T14:21:54Z</time>
      </trkpt>
      <trkpt lat="45.01373" lon="5.29104">
        <ele>263.76901245117</ele>
        <time>2009-07-11T14:21:56Z</time>
      </trkpt>
      <trkpt lat="45.01442" lon="5.29122">
        <ele>262.57000732422</ele>
        <time>2009-07-11T14:22:03Z</time>
      </trkpt>
      <trkpt lat="45.01459" lon="5.29122">
        <ele>262.08099365234</ele>
        <time>2009-07-11T14:22:05Z</time>
      </trkpt>
      <trkpt lat="45.01537" lon="5.29153">
        <ele>261.07501220703</ele>
        <time>2009-07-11T14:22:15Z</time>
      </trkpt>
      <trkpt lat="45.01546" lon="5.29156">
        <ele>260.59201049805</ele>
        <time>2009-07-11T14:22:16Z</time>
      </trkpt>
      <trkpt lat="45.01576" lon="5.29165">
        <ele>260.85900878906</ele>
        <time>2009-07-11T14:22:20Z</time>
      </trkpt>
      <trkpt lat="45.0158" lon="5.29164">
        <ele>261.17599487305</ele>
        <time>2009-07-11T14:22:21Z</time>
      </trkpt>
      <trkpt lat="45.01583" lon="5.29161">
        <ele>261.01501464844</ele>
        <time>2009-07-11T14:22:22Z</time>
      </trkpt>
      <trkpt lat="45.01577" lon="5.29143">
        <ele>259.39300537109</ele>
        <time>2009-07-11T14:22:26Z</time>
      </trkpt>
      <trkpt lat="45.01577" lon="5.29125">
        <ele>257.59100341797</ele>
        <time>2009-07-11T14:22:28Z</time>
      </trkpt>
      <trkpt lat="45.01577" lon="5.29115">
        <ele>257.45098876953</ele>
        <time>2009-07-11T14:22:29Z</time>
      </trkpt>
      <trkpt lat="45.01571" lon="5.29096">
        <ele>256.33700561523</ele>
        <time>2009-07-11T14:22:31Z</time>
      </trkpt>
      <trkpt lat="45.01559" lon="5.29059">
        <ele>255.85200500488</ele>
        <time>2009-07-11T14:22:37Z</time>
      </trkpt>
      <trkpt lat="45.01543" lon="5.28976">
        <ele>254.38000488281</ele>
        <time>2009-07-11T14:22:46Z</time>
      </trkpt>
      <trkpt lat="45.01538" lon="5.28946">
        <ele>254.12600708008</ele>
        <time>2009-07-11T14:22:49Z</time>
      </trkpt>
      <trkpt lat="45.01516" lon="5.28875">
        <ele>253.29400634766</ele>
        <time>2009-07-11T14:22:56Z</time>
      </trkpt>
      <trkpt lat="45.0151" lon="5.28848">
        <ele>253.51300048828</ele>
        <time>2009-07-11T14:22:59Z</time>
      </trkpt>
      <trkpt lat="45.01528" lon="5.28829">
        <ele>252.69500732422</ele>
        <time>2009-07-11T14:23:06Z</time>
      </trkpt>
      <trkpt lat="45.01534" lon="5.28829">
        <ele>252.6190032959</ele>
        <time>2009-07-11T14:23:07Z</time>
      </trkpt>
      <trkpt lat="45.0154" lon="5.28831">
        <ele>251.875</ele>
        <time>2009-07-11T14:23:08Z</time>
      </trkpt>
      <trkpt lat="45.0159" lon="5.28851">
        <ele>251.85600280762</ele>
        <time>2009-07-11T14:23:15Z</time>
      </trkpt>
      <trkpt lat="45.01669" lon="5.28888">
        <ele>250.38000488281</ele>
        <time>2009-07-11T14:23:27Z</time>
      </trkpt>
      <trkpt lat="45.01755" lon="5.28924">
        <ele>249.65400695801</ele>
        <time>2009-07-11T14:23:39Z</time>
      </trkpt>
      <trkpt lat="45.01799" lon="5.28945">
        <ele>249.5119934082</ele>
        <time>2009-07-11T14:23:45Z</time>
      </trkpt>
      <trkpt lat="45.01827" lon="5.28996">
        <ele>248.82200622559</ele>
        <time>2009-07-11T14:23:51Z</time>
      </trkpt>
      <trkpt lat="45.01866" lon="5.29037">
        <ele>247.77499389648</ele>
        <time>2009-07-11T14:23:57Z</time>
      </trkpt>
      <trkpt lat="45.01933" lon="5.29069">
        <ele>247.57899475098</ele>
        <time>2009-07-11T14:24:06Z</time>
      </trkpt>
      <trkpt lat="45.01979" lon="5.29093">
        <ele>247.50399780273</ele>
        <time>2009-07-11T14:24:13Z</time>
      </trkpt>
      <trkpt lat="45.01992" lon="5.29099">
        <ele>247.73300170898</ele>
        <time>2009-07-11T14:24:15Z</time>
      </trkpt>
      <trkpt lat="45.02026" lon="5.29113">
        <ele>248.15400695801</ele>
        <time>2009-07-11T14:24:20Z</time>
      </trkpt>
      <trkpt lat="45.02046" lon="5.29132">
        <ele>248.23699951172</ele>
        <time>2009-07-11T14:24:24Z</time>
      </trkpt>
      <trkpt lat="45.02054" lon="5.29143">
        <ele>248.54800415039</ele>
        <time>2009-07-11T14:24:26Z</time>
      </trkpt>
      <trkpt lat="45.02061" lon="5.2915">
        <ele>249.12899780273</ele>
        <time>2009-07-11T14:24:29Z</time>
      </trkpt>
      <trkpt lat="45.02104" lon="5.29114">
        <ele>246.65600585938</ele>
        <time>2009-07-11T14:24:39Z</time>
      </trkpt>
      <trkpt lat="45.02127" lon="5.29091">
        <ele>245.06300354004</ele>
        <time>2009-07-11T14:24:43Z</time>
      </trkpt>
      <trkpt lat="45.02203" lon="5.28995">
        <ele>240.6309967041</ele>
        <time>2009-07-11T14:24:55Z</time>
      </trkpt>
      <trkpt lat="45.0221" lon="5.28986">
        <ele>240.33700561523</ele>
        <time>2009-07-11T14:24:56Z</time>
      </trkpt>
      <trkpt lat="45.02254" lon="5.28931">
        <ele>237.22099304199</ele>
        <time>2009-07-11T14:25:02Z</time>
      </trkpt>
      <trkpt lat="45.0227" lon="5.28912">
        <ele>235.99200439453</ele>
        <time>2009-07-11T14:25:04Z</time>
      </trkpt>
      <trkpt lat="45.02316" lon="5.28803">
        <ele>233.42500305176</ele>
        <time>2009-07-11T14:25:13Z</time>
      </trkpt>
      <trkpt lat="45.0236" lon="5.28723">
        <ele>232.54400634766</ele>
        <time>2009-07-11T14:25:20Z</time>
      </trkpt>
      <trkpt lat="45.02406" lon="5.28679">
        <ele>229.88299560547</ele>
        <time>2009-07-11T14:25:25Z</time>
      </trkpt>
      <trkpt lat="45.02427" lon="5.28668">
        <ele>228.92999267578</ele>
        <time>2009-07-11T14:25:27Z</time>
      </trkpt>
      <trkpt lat="45.02489" lon="5.28686">
        <ele>229.19900512695</ele>
        <time>2009-07-11T14:25:33Z</time>
      </trkpt>
      <trkpt lat="45.02504" lon="5.28707">
        <ele>229.46299743652</ele>
        <time>2009-07-11T14:25:35Z</time>
      </trkpt>
      <trkpt lat="45.02521" lon="5.28744">
        <ele>229.20399475098</ele>
        <time>2009-07-11T14:25:38Z</time>
      </trkpt>
      <trkpt lat="45.02548" lon="5.28783">
        <ele>231.08200073242</ele>
        <time>2009-07-11T14:25:42Z</time>
      </trkpt>
      <trkpt lat="45.02575" lon="5.28795">
        <ele>230.70599365234</ele>
        <time>2009-07-11T14:25:45Z</time>
      </trkpt>
      <trkpt lat="45.02594" lon="5.28799">
        <ele>229.2859954834</ele>
        <time>2009-07-11T14:25:47Z</time>
      </trkpt>
      <trkpt lat="45.02616" lon="5.28799">
        <ele>228.30499267578</ele>
        <time>2009-07-11T14:25:49Z</time>
      </trkpt>
      <trkpt lat="45.02637" lon="5.28803">
        <ele>227.41600036621</ele>
        <time>2009-07-11T14:25:51Z</time>
      </trkpt>
      <trkpt lat="45.02679" lon="5.28829">
        <ele>225.51800537109</ele>
        <time>2009-07-11T14:25:55Z</time>
      </trkpt>
      <trkpt lat="45.02815" lon="5.28949">
        <ele>227.69500732422</ele>
        <time>2009-07-11T14:26:10Z</time>
      </trkpt>
      <trkpt lat="45.02857" lon="5.28962">
        <ele>230.13800048828</ele>
        <time>2009-07-11T14:26:15Z</time>
      </trkpt>
      <trkpt lat="45.02879" lon="5.2896">
        <ele>231.36599731445</ele>
        <time>2009-07-11T14:26:18Z</time>
      </trkpt>
      <trkpt lat="45.02946" lon="5.28946">
        <ele>233.56599426269</ele>
        <time>2009-07-11T14:26:28Z</time>
      </trkpt>
      <trkpt lat="45.03013" lon="5.28979">
        <ele>236.49499511719</ele>
        <time>2009-07-11T14:26:40Z</time>
      </trkpt>
      <trkpt lat="45.03097" lon="5.29062">
        <ele>235.97700500488</ele>
        <time>2009-07-11T14:26:55Z</time>
      </trkpt>
      <trkpt lat="45.03217" lon="5.29172">
        <ele>234.88400268555</ele>
        <time>2009-07-11T14:27:13Z</time>
      </trkpt>
      <trkpt lat="45.03325" lon="5.29258">
        <ele>236.22700500488</ele>
        <time>2009-07-11T14:27:31Z</time>
      </trkpt>
      <trkpt lat="45.03455" lon="5.29369">
        <ele>235.74699401856</ele>
        <time>2009-07-11T14:27:50Z</time>
      </trkpt>
      <trkpt lat="45.03461" lon="5.29376">
        <ele>236.06799316406</ele>
        <time>2009-07-11T14:27:51Z</time>
      </trkpt>
      <trkpt lat="45.03501" lon="5.29453">
        <ele>238.94400024414</ele>
        <time>2009-07-11T14:28:01Z</time>
      </trkpt>
      <trkpt lat="45.03538" lon="5.29536">
        <ele>241.80599975586</ele>
        <time>2009-07-11T14:28:12Z</time>
      </trkpt>
      <trkpt lat="45.03604" lon="5.29621">
        <ele>243.04400634766</ele>
        <time>2009-07-11T14:28:27Z</time>
      </trkpt>
      <trkpt lat="45.0366" lon="5.29685">
        <ele>243.61399841309</ele>
        <time>2009-07-11T14:28:40Z</time>
      </trkpt>
      <trkpt lat="45.03695" lon="5.29723">
        <ele>244.46800231934</ele>
        <time>2009-07-11T14:28:49Z</time>
      </trkpt>
      <trkpt lat="45.03722" lon="5.2974">
        <ele>243.60800170898</ele>
        <time>2009-07-11T14:28:55Z</time>
      </trkpt>
      <trkpt lat="45.03733" lon="5.29744">
        <ele>243.51300048828</ele>
        <time>2009-07-11T14:28:57Z</time>
      </trkpt>
      <trkpt lat="45.03762" lon="5.29746">
        <ele>242.80200195312</ele>
        <time>2009-07-11T14:29:02Z</time>
      </trkpt>
      <trkpt lat="45.038" lon="5.2974">
        <ele>241.65600585938</ele>
        <time>2009-07-11T14:29:08Z</time>
      </trkpt>
      <trkpt lat="45.0382" lon="5.29738">
        <ele>240.97900390625</ele>
        <time>2009-07-11T14:29:11Z</time>
      </trkpt>
      <trkpt lat="45.03865" lon="5.29733">
        <ele>240.93800354004</ele>
        <time>2009-07-11T14:29:18Z</time>
      </trkpt>
      <trkpt lat="45.03941" lon="5.29728">
        <ele>242.62699890137</ele>
        <time>2009-07-11T14:29:33Z</time>
      </trkpt>
      <trkpt lat="45.04021" lon="5.29718">
        <ele>240.07299804688</ele>
        <time>2009-07-11T14:29:49Z</time>
      </trkpt>
      <trkpt lat="45.04028" lon="5.29718">
        <ele>239.77699279785</ele>
        <time>2009-07-11T14:29:50Z</time>
      </trkpt>
      <trkpt lat="45.04131" lon="5.29712">
        <ele>236.95899963379</ele>
        <time>2009-07-11T14:30:04Z</time>
      </trkpt>
      <trkpt lat="45.04183" lon="5.29715">
        <ele>235.00999450684</ele>
        <time>2009-07-11T14:30:11Z</time>
      </trkpt>
      <trkpt lat="45.04209" lon="5.29719">
        <ele>233.10499572754</ele>
        <time>2009-07-11T14:30:14Z</time>
      </trkpt>
      <trkpt lat="45.04255" lon="5.29727">
        <ele>231.21600341797</ele>
        <time>2009-07-11T14:30:19Z</time>
      </trkpt>
      <trkpt lat="45.04371" lon="5.29752">
        <ele>229.06199645996</ele>
        <time>2009-07-11T14:30:31Z</time>
      </trkpt>
      <trkpt lat="45.04411" lon="5.29758">
        <ele>229.44299316406</ele>
        <time>2009-07-11T14:30:35Z</time>
      </trkpt>
      <trkpt lat="45.04453" lon="5.29757">
        <ele>229.57800292969</ele>
        <time>2009-07-11T14:30:39Z</time>
      </trkpt>
      <trkpt lat="45.04521" lon="5.29744">
        <ele>231.24699401856</ele>
        <time>2009-07-11T14:30:46Z</time>
      </trkpt>
      <trkpt lat="45.04571" lon="5.29713">
        <ele>232.12199401856</ele>
        <time>2009-07-11T14:30:52Z</time>
      </trkpt>
      <trkpt lat="45.04649" lon="5.29654">
        <ele>232.78999328613</ele>
        <time>2009-07-11T14:31:02Z</time>
      </trkpt>
      <trkpt lat="45.04813" lon="5.29536">
        <ele>230.81500244141</ele>
        <time>2009-07-11T14:31:23Z</time>
      </trkpt>
      <trkpt lat="45.04831" lon="5.29531">
        <ele>230.04400634766</ele>
        <time>2009-07-11T14:31:25Z</time>
      </trkpt>
      <trkpt lat="45.04891" lon="5.29489">
        <ele>230.52499389648</ele>
        <time>2009-07-11T14:31:33Z</time>
      </trkpt>
      <trkpt lat="45.04915" lon="5.29458">
        <ele>230.74099731445</ele>
        <time>2009-07-11T14:31:37Z</time>
      </trkpt>
      <trkpt lat="45.05043" lon="5.29363">
        <ele>228.91600036621</ele>
        <time>2009-07-11T14:31:54Z</time>
      </trkpt>
      <trkpt lat="45.0518" lon="5.29264">
        <ele>227.66299438477</ele>
        <time>2009-07-11T14:32:11Z</time>
      </trkpt>
      <trkpt lat="45.05219" lon="5.29233">
        <ele>227.20799255371</ele>
        <time>2009-07-11T14:32:16Z</time>
      </trkpt>
      <trkpt lat="45.05243" lon="5.29198">
        <ele>226.98699951172</ele>
        <time>2009-07-11T14:32:20Z</time>
      </trkpt>
      <trkpt lat="45.05342" lon="5.28964">
        <ele>225.04600524902</ele>
        <time>2009-07-11T14:32:41Z</time>
      </trkpt>
      <trkpt lat="45.05455" lon="5.28705">
        <ele>222.17599487305</ele>
        <time>2009-07-11T14:33:03Z</time>
      </trkpt>
      <trkpt lat="45.05488" lon="5.28656">
        <ele>222.39300537109</ele>
        <time>2009-07-11T14:33:08Z</time>
      </trkpt>
      <trkpt lat="45.05517" lon="5.28604">
        <ele>221.68299865723</ele>
        <time>2009-07-11T14:33:14Z</time>
      </trkpt>
      <trkpt lat="45.05521" lon="5.28377">
        <ele>221.60499572754</ele>
        <time>2009-07-11T14:33:32Z</time>
      </trkpt>
      <trkpt lat="45.0552" lon="5.28094">
        <ele>221.07699584961</ele>
        <time>2009-07-11T14:33:53Z</time>
      </trkpt>
      <trkpt lat="45.05518" lon="5.27829">
        <ele>221.15899658203</ele>
        <time>2009-07-11T14:34:12Z</time>
      </trkpt>
      <trkpt lat="45.05479" lon="5.27741">
        <ele>221.19500732422</ele>
        <time>2009-07-11T14:34:20Z</time>
      </trkpt>
      <trkpt lat="45.05471" lon="5.27734">
        <ele>221.27400207519</ele>
        <time>2009-07-11T14:34:21Z</time>
      </trkpt>
      <trkpt lat="45.05394" lon="5.27678">
        <ele>221.74899291992</ele>
        <time>2009-07-11T14:34:30Z</time>
      </trkpt>
      <trkpt lat="45.05334" lon="5.27677">
        <ele>220.76899719238</ele>
        <time>2009-07-11T14:34:36Z</time>
      </trkpt>
      <trkpt lat="45.05274" lon="5.27715">
        <ele>218.71200561523</ele>
        <time>2009-07-11T14:34:42Z</time>
      </trkpt>
      <trkpt lat="45.05215" lon="5.27691">
        <ele>218.06900024414</ele>
        <time>2009-07-11T14:34:48Z</time>
      </trkpt>
      <trkpt lat="45.05137" lon="5.27601">
        <ele>223.47500610352</ele>
        <time>2009-07-11T14:35:00Z</time>
      </trkpt>
      <trkpt lat="45.05083" lon="5.27535">
        <ele>226.50199890137</ele>
        <time>2009-07-11T14:35:11Z</time>
      </trkpt>
      <trkpt lat="45.05072" lon="5.27483">
        <ele>227.77200317383</ele>
        <time>2009-07-11T14:35:17Z</time>
      </trkpt>
      <trkpt lat="45.05075" lon="5.27365">
        <ele>230.46099853516</ele>
        <time>2009-07-11T14:35:29Z</time>
      </trkpt>
      <trkpt lat="45.05083" lon="5.27197">
        <ele>233.76899719238</ele>
        <time>2009-07-11T14:35:48Z</time>
      </trkpt>
      <trkpt lat="45.05115" lon="5.27032">
        <ele>231.46800231934</ele>
        <time>2009-07-11T14:36:03Z</time>
      </trkpt>
      <trkpt lat="45.05109" lon="5.26956">
        <ele>230.79899597168</ele>
        <time>2009-07-11T14:36:09Z</time>
      </trkpt>
      <trkpt lat="45.05089" lon="5.26893">
        <ele>229.47999572754</ele>
        <time>2009-07-11T14:36:14Z</time>
      </trkpt>
      <trkpt lat="45.05096" lon="5.26805">
        <ele>229.25999450684</ele>
        <time>2009-07-11T14:36:21Z</time>
      </trkpt>
      <trkpt lat="45.05103" lon="5.26796">
        <ele>229.73500061035</ele>
        <time>2009-07-11T14:36:22Z</time>
      </trkpt>
      <trkpt lat="45.05234" lon="5.26648">
        <ele>228.58500671387</ele>
        <time>2009-07-11T14:36:40Z</time>
      </trkpt>
      <trkpt lat="45.05333" lon="5.2656">
        <ele>225.77200317383</ele>
        <time>2009-07-11T14:36:53Z</time>
      </trkpt>
      <trkpt lat="45.0536" lon="5.26459">
        <ele>223.77900695801</ele>
        <time>2009-07-11T14:37:01Z</time>
      </trkpt>
      <trkpt lat="45.05359" lon="5.26445">
        <ele>223.22300720215</ele>
        <time>2009-07-11T14:37:02Z</time>
      </trkpt>
      <trkpt lat="45.05335" lon="5.26266">
        <ele>218.83399963379</ele>
        <time>2009-07-11T14:37:14Z</time>
      </trkpt>
      <trkpt lat="45.05332" lon="5.26235">
        <ele>218.19299316406</ele>
        <time>2009-07-11T14:37:16Z</time>
      </trkpt>
      <trkpt lat="45.05349" lon="5.26164">
        <ele>216.81900024414</ele>
        <time>2009-07-11T14:37:21Z</time>
      </trkpt>
      <trkpt lat="45.05397" lon="5.26081">
        <ele>214.66900634766</ele>
        <time>2009-07-11T14:37:28Z</time>
      </trkpt>
      <trkpt lat="45.05418" lon="5.2601">
        <ele>212.96099853516</ele>
        <time>2009-07-11T14:37:33Z</time>
      </trkpt>
      <trkpt lat="45.05444" lon="5.25825">
        <ele>210.72799682617</ele>
        <time>2009-07-11T14:37:45Z</time>
      </trkpt>
      <trkpt lat="45.05473" lon="5.25756">
        <ele>208.37699890137</ele>
        <time>2009-07-11T14:37:50Z</time>
      </trkpt>
      <trkpt lat="45.05571" lon="5.25643">
        <ele>200.84800720215</ele>
        <time>2009-07-11T14:38:00Z</time>
      </trkpt>
      <trkpt lat="45.05638" lon="5.25623">
        <ele>195.92300415039</ele>
        <time>2009-07-11T14:38:05Z</time>
      </trkpt>
      <trkpt lat="45.05665" lon="5.25624">
        <ele>193.97700500488</ele>
        <time>2009-07-11T14:38:07Z</time>
      </trkpt>
      <trkpt lat="45.05678" lon="5.25626">
        <ele>193.55999755859</ele>
        <time>2009-07-11T14:38:08Z</time>
      </trkpt>
      <trkpt lat="45.05739" lon="5.25687">
        <ele>189.14999389648</ele>
        <time>2009-07-11T14:38:14Z</time>
      </trkpt>
      <trkpt lat="45.05744" lon="5.25724">
        <ele>187.83700561523</ele>
        <time>2009-07-11T14:38:16Z</time>
      </trkpt>
      <trkpt lat="45.05769" lon="5.25763">
        <ele>187.41900634766</ele>
        <time>2009-07-11T14:38:22Z</time>
      </trkpt>
      <trkpt lat="45.05767" lon="5.25723">
        <ele>185.27499389648</ele>
        <time>2009-07-11T14:38:25Z</time>
      </trkpt>
      <trkpt lat="45.05764" lon="5.25661">
        <ele>182.71699523926</ele>
        <time>2009-07-11T14:38:29Z</time>
      </trkpt>
      <trkpt lat="45.05766" lon="5.25644">
        <ele>181.28999328613</ele>
        <time>2009-07-11T14:38:30Z</time>
      </trkpt>
      <trkpt lat="45.05776" lon="5.25596">
        <ele>179.57000732422</ele>
        <time>2009-07-11T14:38:33Z</time>
      </trkpt>
      <trkpt lat="45.05816" lon="5.25503">
        <ele>176.96299743652</ele>
        <time>2009-07-11T14:38:39Z</time>
      </trkpt>
      <trkpt lat="45.05835" lon="5.25459">
        <ele>177.07299804688</ele>
        <time>2009-07-11T14:38:42Z</time>
      </trkpt>
      <trkpt lat="45.05844" lon="5.25431">
        <ele>177.83099365234</ele>
        <time>2009-07-11T14:38:44Z</time>
      </trkpt>
      <trkpt lat="45.05846" lon="5.25378">
        <ele>180.05900573731</ele>
        <time>2009-07-11T14:38:48Z</time>
      </trkpt>
      <trkpt lat="45.05835" lon="5.25246">
        <ele>183.5</ele>
        <time>2009-07-11T14:39:01Z</time>
      </trkpt>
      <trkpt lat="45.05837" lon="5.25135">
        <ele>183.17599487305</ele>
        <time>2009-07-11T14:39:11Z</time>
      </trkpt>
      <trkpt lat="45.05838" lon="5.25123">
        <ele>183.07699584961</ele>
        <time>2009-07-11T14:39:12Z</time>
      </trkpt>
      <trkpt lat="45.0586" lon="5.25068">
        <ele>180.81799316406</ele>
        <time>2009-07-11T14:39:17Z</time>
      </trkpt>
      <trkpt lat="45.05973" lon="5.24963">
        <ele>178.96000671387</ele>
        <time>2009-07-11T14:39:31Z</time>
      </trkpt>
      <trkpt lat="45.06031" lon="5.24856">
        <ele>178.99899291992</ele>
        <time>2009-07-11T14:39:42Z</time>
      </trkpt>
      <trkpt lat="45.0604" lon="5.24827">
        <ele>180.47399902344</ele>
        <time>2009-07-11T14:39:45Z</time>
      </trkpt>
      <trkpt lat="45.06058" lon="5.24766">
        <ele>180.95899963379</ele>
        <time>2009-07-11T14:39:52Z</time>
      </trkpt>
      <trkpt lat="45.06057" lon="5.24742">
        <ele>181.88299560547</ele>
        <time>2009-07-11T14:39:55Z</time>
      </trkpt>
      <trkpt lat="45.06061" lon="5.24713">
        <ele>182.83700561523</ele>
        <time>2009-07-11T14:39:59Z</time>
      </trkpt>
      <trkpt lat="45.06061" lon="5.24704">
        <ele>183.21800231934</ele>
        <time>2009-07-11T14:40:03Z</time>
      </trkpt>
      <trkpt lat="45.0606" lon="5.24695">
        <ele>183.30599975586</ele>
        <time>2009-07-11T14:40:17Z</time>
      </trkpt>
      <trkpt lat="45.06027" lon="5.24683">
        <ele>183.79600524902</ele>
        <time>2009-07-11T14:40:25Z</time>
      </trkpt>
      <trkpt lat="45.06016" lon="5.24673">
        <ele>183.65800476074</ele>
        <time>2009-07-11T14:40:27Z</time>
      </trkpt>
      <trkpt lat="45.05998" lon="5.24629">
        <ele>184.80099487305</ele>
        <time>2009-07-11T14:40:32Z</time>
      </trkpt>
      <trkpt lat="45.05989" lon="5.24545">
        <ele>187.4049987793</ele>
        <time>2009-07-11T14:40:39Z</time>
      </trkpt>
      <trkpt lat="45.05987" lon="5.2451">
        <ele>187.93699645996</ele>
        <time>2009-07-11T14:40:42Z</time>
      </trkpt>
      <trkpt lat="45.05988" lon="5.24423">
        <ele>190.24200439453</ele>
        <time>2009-07-11T14:40:50Z</time>
      </trkpt>
      <trkpt lat="45.05989" lon="5.24403">
        <ele>190.65299987793</ele>
        <time>2009-07-11T14:40:52Z</time>
      </trkpt>
      <trkpt lat="45.06019" lon="5.2433">
        <ele>192.38200378418</ele>
        <time>2009-07-11T14:41:01Z</time>
      </trkpt>
      <trkpt lat="45.06083" lon="5.24271">
        <ele>194.66000366211</ele>
        <time>2009-07-11T14:41:14Z</time>
      </trkpt>
      <trkpt lat="45.06163" lon="5.24262">
        <ele>196.64999389648</ele>
        <time>2009-07-11T14:41:27Z</time>
      </trkpt>
      <trkpt lat="45.06286" lon="5.24243">
        <ele>198.63499450684</ele>
        <time>2009-07-11T14:41:46Z</time>
      </trkpt>
      <trkpt lat="45.06305" lon="5.24239">
        <ele>199.02299499512</ele>
        <time>2009-07-11T14:41:49Z</time>
      </trkpt>
      <trkpt lat="45.06416" lon="5.24174">
        <ele>197.93600463867</ele>
        <time>2009-07-11T14:42:05Z</time>
      </trkpt>
      <trkpt lat="45.06493" lon="5.24127">
        <ele>196.55799865723</ele>
        <time>2009-07-11T14:42:15Z</time>
      </trkpt>
      <trkpt lat="45.06538" lon="5.24156">
        <ele>194.05000305176</ele>
        <time>2009-07-11T14:42:21Z</time>
      </trkpt>
      <trkpt lat="45.06542" lon="5.24168">
        <ele>193.33500671387</ele>
        <time>2009-07-11T14:42:22Z</time>
      </trkpt>
      <trkpt lat="45.06557" lon="5.24218">
        <ele>190.94500732422</ele>
        <time>2009-07-11T14:42:26Z</time>
      </trkpt>
      <trkpt lat="45.06597" lon="5.24256">
        <ele>188.9940032959</ele>
        <time>2009-07-11T14:42:31Z</time>
      </trkpt>
      <trkpt lat="45.06724" lon="5.24303">
        <ele>191.09399414062</ele>
        <time>2009-07-11T14:42:46Z</time>
      </trkpt>
      <trkpt lat="45.06822" lon="5.24338">
        <ele>193.84300231934</ele>
        <time>2009-07-11T14:43:02Z</time>
      </trkpt>
      <trkpt lat="45.06888" lon="5.24363">
        <ele>196.71000671387</ele>
        <time>2009-07-11T14:43:15Z</time>
      </trkpt>
      <trkpt lat="45.06911" lon="5.24371">
        <ele>197.92799377441</ele>
        <time>2009-07-11T14:43:20Z</time>
      </trkpt>
      <trkpt lat="45.06969" lon="5.24399">
        <ele>200.5119934082</ele>
        <time>2009-07-11T14:43:34Z</time>
      </trkpt>
      <trkpt lat="45.06979" lon="5.24401">
        <ele>201.28399658203</ele>
        <time>2009-07-11T14:43:36Z</time>
      </trkpt>
      <trkpt lat="45.06995" lon="5.24386">
        <ele>200.8809967041</ele>
        <time>2009-07-11T14:43:40Z</time>
      </trkpt>
      <trkpt lat="45.07039" lon="5.24322">
        <ele>202.30900573731</ele>
        <time>2009-07-11T14:43:50Z</time>
      </trkpt>
      <trkpt lat="45.07067" lon="5.24251">
        <ele>202.07400512695</ele>
        <time>2009-07-11T14:43:59Z</time>
      </trkpt>
      <trkpt lat="45.07101" lon="5.24082">
        <ele>200.75999450684</ele>
        <time>2009-07-11T14:44:15Z</time>
      </trkpt>
      <trkpt lat="45.0714" lon="5.24047">
        <ele>200.25</ele>
        <time>2009-07-11T14:44:21Z</time>
      </trkpt>
      <trkpt lat="45.07148" lon="5.24049">
        <ele>200.84300231934</ele>
        <time>2009-07-11T14:44:22Z</time>
      </trkpt>
      <trkpt lat="45.072" lon="5.24069">
        <ele>203.17199707031</ele>
        <time>2009-07-11T14:44:29Z</time>
      </trkpt>
      <trkpt lat="45.07212" lon="5.24071">
        <ele>204.14799499512</ele>
        <time>2009-07-11T14:44:31Z</time>
      </trkpt>
      <trkpt lat="45.07238" lon="5.2407">
        <ele>205.2440032959</ele>
        <time>2009-07-11T14:44:36Z</time>
      </trkpt>
      <trkpt lat="45.0731" lon="5.24063">
        <ele>208.16299438477</ele>
        <time>2009-07-11T14:44:51Z</time>
      </trkpt>
      <trkpt lat="45.07401" lon="5.24054">
        <ele>208.44000244141</ele>
        <time>2009-07-11T14:45:07Z</time>
      </trkpt>
      <trkpt lat="45.07521" lon="5.2404">
        <ele>208.88200378418</ele>
        <time>2009-07-11T14:45:24Z</time>
      </trkpt>
      <trkpt lat="45.07648" lon="5.24029">
        <ele>210.48300170898</ele>
        <time>2009-07-11T14:45:42Z</time>
      </trkpt>
      <trkpt lat="45.07675" lon="5.24026">
        <ele>210.46099853516</ele>
        <time>2009-07-11T14:45:46Z</time>
      </trkpt>
      <trkpt lat="45.07718" lon="5.23986">
        <ele>212.06700134277</ele>
        <time>2009-07-11T14:45:55Z</time>
      </trkpt>
      <trkpt lat="45.07761" lon="5.23842">
        <ele>212.06799316406</ele>
        <time>2009-07-11T14:46:11Z</time>
      </trkpt>
      <trkpt lat="45.0782" lon="5.23639">
        <ele>212.89599609375</ele>
        <time>2009-07-11T14:46:31Z</time>
      </trkpt>
      <trkpt lat="45.07868" lon="5.23452">
        <ele>212.09399414062</ele>
        <time>2009-07-11T14:46:49Z</time>
      </trkpt>
      <trkpt lat="45.07873" lon="5.2343">
        <ele>212.08399963379</ele>
        <time>2009-07-11T14:46:51Z</time>
      </trkpt>
      <trkpt lat="45.07925" lon="5.23313">
        <ele>210.59199523926</ele>
        <time>2009-07-11T14:47:03Z</time>
      </trkpt>
      <trkpt lat="45.07977" lon="5.23183">
        <ele>211.5950012207</ele>
        <time>2009-07-11T14:47:17Z</time>
      </trkpt>
      <trkpt lat="45.08038" lon="5.22995">
        <ele>209.96699523926</ele>
        <time>2009-07-11T14:47:35Z</time>
      </trkpt>
      <trkpt lat="45.08051" lon="5.2291">
        <ele>208.18400573731</ele>
        <time>2009-07-11T14:47:42Z</time>
      </trkpt>
      <trkpt lat="45.08142" lon="5.22707">
        <ele>206.58500671387</ele>
        <time>2009-07-11T14:48:00Z</time>
      </trkpt>
      <trkpt lat="45.08227" lon="5.22589">
        <ele>198.41000366211</ele>
        <time>2009-07-11T14:48:11Z</time>
      </trkpt>
      <trkpt lat="45.08297" lon="5.22493">
        <ele>198.33799743652</ele>
        <time>2009-07-11T14:48:20Z</time>
      </trkpt>
      <trkpt lat="45.08316" lon="5.22447">
        <ele>199.86799621582</ele>
        <time>2009-07-11T14:48:24Z</time>
      </trkpt>
      <trkpt lat="45.08341" lon="5.22284">
        <ele>199.81399536133</ele>
        <time>2009-07-11T14:48:38Z</time>
      </trkpt>
      <trkpt lat="45.08384" lon="5.22155">
        <ele>199.92199707031</ele>
        <time>2009-07-11T14:48:51Z</time>
      </trkpt>
      <trkpt lat="45.08456" lon="5.22035">
        <ele>200.17999267578</ele>
        <time>2009-07-11T14:49:07Z</time>
      </trkpt>
      <trkpt lat="45.0852" lon="5.21874">
        <ele>197.90800476074</ele>
        <time>2009-07-11T14:49:24Z</time>
      </trkpt>
      <trkpt lat="45.08533" lon="5.21846">
        <ele>198.27600097656</ele>
        <time>2009-07-11T14:49:27Z</time>
      </trkpt>
      <trkpt lat="45.08549" lon="5.21823">
        <ele>198.92900085449</ele>
        <time>2009-07-11T14:49:30Z</time>
      </trkpt>
      <trkpt lat="45.08561" lon="5.21813">
        <ele>199.79400634766</ele>
        <time>2009-07-11T14:49:32Z</time>
      </trkpt>
      <trkpt lat="45.08592" lon="5.21812">
        <ele>200.93099975586</ele>
        <time>2009-07-11T14:49:37Z</time>
      </trkpt>
      <trkpt lat="45.08648" lon="5.21834">
        <ele>202.00199890137</ele>
        <time>2009-07-11T14:49:47Z</time>
      </trkpt>
      <trkpt lat="45.08676" lon="5.21826">
        <ele>202.44000244141</ele>
        <time>2009-07-11T14:49:52Z</time>
      </trkpt>
      <trkpt lat="45.08699" lon="5.21805">
        <ele>203.68299865723</ele>
        <time>2009-07-11T14:49:58Z</time>
      </trkpt>
      <trkpt lat="45.08701" lon="5.21803">
        <ele>203.47399902344</ele>
        <time>2009-07-11T14:49:59Z</time>
      </trkpt>
      <trkpt lat="45.08702" lon="5.21799">
        <ele>203.38299560547</ele>
        <time>2009-07-11T14:50:00Z</time>
      </trkpt>
      <trkpt lat="45.08696" lon="5.21771">
        <ele>202.01499938965</ele>
        <time>2009-07-11T14:50:04Z</time>
      </trkpt>
      <trkpt lat="45.08653" lon="5.21696">
        <ele>200.74699401856</ele>
        <time>2009-07-11T14:50:13Z</time>
      </trkpt>
      <trkpt lat="45.08584" lon="5.21534">
        <ele>194.07499694824</ele>
        <time>2009-07-11T14:50:27Z</time>
      </trkpt>
      <trkpt lat="45.08531" lon="5.21369">
        <ele>184.80499267578</ele>
        <time>2009-07-11T14:50:37Z</time>
      </trkpt>
      <trkpt lat="45.08504" lon="5.21277">
        <ele>180.1549987793</ele>
        <time>2009-07-11T14:50:42Z</time>
      </trkpt>
      <trkpt lat="45.08484" lon="5.21203">
        <ele>177.34800720215</ele>
        <time>2009-07-11T14:50:46Z</time>
      </trkpt>
      <trkpt lat="45.08483" lon="5.21145">
        <ele>174.93400573731</ele>
        <time>2009-07-11T14:50:49Z</time>
      </trkpt>
      <trkpt lat="45.08492" lon="5.21109">
        <ele>173.54100036621</ele>
        <time>2009-07-11T14:50:51Z</time>
      </trkpt>
      <trkpt lat="45.08515" lon="5.2104">
        <ele>171.72099304199</ele>
        <time>2009-07-11T14:50:55Z</time>
      </trkpt>
      <trkpt lat="45.08522" lon="5.21004">
        <ele>171.30200195312</ele>
        <time>2009-07-11T14:50:57Z</time>
      </trkpt>
      <trkpt lat="45.08526" lon="5.20911">
        <ele>168.46200561523</ele>
        <time>2009-07-11T14:51:02Z</time>
      </trkpt>
      <trkpt lat="45.08522" lon="5.20707">
        <ele>170.46000671387</ele>
        <time>2009-07-11T14:51:15Z</time>
      </trkpt>
      <trkpt lat="45.08519" lon="5.20504">
        <ele>169.89900207519</ele>
        <time>2009-07-11T14:51:30Z</time>
      </trkpt>
      <trkpt lat="45.08514" lon="5.20239">
        <ele>169.72999572754</ele>
        <time>2009-07-11T14:51:51Z</time>
      </trkpt>
      <trkpt lat="45.08511" lon="5.20012">
        <ele>168.71299743652</ele>
        <time>2009-07-11T14:52:10Z</time>
      </trkpt>
      <trkpt lat="45.08511" lon="5.19799">
        <ele>168.08500671387</ele>
        <time>2009-07-11T14:52:29Z</time>
      </trkpt>
      <trkpt lat="45.08515" lon="5.19573">
        <ele>165.8690032959</ele>
        <time>2009-07-11T14:52:47Z</time>
      </trkpt>
      <trkpt lat="45.0852" lon="5.19487">
        <ele>164.22999572754</ele>
        <time>2009-07-11T14:52:53Z</time>
      </trkpt>
      <trkpt lat="45.08525" lon="5.19411">
        <ele>162.1309967041</ele>
        <time>2009-07-11T14:52:58Z</time>
      </trkpt>
      <trkpt lat="45.08546" lon="5.1914">
        <ele>160.21200561523</ele>
        <time>2009-07-11T14:53:17Z</time>
      </trkpt>
      <trkpt lat="45.08564" lon="5.18902">
        <ele>160.05900573731</ele>
        <time>2009-07-11T14:53:36Z</time>
      </trkpt>
      <trkpt lat="45.08567" lon="5.18837">
        <ele>159.82400512695</ele>
        <time>2009-07-11T14:53:41Z</time>
      </trkpt>
      <trkpt lat="45.08572" lon="5.18799">
        <ele>159.44999694824</ele>
        <time>2009-07-11T14:53:44Z</time>
      </trkpt>
      <trkpt lat="45.08573" lon="5.18773">
        <ele>159.34700012207</ele>
        <time>2009-07-11T14:53:46Z</time>
      </trkpt>
      <trkpt lat="45.08575" lon="5.18582">
        <ele>158.04499816894</ele>
        <time>2009-07-11T14:54:00Z</time>
      </trkpt>
      <trkpt lat="45.08572" lon="5.18407">
        <ele>160.05499267578</ele>
        <time>2009-07-11T14:54:14Z</time>
      </trkpt>
      <trkpt lat="45.08572" lon="5.18335">
        <ele>162.68299865723</ele>
        <time>2009-07-11T14:54:22Z</time>
      </trkpt>
      <trkpt lat="45.0857" lon="5.18302">
        <ele>164.15600585938</ele>
        <time>2009-07-11T14:54:26Z</time>
      </trkpt>
      <trkpt lat="45.08529" lon="5.18154">
        <ele>167.31399536133</ele>
        <time>2009-07-11T14:54:44Z</time>
      </trkpt>
      <trkpt lat="45.08477" lon="5.18009">
        <ele>169.95799255371</ele>
        <time>2009-07-11T14:55:03Z</time>
      </trkpt>
      <trkpt lat="45.08416" lon="5.17893">
        <ele>172.38200378418</ele>
        <time>2009-07-11T14:55:22Z</time>
      </trkpt>
      <trkpt lat="45.08352" lon="5.17791">
        <ele>174.86599731445</ele>
        <time>2009-07-11T14:55:39Z</time>
      </trkpt>
      <trkpt lat="45.08258" lon="5.17671">
        <ele>175.36399841309</ele>
        <time>2009-07-11T14:55:58Z</time>
      </trkpt>
      <trkpt lat="45.08175" lon="5.17553">
        <ele>177.82000732422</ele>
        <time>2009-07-11T14:56:17Z</time>
      </trkpt>
      <trkpt lat="45.08104" lon="5.17443">
        <ele>180.04100036621</ele>
        <time>2009-07-11T14:56:36Z</time>
      </trkpt>
      <trkpt lat="45.08029" lon="5.17316">
        <ele>182.62699890137</ele>
        <time>2009-07-11T14:56:58Z</time>
      </trkpt>
      <trkpt lat="45.07986" lon="5.17257">
        <ele>186.54200744629</ele>
        <time>2009-07-11T14:57:11Z</time>
      </trkpt>
      <trkpt lat="45.07954" lon="5.17208">
        <ele>188.38800048828</ele>
        <time>2009-07-11T14:57:21Z</time>
      </trkpt>
      <trkpt lat="45.07901" lon="5.17112">
        <ele>190.7140045166</ele>
        <time>2009-07-11T14:57:38Z</time>
      </trkpt>
      <trkpt lat="45.07843" lon="5.16983">
        <ele>191.02299499512</ele>
        <time>2009-07-11T14:57:55Z</time>
      </trkpt>
      <trkpt lat="45.07794" lon="5.16818">
        <ele>192.25300598144</ele>
        <time>2009-07-11T14:58:14Z</time>
      </trkpt>
      <trkpt lat="45.0775" lon="5.16619">
        <ele>193.97900390625</ele>
        <time>2009-07-11T14:58:35Z</time>
      </trkpt>
      <trkpt lat="45.07698" lon="5.1639">
        <ele>193.90100097656</ele>
        <time>2009-07-11T14:58:58Z</time>
      </trkpt>
      <trkpt lat="45.07673" lon="5.16274">
        <ele>193.40899658203</ele>
        <time>2009-07-11T14:59:09Z</time>
      </trkpt>
      <trkpt lat="45.07679" lon="5.1624">
        <ele>193.12199401856</ele>
        <time>2009-07-11T14:59:13Z</time>
      </trkpt>
      <trkpt lat="45.07727" lon="5.16167">
        <ele>194.62600708008</ele>
        <time>2009-07-11T14:59:26Z</time>
      </trkpt>
      <trkpt lat="45.0778" lon="5.16077">
        <ele>199.66299438477</ele>
        <time>2009-07-11T14:59:44Z</time>
      </trkpt>
      <trkpt lat="45.07791" lon="5.16049">
        <ele>200.86999511719</ele>
        <time>2009-07-11T14:59:49Z</time>
      </trkpt>
      <trkpt lat="45.07801" lon="5.16005">
        <ele>202.29100036621</ele>
        <time>2009-07-11T14:59:56Z</time>
      </trkpt>
      <trkpt lat="45.07828" lon="5.15904">
        <ele>203.32499694824</ele>
        <time>2009-07-11T15:00:10Z</time>
      </trkpt>
      <trkpt lat="45.07867" lon="5.15743">
        <ele>204.46699523926</ele>
        <time>2009-07-11T15:00:29Z</time>
      </trkpt>
      <trkpt lat="45.07898" lon="5.1558">
        <ele>206.52799987793</ele>
        <time>2009-07-11T15:00:48Z</time>
      </trkpt>
      <trkpt lat="45.07927" lon="5.15447">
        <ele>208.71200561523</ele>
        <time>2009-07-11T15:01:04Z</time>
      </trkpt>
      <trkpt lat="45.07967" lon="5.15291">
        <ele>207.15699768066</ele>
        <time>2009-07-11T15:01:21Z</time>
      </trkpt>
      <trkpt lat="45.07989" lon="5.1514">
        <ele>207.2799987793</ele>
        <time>2009-07-11T15:01:36Z</time>
      </trkpt>
      <trkpt lat="45.08006" lon="5.15046">
        <ele>208.07600402832</ele>
        <time>2009-07-11T15:01:48Z</time>
      </trkpt>
      <trkpt lat="45.08042" lon="5.14904">
        <ele>203.84100341797</ele>
        <time>2009-07-11T15:02:01Z</time>
      </trkpt>
      <trkpt lat="45.08106" lon="5.14701">
        <ele>204.18899536133</ele>
        <time>2009-07-11T15:02:19Z</time>
      </trkpt>
      <trkpt lat="45.08157" lon="5.14554">
        <ele>207.23100280762</ele>
        <time>2009-07-11T15:02:35Z</time>
      </trkpt>
      <trkpt lat="45.08192" lon="5.14434">
        <ele>207.57400512695</ele>
        <time>2009-07-11T15:02:50Z</time>
      </trkpt>
      <trkpt lat="45.08245" lon="5.14277">
        <ele>207.39399719238</ele>
        <time>2009-07-11T15:03:06Z</time>
      </trkpt>
      <trkpt lat="45.08309" lon="5.14059">
        <ele>203.95199584961</ele>
        <time>2009-07-11T15:03:25Z</time>
      </trkpt>
      <trkpt lat="45.08367" lon="5.13877">
        <ele>204.81100463867</ele>
        <time>2009-07-11T15:03:42Z</time>
      </trkpt>
      <trkpt lat="45.08447" lon="5.13767">
        <ele>204.10800170898</ele>
        <time>2009-07-11T15:03:57Z</time>
      </trkpt>
      <trkpt lat="45.08568" lon="5.13609">
        <ele>203.99200439453</ele>
        <time>2009-07-11T15:04:18Z</time>
      </trkpt>
      <trkpt lat="45.08622" lon="5.13502">
        <ele>204.13000488281</ele>
        <time>2009-07-11T15:04:30Z</time>
      </trkpt>
      <trkpt lat="45.08631" lon="5.13485">
        <ele>204.11399841309</ele>
        <time>2009-07-11T15:04:32Z</time>
      </trkpt>
      <trkpt lat="45.08678" lon="5.13367">
        <ele>204.30900573731</ele>
        <time>2009-07-11T15:04:44Z</time>
      </trkpt>
      <trkpt lat="45.08726" lon="5.13256">
        <ele>204.06300354004</ele>
        <time>2009-07-11T15:04:56Z</time>
      </trkpt>
      <trkpt lat="45.08755" lon="5.13186">
        <ele>204.18200683594</ele>
        <time>2009-07-11T15:05:04Z</time>
      </trkpt>
      <trkpt lat="45.0878" lon="5.13137">
        <ele>204.66799926758</ele>
        <time>2009-07-11T15:05:12Z</time>
      </trkpt>
      <trkpt lat="45.08795" lon="5.13057">
        <ele>204.46299743652</ele>
        <time>2009-07-11T15:05:24Z</time>
      </trkpt>
      <trkpt lat="45.088" lon="5.13037">
        <ele>204.57099914551</ele>
        <time>2009-07-11T15:05:27Z</time>
      </trkpt>
      <trkpt lat="45.08802" lon="5.13011">
        <ele>204.20300292969</ele>
        <time>2009-07-11T15:05:31Z</time>
      </trkpt>
      <trkpt lat="45.08805" lon="5.12915">
        <ele>205.77099609375</ele>
        <time>2009-07-11T15:05:43Z</time>
      </trkpt>
      <trkpt lat="45.08817" lon="5.12845">
        <ele>206.79699707031</ele>
        <time>2009-07-11T15:05:51Z</time>
      </trkpt>
      <trkpt lat="45.08821" lon="5.12815">
        <ele>207.41299438477</ele>
        <time>2009-07-11T15:05:55Z</time>
      </trkpt>
      <trkpt lat="45.08854" lon="5.12697">
        <ele>208.43200683594</ele>
        <time>2009-07-11T15:06:10Z</time>
      </trkpt>
      <trkpt lat="45.08902" lon="5.12557">
        <ele>209.60800170898</ele>
        <time>2009-07-11T15:06:27Z</time>
      </trkpt>
      <trkpt lat="45.08921" lon="5.12423">
        <ele>207.79200744629</ele>
        <time>2009-07-11T15:06:40Z</time>
      </trkpt>
      <trkpt lat="45.08908" lon="5.12172">
        <ele>203.29899597168</ele>
        <time>2009-07-11T15:06:58Z</time>
      </trkpt>
      <trkpt lat="45.08888" lon="5.11863">
        <ele>200.89700317383</ele>
        <time>2009-07-11T15:07:20Z</time>
      </trkpt>
      <trkpt lat="45.08867" lon="5.11566">
        <ele>200.58000183106</ele>
        <time>2009-07-11T15:07:42Z</time>
      </trkpt>
      <trkpt lat="45.08846" lon="5.11324">
        <ele>197.74899291992</ele>
        <time>2009-07-11T15:08:00Z</time>
      </trkpt>
      <trkpt lat="45.08815" lon="5.11078">
        <ele>196.73199462891</ele>
        <time>2009-07-11T15:08:18Z</time>
      </trkpt>
      <trkpt lat="45.08788" lon="5.1088">
        <ele>196.19000244141</ele>
        <time>2009-07-11T15:08:33Z</time>
      </trkpt>
      <trkpt lat="45.08773" lon="5.1066">
        <ele>196.54100036621</ele>
        <time>2009-07-11T15:08:51Z</time>
      </trkpt>
      <trkpt lat="45.08719" lon="5.10442">
        <ele>197.53799438477</ele>
        <time>2009-07-11T15:09:10Z</time>
      </trkpt>
      <trkpt lat="45.0866" lon="5.10229">
        <ele>198.55999755859</ele>
        <time>2009-07-11T15:09:31Z</time>
      </trkpt>
      <trkpt lat="45.08624" lon="5.10061">
        <ele>198.62399291992</ele>
        <time>2009-07-11T15:09:47Z</time>
      </trkpt>
      <trkpt lat="45.08563" lon="5.09837">
        <ele>196.59899902344</ele>
        <time>2009-07-11T15:10:06Z</time>
      </trkpt>
      <trkpt lat="45.08519" lon="5.09702">
        <ele>195.91200256348</ele>
        <time>2009-07-11T15:10:18Z</time>
      </trkpt>
      <trkpt lat="45.08466" lon="5.09557">
        <ele>194.11199951172</ele>
        <time>2009-07-11T15:10:30Z</time>
      </trkpt>
      <trkpt lat="45.08471" lon="5.09402">
        <ele>194.08599853516</ele>
        <time>2009-07-11T15:10:42Z</time>
      </trkpt>
      <trkpt lat="45.08504" lon="5.09283">
        <ele>194.79400634766</ele>
        <time>2009-07-11T15:10:53Z</time>
      </trkpt>
      <trkpt lat="45.08562" lon="5.09188">
        <ele>196.82499694824</ele>
        <time>2009-07-11T15:11:06Z</time>
      </trkpt>
      <trkpt lat="45.08602" lon="5.09036">
        <ele>198.74899291992</ele>
        <time>2009-07-11T15:11:23Z</time>
      </trkpt>
      <trkpt lat="45.08669" lon="5.08898">
        <ele>200.50999450684</ele>
        <time>2009-07-11T15:11:41Z</time>
      </trkpt>
      <trkpt lat="45.08706" lon="5.08771">
        <ele>201.68800354004</ele>
        <time>2009-07-11T15:11:56Z</time>
      </trkpt>
      <trkpt lat="45.08742" lon="5.08624">
        <ele>204.31199645996</ele>
        <time>2009-07-11T15:12:14Z</time>
      </trkpt>
      <trkpt lat="45.08758" lon="5.08575">
        <ele>205.41299438477</ele>
        <time>2009-07-11T15:12:21Z</time>
      </trkpt>
      <trkpt lat="45.08755" lon="5.08557">
        <ele>205.14700317383</ele>
        <time>2009-07-11T15:12:23Z</time>
      </trkpt>
      <trkpt lat="45.08758" lon="5.08472">
        <ele>207.27600097656</ele>
        <time>2009-07-11T15:12:32Z</time>
      </trkpt>
      <trkpt lat="45.08773" lon="5.08356">
        <ele>211.65600585938</ele>
        <time>2009-07-11T15:12:47Z</time>
      </trkpt>
      <trkpt lat="45.0879" lon="5.0823">
        <ele>216.52200317383</ele>
        <time>2009-07-11T15:13:03Z</time>
      </trkpt>
      <trkpt lat="45.08812" lon="5.08105">
        <ele>220.03199768066</ele>
        <time>2009-07-11T15:13:22Z</time>
      </trkpt>
      <trkpt lat="45.08838" lon="5.07969">
        <ele>223.92700195312</ele>
        <time>2009-07-11T15:13:42Z</time>
      </trkpt>
      <trkpt lat="45.08848" lon="5.07919">
        <ele>225.63200378418</ele>
        <time>2009-07-11T15:13:50Z</time>
      </trkpt>
      <trkpt lat="45.08874" lon="5.07867">
        <ele>227.87199401856</ele>
        <time>2009-07-11T15:14:00Z</time>
      </trkpt>
      <trkpt lat="45.08941" lon="5.07818">
        <ele>230.34800720215</ele>
        <time>2009-07-11T15:14:16Z</time>
      </trkpt>
      <trkpt lat="45.08996" lon="5.07784">
        <ele>231.7200012207</ele>
        <time>2009-07-11T15:14:28Z</time>
      </trkpt>
      <trkpt lat="45.09083" lon="5.07706">
        <ele>231.60200500488</ele>
        <time>2009-07-11T15:14:46Z</time>
      </trkpt>
      <trkpt lat="45.09154" lon="5.0761">
        <ele>228.70799255371</ele>
        <time>2009-07-11T15:14:59Z</time>
      </trkpt>
      <trkpt lat="45.09225" lon="5.07459">
        <ele>225.29899597168</ele>
        <time>2009-07-11T15:15:13Z</time>
      </trkpt>
      <trkpt lat="45.09235" lon="5.07436">
        <ele>224.46200561523</ele>
        <time>2009-07-11T15:15:15Z</time>
      </trkpt>
      <trkpt lat="45.09319" lon="5.07259">
        <ele>224.40899658203</ele>
        <time>2009-07-11T15:15:32Z</time>
      </trkpt>
      <trkpt lat="45.09336" lon="5.07225">
        <ele>224.94900512695</ele>
        <time>2009-07-11T15:15:36Z</time>
      </trkpt>
      <trkpt lat="45.09356" lon="5.072">
        <ele>225.87100219727</ele>
        <time>2009-07-11T15:15:40Z</time>
      </trkpt>
      <trkpt lat="45.09375" lon="5.07189">
        <ele>225.73500061035</ele>
        <time>2009-07-11T15:15:43Z</time>
      </trkpt>
      <trkpt lat="45.09394" lon="5.07124">
        <ele>224.24800109863</ele>
        <time>2009-07-11T15:15:50Z</time>
      </trkpt>
      <trkpt lat="45.09381" lon="5.06906">
        <ele>219.24699401856</ele>
        <time>2009-07-11T15:16:06Z</time>
      </trkpt>
      <trkpt lat="45.0938" lon="5.06891">
        <ele>219.02200317383</ele>
        <time>2009-07-11T15:16:07Z</time>
      </trkpt>
      <trkpt lat="45.09375" lon="5.0669">
        <ele>217.61199951172</ele>
        <time>2009-07-11T15:16:21Z</time>
      </trkpt>
      <trkpt lat="45.09384" lon="5.06495">
        <ele>215.85899353027</ele>
        <time>2009-07-11T15:16:35Z</time>
      </trkpt>
      <trkpt lat="45.09374" lon="5.06215">
        <ele>214.51699829102</ele>
        <time>2009-07-11T15:16:56Z</time>
      </trkpt>
      <trkpt lat="45.09378" lon="5.05979">
        <ele>211.89599609375</ele>
        <time>2009-07-11T15:17:13Z</time>
      </trkpt>
      <trkpt lat="45.09409" lon="5.05801">
        <ele>212.99899291992</ele>
        <time>2009-07-11T15:17:28Z</time>
      </trkpt>
      <trkpt lat="45.09436" lon="5.05644">
        <ele>214.24800109863</ele>
        <time>2009-07-11T15:17:43Z</time>
      </trkpt>
      <trkpt lat="45.09434" lon="5.05509">
        <ele>214.90199279785</ele>
        <time>2009-07-11T15:17:56Z</time>
      </trkpt>
      <trkpt lat="45.09401" lon="5.05338">
        <ele>212.84100341797</ele>
        <time>2009-07-11T15:18:11Z</time>
      </trkpt>
      <trkpt lat="45.09328" lon="5.05207">
        <ele>213.12899780273</ele>
        <time>2009-07-11T15:18:25Z</time>
      </trkpt>
      <trkpt lat="45.09249" lon="5.0505">
        <ele>211.71299743652</ele>
        <time>2009-07-11T15:18:42Z</time>
      </trkpt>
      <trkpt lat="45.09246" lon="5.05039">
        <ele>211.22500610352</ele>
        <time>2009-07-11T15:18:43Z</time>
      </trkpt>
      <trkpt lat="45.09253" lon="5.04959">
        <ele>209.15199279785</ele>
        <time>2009-07-11T15:18:50Z</time>
      </trkpt>
      <trkpt lat="45.09267" lon="5.04941">
        <ele>208.2440032959</ele>
        <time>2009-07-11T15:18:52Z</time>
      </trkpt>
      <trkpt lat="45.09299" lon="5.04893">
        <ele>206.79800415039</ele>
        <time>2009-07-11T15:18:57Z</time>
      </trkpt>
      <trkpt lat="45.09309" lon="5.04824">
        <ele>205.45199584961</ele>
        <time>2009-07-11T15:19:03Z</time>
      </trkpt>
      <trkpt lat="45.09312" lon="5.0477">
        <ele>206.46299743652</ele>
        <time>2009-07-11T15:19:08Z</time>
      </trkpt>
      <trkpt lat="45.09327" lon="5.04741">
        <ele>206.95399475098</ele>
        <time>2009-07-11T15:19:12Z</time>
      </trkpt>
      <trkpt lat="45.0938" lon="5.04697">
        <ele>208.10000610352</ele>
        <time>2009-07-11T15:19:21Z</time>
      </trkpt>
      <trkpt lat="45.09435" lon="5.0467">
        <ele>210.7799987793</ele>
        <time>2009-07-11T15:19:30Z</time>
      </trkpt>
      <trkpt lat="45.09515" lon="5.04635">
        <ele>212.50199890137</ele>
        <time>2009-07-11T15:19:42Z</time>
      </trkpt>
      <trkpt lat="45.09568" lon="5.046">
        <ele>214.02099609375</ele>
        <time>2009-07-11T15:19:50Z</time>
      </trkpt>
      <trkpt lat="45.09574" lon="5.04594">
        <ele>213.95700073242</ele>
        <time>2009-07-11T15:19:51Z</time>
      </trkpt>
      <trkpt lat="45.0961" lon="5.04537">
        <ele>215.67399597168</ele>
        <time>2009-07-11T15:19:59Z</time>
      </trkpt>
      <trkpt lat="45.09629" lon="5.04497">
        <ele>216.98500061035</ele>
        <time>2009-07-11T15:20:05Z</time>
      </trkpt>
      <trkpt lat="45.09648" lon="5.04408">
        <ele>219.18299865723</ele>
        <time>2009-07-11T15:20:17Z</time>
      </trkpt>
      <trkpt lat="45.09694" lon="5.04317">
        <ele>218.3809967041</ele>
        <time>2009-07-11T15:20:30Z</time>
      </trkpt>
      <trkpt lat="45.09797" lon="5.04213">
        <ele>215.70100402832</ele>
        <time>2009-07-11T15:20:45Z</time>
      </trkpt>
      <trkpt lat="45.09855" lon="5.04149">
        <ele>216.06700134277</ele>
        <time>2009-07-11T15:20:54Z</time>
      </trkpt>
      <trkpt lat="45.09878" lon="5.04092">
        <ele>215.83799743652</ele>
        <time>2009-07-11T15:21:00Z</time>
      </trkpt>
      <trkpt lat="45.09891" lon="5.04025">
        <ele>215.31599426269</ele>
        <time>2009-07-11T15:21:06Z</time>
      </trkpt>
      <trkpt lat="45.09886" lon="5.03968">
        <ele>215.52400207519</ele>
        <time>2009-07-11T15:21:11Z</time>
      </trkpt>
      <trkpt lat="45.09822" lon="5.03803">
        <ele>216.27600097656</ele>
        <time>2009-07-11T15:21:27Z</time>
      </trkpt>
      <trkpt lat="45.09795" lon="5.03663">
        <ele>219.74499511719</ele>
        <time>2009-07-11T15:21:41Z</time>
      </trkpt>
      <trkpt lat="45.09792" lon="5.03644">
        <ele>220.37300109863</ele>
        <time>2009-07-11T15:21:43Z</time>
      </trkpt>
      <trkpt lat="45.09792" lon="5.03618">
        <ele>219.43899536133</ele>
        <time>2009-07-11T15:21:46Z</time>
      </trkpt>
      <trkpt lat="45.09802" lon="5.03572">
        <ele>218.94200134277</ele>
        <time>2009-07-11T15:21:51Z</time>
      </trkpt>
      <trkpt lat="45.09874" lon="5.0346">
        <ele>217.42999267578</ele>
        <time>2009-07-11T15:22:05Z</time>
      </trkpt>
      <trkpt lat="45.09917" lon="5.03354">
        <ele>219.35299682617</ele>
        <time>2009-07-11T15:22:17Z</time>
      </trkpt>
      <trkpt lat="45.09947" lon="5.03247">
        <ele>223.9640045166</ele>
        <time>2009-07-11T15:22:33Z</time>
      </trkpt>
      <trkpt lat="45.0997" lon="5.03167">
        <ele>225.97799682617</ele>
        <time>2009-07-11T15:22:46Z</time>
      </trkpt>
      <trkpt lat="45.10007" lon="5.03033">
        <ele>229.24299621582</ele>
        <time>2009-07-11T15:23:05Z</time>
      </trkpt>
      <trkpt lat="45.1004" lon="5.02919">
        <ele>233.45700073242</ele>
        <time>2009-07-11T15:23:23Z</time>
      </trkpt>
      <trkpt lat="45.10064" lon="5.02822">
        <ele>237.94599914551</ele>
        <time>2009-07-11T15:23:41Z</time>
      </trkpt>
      <trkpt lat="45.1007" lon="5.02752">
        <ele>241.37800598144</ele>
        <time>2009-07-11T15:23:55Z</time>
      </trkpt>
      <trkpt lat="45.10065" lon="5.02742">
        <ele>241.38800048828</ele>
        <time>2009-07-11T15:23:58Z</time>
      </trkpt>
      <trkpt lat="45.1006" lon="5.02733">
        <ele>242.11399841309</ele>
        <time>2009-07-11T15:24:00Z</time>
      </trkpt>
      <trkpt lat="45.1004" lon="5.02704">
        <ele>244.09599304199</ele>
        <time>2009-07-11T15:24:06Z</time>
      </trkpt>
      <trkpt lat="45.09999" lon="5.02653">
        <ele>247.13600158691</ele>
        <time>2009-07-11T15:24:17Z</time>
      </trkpt>
      <trkpt lat="45.0997" lon="5.02573">
        <ele>251.78399658203</ele>
        <time>2009-07-11T15:24:32Z</time>
      </trkpt>
      <trkpt lat="45.09912" lon="5.02498">
        <ele>255.71000671387</ele>
        <time>2009-07-11T15:24:49Z</time>
      </trkpt>
      <trkpt lat="45.09897" lon="5.02464">
        <ele>258.0950012207</ele>
        <time>2009-07-11T15:24:56Z</time>
      </trkpt>
      <trkpt lat="45.09884" lon="5.02435">
        <ele>259.58099365234</ele>
        <time>2009-07-11T15:25:02Z</time>
      </trkpt>
      <trkpt lat="45.09861" lon="5.02335">
        <ele>259.77899169922</ele>
        <time>2009-07-11T15:25:16Z</time>
      </trkpt>
      <trkpt lat="45.09851" lon="5.02292">
        <ele>257.28201293945</ele>
        <time>2009-07-11T15:25:20Z</time>
      </trkpt>
      <trkpt lat="45.09855" lon="5.02211">
        <ele>252.36700439453</ele>
        <time>2009-07-11T15:25:26Z</time>
      </trkpt>
      <trkpt lat="45.09898" lon="5.02091">
        <ele>246.85099792481</ele>
        <time>2009-07-11T15:25:34Z</time>
      </trkpt>
      <trkpt lat="45.09972" lon="5.01876">
        <ele>240.77600097656</ele>
        <time>2009-07-11T15:25:48Z</time>
      </trkpt>
      <trkpt lat="45.10056" lon="5.01599">
        <ele>237.59100341797</ele>
        <time>2009-07-11T15:26:06Z</time>
      </trkpt>
      <trkpt lat="45.10073" lon="5.01397">
        <ele>238.8630065918</ele>
        <time>2009-07-11T15:26:20Z</time>
      </trkpt>
      <trkpt lat="45.10097" lon="5.01176">
        <ele>239.02099609375</ele>
        <time>2009-07-11T15:26:37Z</time>
      </trkpt>
      <trkpt lat="45.10149" lon="5.01065">
        <ele>237.51499938965</ele>
        <time>2009-07-11T15:26:47Z</time>
      </trkpt>
      <trkpt lat="45.10253" lon="5.00927">
        <ele>234.49200439453</ele>
        <time>2009-07-11T15:27:01Z</time>
      </trkpt>
      <trkpt lat="45.10341" lon="5.00855">
        <ele>232.78700256348</ele>
        <time>2009-07-11T15:27:11Z</time>
      </trkpt>
      <trkpt lat="45.10476" lon="5.00752">
        <ele>232.96699523926</ele>
        <time>2009-07-11T15:27:28Z</time>
      </trkpt>
      <trkpt lat="45.10556" lon="5.00689">
        <ele>236.3630065918</ele>
        <time>2009-07-11T15:27:42Z</time>
      </trkpt>
      <trkpt lat="45.10609" lon="5.00647">
        <ele>239.50199890137</ele>
        <time>2009-07-11T15:27:54Z</time>
      </trkpt>
      <trkpt lat="45.10683" lon="5.00604">
        <ele>243.49099731445</ele>
        <time>2009-07-11T15:28:12Z</time>
      </trkpt>
      <trkpt lat="45.10738" lon="5.0059">
        <ele>246.75900268555</ele>
        <time>2009-07-11T15:28:25Z</time>
      </trkpt>
      <trkpt lat="45.10815" lon="5.00582">
        <ele>251.07400512695</ele>
        <time>2009-07-11T15:28:43Z</time>
      </trkpt>
      <trkpt lat="45.10859" lon="5.00576">
        <ele>253.52499389648</ele>
        <time>2009-07-11T15:28:52Z</time>
      </trkpt>
      <trkpt lat="45.10935" lon="5.00548">
        <ele>256.86499023438</ele>
        <time>2009-07-11T15:29:08Z</time>
      </trkpt>
      <trkpt lat="45.11007" lon="5.00495">
        <ele>254.57200622559</ele>
        <time>2009-07-11T15:29:22Z</time>
      </trkpt>
      <trkpt lat="45.11061" lon="5.00457">
        <ele>251.10699462891</ele>
        <time>2009-07-11T15:29:30Z</time>
      </trkpt>
      <trkpt lat="45.11109" lon="5.00427">
        <ele>248.32499694824</ele>
        <time>2009-07-11T15:29:36Z</time>
      </trkpt>
      <trkpt lat="45.11143" lon="5.00407">
        <ele>245.98899841309</ele>
        <time>2009-07-11T15:29:40Z</time>
      </trkpt>
      <trkpt lat="45.11152" lon="5.00402">
        <ele>245.87199401856</ele>
        <time>2009-07-11T15:29:41Z</time>
      </trkpt>
      <trkpt lat="45.11188" lon="5.00383">
        <ele>244.25399780273</ele>
        <time>2009-07-11T15:29:45Z</time>
      </trkpt>
      <trkpt lat="45.11216" lon="5.00369">
        <ele>242.14300537109</ele>
        <time>2009-07-11T15:29:48Z</time>
      </trkpt>
      <trkpt lat="45.1127" lon="5.00339">
        <ele>240.93800354004</ele>
        <time>2009-07-11T15:29:54Z</time>
      </trkpt>
      <trkpt lat="45.11287" lon="5.00327">
        <ele>239.91299438477</ele>
        <time>2009-07-11T15:29:56Z</time>
      </trkpt>
      <trkpt lat="45.11296" lon="5.00321">
        <ele>239.45599365234</ele>
        <time>2009-07-11T15:29:57Z</time>
      </trkpt>
      <trkpt lat="45.11425" lon="5.00212">
        <ele>237.65899658203</ele>
        <time>2009-07-11T15:30:14Z</time>
      </trkpt>
      <trkpt lat="45.11536" lon="5.00107">
        <ele>238.1130065918</ele>
        <time>2009-07-11T15:30:31Z</time>
      </trkpt>
      <trkpt lat="45.11615" lon="5.00013">
        <ele>235.95500183106</ele>
        <time>2009-07-11T15:30:46Z</time>
      </trkpt>
      <trkpt lat="45.11662" lon="4.99952">
        <ele>232.84300231934</ele>
        <time>2009-07-11T15:30:54Z</time>
      </trkpt>
      <trkpt lat="45.11721" lon="4.99911">
        <ele>228.49899291992</ele>
        <time>2009-07-11T15:31:01Z</time>
      </trkpt>
      <trkpt lat="45.11771" lon="4.9989">
        <ele>225.32299804688</ele>
        <time>2009-07-11T15:31:06Z</time>
      </trkpt>
      <trkpt lat="45.11867" lon="4.99849">
        <ele>218.75100708008</ele>
        <time>2009-07-11T15:31:15Z</time>
      </trkpt>
      <trkpt lat="45.11917" lon="4.99805">
        <ele>215.95300292969</ele>
        <time>2009-07-11T15:31:20Z</time>
      </trkpt>
      <trkpt lat="45.11996" lon="4.99681">
        <ele>214.31700134277</ele>
        <time>2009-07-11T15:31:30Z</time>
      </trkpt>
      <trkpt lat="45.12037" lon="4.99607">
        <ele>214.81100463867</ele>
        <time>2009-07-11T15:31:36Z</time>
      </trkpt>
      <trkpt lat="45.12064" lon="4.99557">
        <ele>213.90899658203</ele>
        <time>2009-07-11T15:31:40Z</time>
      </trkpt>
      <trkpt lat="45.12115" lon="4.99461">
        <ele>212.88800048828</ele>
        <time>2009-07-11T15:31:48Z</time>
      </trkpt>
      <trkpt lat="45.12145" lon="4.99384">
        <ele>212.74200439453</ele>
        <time>2009-07-11T15:31:54Z</time>
      </trkpt>
      <trkpt lat="45.12201" lon="4.9917">
        <ele>213.65400695801</ele>
        <time>2009-07-11T15:32:12Z</time>
      </trkpt>
      <trkpt lat="45.12224" lon="4.99089">
        <ele>215.61599731445</ele>
        <time>2009-07-11T15:32:20Z</time>
      </trkpt>
      <trkpt lat="45.12237" lon="4.9907">
        <ele>216.79499816894</ele>
        <time>2009-07-11T15:32:23Z</time>
      </trkpt>
      <trkpt lat="45.12233" lon="4.99035">
        <ele>217.20399475098</ele>
        <time>2009-07-11T15:32:28Z</time>
      </trkpt>
      <trkpt lat="45.12193" lon="4.99016">
        <ele>214.03500366211</ele>
        <time>2009-07-11T15:32:33Z</time>
      </trkpt>
      <trkpt lat="45.12095" lon="4.98883">
        <ele>209.53399658203</ele>
        <time>2009-07-11T15:32:45Z</time>
      </trkpt>
      <trkpt lat="45.12037" lon="4.98715">
        <ele>207.56500244141</ele>
        <time>2009-07-11T15:32:57Z</time>
      </trkpt>
      <trkpt lat="45.1202" lon="4.98547">
        <ele>208.43499755859</ele>
        <time>2009-07-11T15:33:09Z</time>
      </trkpt>
      <trkpt lat="45.12032" lon="4.98458">
        <ele>208.95899963379</ele>
        <time>2009-07-11T15:33:18Z</time>
      </trkpt>
      <trkpt lat="45.12034" lon="4.98451">
        <ele>209.02000427246</ele>
        <time>2009-07-11T15:33:19Z</time>
      </trkpt>
      <trkpt lat="45.12049" lon="4.98425">
        <ele>209.02299499512</ele>
        <time>2009-07-11T15:33:23Z</time>
      </trkpt>
      <trkpt lat="45.12056" lon="4.98391">
        <ele>209.88200378418</ele>
        <time>2009-07-11T15:33:28Z</time>
      </trkpt>
      <trkpt lat="45.12054" lon="4.9837">
        <ele>208.67100524902</ele>
        <time>2009-07-11T15:33:31Z</time>
      </trkpt>
      <trkpt lat="45.12056" lon="4.98361">
        <ele>208.55200195312</ele>
        <time>2009-07-11T15:33:32Z</time>
      </trkpt>
      <trkpt lat="45.12069" lon="4.98288">
        <ele>206.65199279785</ele>
        <time>2009-07-11T15:33:38Z</time>
      </trkpt>
      <trkpt lat="45.12071" lon="4.98144">
        <ele>205.3869934082</ele>
        <time>2009-07-11T15:33:48Z</time>
      </trkpt>
      <trkpt lat="45.12029" lon="4.97967">
        <ele>203.93499755859</ele>
        <time>2009-07-11T15:34:00Z</time>
      </trkpt>
      <trkpt lat="45.1198" lon="4.97707">
        <ele>202.16000366211</ele>
        <time>2009-07-11T15:34:17Z</time>
      </trkpt>
      <trkpt lat="45.1192" lon="4.97361">
        <ele>199.02499389648</ele>
        <time>2009-07-11T15:34:41Z</time>
      </trkpt>
      <trkpt lat="45.11884" lon="4.97155">
        <ele>200.49200439453</ele>
        <time>2009-07-11T15:34:57Z</time>
      </trkpt>
      <trkpt lat="45.11895" lon="4.97092">
        <ele>202.16000366211</ele>
        <time>2009-07-11T15:35:03Z</time>
      </trkpt>
      <trkpt lat="45.11888" lon="4.97046">
        <ele>202.81100463867</ele>
        <time>2009-07-11T15:35:10Z</time>
      </trkpt>
      <trkpt lat="45.11871" lon="4.97028">
        <ele>202.38200378418</ele>
        <time>2009-07-11T15:35:13Z</time>
      </trkpt>
      <trkpt lat="45.11771" lon="4.96882">
        <ele>202.11500549316</ele>
        <time>2009-07-11T15:35:31Z</time>
      </trkpt>
      <trkpt lat="45.11752" lon="4.9682">
        <ele>201.85000610352</ele>
        <time>2009-07-11T15:35:38Z</time>
      </trkpt>
      <trkpt lat="45.11746" lon="4.96817">
        <ele>201.96000671387</ele>
        <time>2009-07-11T15:35:39Z</time>
      </trkpt>
      <trkpt lat="45.11708" lon="4.96782">
        <ele>201.01699829102</ele>
        <time>2009-07-11T15:35:45Z</time>
      </trkpt>
      <trkpt lat="45.11631" lon="4.96617">
        <ele>199.50700378418</ele>
        <time>2009-07-11T15:36:02Z</time>
      </trkpt>
      <trkpt lat="45.11585" lon="4.965">
        <ele>199.64399719238</ele>
        <time>2009-07-11T15:36:16Z</time>
      </trkpt>
      <trkpt lat="45.11582" lon="4.96472">
        <ele>200.57099914551</ele>
        <time>2009-07-11T15:36:20Z</time>
      </trkpt>
      <trkpt lat="45.11583" lon="4.9645">
        <ele>201.43499755859</ele>
        <time>2009-07-11T15:36:24Z</time>
      </trkpt>
      <trkpt lat="45.11574" lon="4.96446">
        <ele>201.44000244141</ele>
        <time>2009-07-11T15:36:33Z</time>
      </trkpt>
      <trkpt lat="45.11566" lon="4.96442">
        <ele>201.27499389648</ele>
        <time>2009-07-11T15:36:38Z</time>
      </trkpt>
      <trkpt lat="45.11562" lon="4.96437">
        <ele>200.87300109863</ele>
        <time>2009-07-11T15:36:40Z</time>
      </trkpt>
      <trkpt lat="45.1156" lon="4.96428">
        <ele>201.4049987793</ele>
        <time>2009-07-11T15:36:42Z</time>
      </trkpt>
      <trkpt lat="45.11568" lon="4.96423">
        <ele>202.10499572754</ele>
        <time>2009-07-11T15:36:48Z</time>
      </trkpt>
      <trkpt lat="45.11568" lon="4.96424">
        <ele>202.04100036621</ele>
        <time>2009-07-11T15:36:50Z</time>
      </trkpt>
    </trkseg>
  </trk>
</gpx>